[[{"header":{"parameterUnit":"m.s-1","parameterCategory":1,"la1":30.6,"la2":29.2853,"lo1":-89.7004,"lo2":-87.6739,"dy":0.0162,"dx":0.0183,"nx":112,"ny":82,"refTime":"2024-07-27T12:00:00:Z","depth":0,"parameterNumber":2,"parameterNumberName":"U-component_of_WINDS"},"data":[0.0,0.0,0.0,0.0,0.0,0.0,0.0,0.0,0.0,0.0,0.0,0.0,0.0,0.0,0.0,0.0,0.0,0.0,0.0,0.0,0.0,0.0,0.0,0.0,0.0,0.0,0.0,0.0,0.0,0.0,0.0,0.0,0.0,0.0,0.0,0.0,0.0,0.0,0.0,0.0,0.0,0.0,0.0,0.0,0.0,0.0,0.0,0.0,0.0,0.0,0.0,0.0,0.0,0.0,0.0,0.0,0.0,0.0,0.0,0.0,0.0,0.0,0.0,0.0,0.0,0.0,0.0,0.0,0.0,0.0,0.0,0.0,0.0,0.0,0.0,0.0,0.0,0.0,0.0,0.0,0.0,0.0,0.0,0.0,0.0,0.0,0.0,0.0,0.0,0.0,0.0,-2.907,-2.9159,-2.9138,-2.9201,-2.9001,-2.816,-2.6506,0.0,0.0,0.0,0.0,0.0,0.0,0.0,0.0,0.0,0.0,0.0,0.0,0.0,0.0,0.0,0.0,0.0,0.0,0.0,0.0,0.0,0.0,0.0,0.0,0.0,0.0,0.0,0.0,0.0,0.0,0.0,0.0,0.0,0.0,0.0,0.0,0.0,0.0,0.0,0.0,0.0,0.0,0.0,0.0,0.0,0.0,0.0,0.0,0.0,0.0,0.0,0.0,0.0,0.0,0.0,0.0,0.0,0.0,0.0,0.0,0.0,0.0,0.0,0.0,0.0,0.0,0.0,0.0,0.0,0.0,0.0,0.0,0.0,0.0,0.0,0.0,0.0,0.0,0.0,0.0,0.0,0.0,0.0,0.0,0.0,0.0,0.0,0.0,0.0,0.0,0.0,0.0,0.0,0.0,0.0,0.0,0.0,0.0,0.0,0.0,0.0,0.0,0.0,0.0,-2.7074,-2.9608,-2.8908,-2.8534,-2.9152,-2.7804,-2.6775,-2.642,0.0,0.0,0.0,0.0,0.0,0.0,0.0,0.0,0.0,0.0,0.0,0.0,0.0,0.0,0.0,0.0,0.0,0.0,0.0,0.0,0.0,0.0,0.0,0.0,0.0,0.0,0.0,0.0,0.0,0.0,0.0,0.0,0.0,0.0,0.0,0.0,0.0,0.0,0.0,0.0,0.0,0.0,0.0,0.0,0.0,0.0,0.0,0.0,0.0,0.0,0.0,0.0,0.0,0.0,0.0,0.0,0.0,0.0,0.0,0.0,0.0,0.0,0.0,0.0,0.0,0.0,0.0,0.0,0.0,0.0,0.0,0.0,0.0,0.0,0.0,0.0,0.0,0.0,0.0,0.0,0.0,0.0,0.0,0.0,0.0,0.0,0.0,0.0,0.0,0.0,0.0,0.0,0.0,0.0,0.0,0.0,0.0,0.0,0.0,0.0,0.0,0.0,0.0,-2.6976,-2.7866,-2.9217,-2.8608,-2.8019,-2.7805,-2.6999,-2.6225,-2.5569,-2.6506,0.0,0.0,0.0,0.0,0.0,0.0,0.0,0.0,0.0,0.0,0.0,0.0,0.0,0.0,0.0,0.0,0.0,0.0,0.0,0.0,0.0,0.0,0.0,0.0,0.0,0.0,0.0,0.0,0.0,0.0,0.0,0.0,0.0,0.0,0.0,0.0,0.0,0.0,0.0,0.0,0.0,0.0,0.0,0.0,0.0,0.0,0.0,0.0,0.0,0.0,0.0,0.0,0.0,0.0,0.0,0.0,0.0,0.0,0.0,0.0,0.0,0.0,0.0,0.0,0.0,0.0,0.0,0.0,0.0,0.0,0.0,0.0,0.0,0.0,0.0,0.0,0.0,0.0,0.0,0.0,0.0,0.0,0.0,0.0,0.0,0.0,0.0,0.0,0.0,0.0,0.0,0.0,0.0,0.0,0.0,0.0,0.0,0.0,0.0,0.0,0.0,0.0,-2.8212,-2.8806,-2.8897,-2.8421,-2.7706,-2.6709,-2.6315,-2.5736,-2.4861,-2.553,0.0,0.0,0.0,0.0,0.0,0.0,0.0,0.0,0.0,0.0,0.0,0.0,0.0,0.0,0.0,0.0,0.0,0.0,0.0,0.0,0.0,0.0,0.0,0.0,0.0,0.0,0.0,0.0,0.0,0.0,0.0,0.0,0.0,0.0,0.0,0.0,0.0,0.0,0.0,0.0,0.0,0.0,0.0,0.0,0.0,0.0,0.0,0.0,0.0,0.0,0.0,0.0,0.0,0.0,0.0,0.0,0.0,0.0,0.0,0.0,0.0,0.0,0.0,0.0,0.0,0.0,0.0,0.0,0.0,0.0,0.0,0.0,0.0,0.0,0.0,0.0,0.0,0.0,0.0,0.0,0.0,0.0,0.0,0.0,0.0,0.0,0.0,0.0,0.0,0.0,0.0,0.0,0.0,0.0,0.0,0.0,0.0,0.0,0.0,0.0,0.0,0.0,-2.8461,-2.949,-2.9197,-2.8529,-2.7718,-2.677,-2.5658,-2.4951,-2.4799,-2.4875,0.0,0.0,0.0,0.0,0.0,0.0,0.0,0.0,0.0,0.0,0.0,0.0,0.0,0.0,0.0,0.0,0.0,0.0,0.0,0.0,0.0,0.0,0.0,0.0,0.0,0.0,0.0,0.0,0.0,0.0,0.0,0.0,0.0,0.0,0.0,0.0,0.0,0.0,0.0,0.0,0.0,0.0,0.0,0.0,0.0,0.0,0.0,0.0,0.0,0.0,0.0,0.0,0.0,0.0,0.0,0.0,0.0,0.0,0.0,0.0,0.0,0.0,0.0,0.0,0.0,0.0,0.0,0.0,0.0,0.0,0.0,0.0,0.0,0.0,0.0,0.0,0.0,0.0,0.0,0.0,0.0,0.0,0.0,0.0,0.0,0.0,0.0,0.0,0.0,0.0,0.0,0.0,0.0,0.0,0.0,0.0,0.0,0.0,0.0,0.0,0.0,0.0,-2.725,-2.8004,0.0,-2.7427,-2.6906,-2.5974,-2.5279,-2.4873,-2.479,0.0,0.0,0.0,0.0,0.0,0.0,0.0,0.0,0.0,0.0,0.0,0.0,0.0,0.0,0.0,0.0,0.0,0.0,0.0,0.0,0.0,0.0,0.0,0.0,0.0,0.0,0.0,0.0,0.0,0.0,0.0,0.0,0.0,0.0,0.0,0.0,0.0,0.0,0.0,0.0,0.0,0.0,0.0,0.0,0.0,0.0,0.0,0.0,0.0,0.0,0.0,0.0,0.0,0.0,0.0,0.0,0.0,0.0,0.0,0.0,0.0,0.0,0.0,0.0,0.0,0.0,0.0,0.0,0.0,0.0,0.0,0.0,0.0,0.0,0.0,0.0,0.0,0.0,0.0,0.0,0.0,0.0,0.0,0.0,0.0,0.0,0.0,0.0,0.0,0.0,0.0,0.0,0.0,0.0,0.0,0.0,0.0,0.0,0.0,0.0,0.0,0.0,-2.5615,-2.6559,-2.7081,0.0,-2.6767,-2.6425,-2.5508,-2.516,-2.4935,-2.4814,0.0,0.0,0.0,0.0,0.0,0.0,0.0,0.0,0.0,0.0,0.0,0.0,0.0,0.0,0.0,0.0,0.0,0.0,0.0,0.0,0.0,0.0,0.0,0.0,0.0,0.0,0.0,0.0,0.0,0.0,0.0,0.0,0.0,0.0,0.0,0.0,0.0,0.0,0.0,0.0,0.0,0.0,0.0,0.0,0.0,0.0,0.0,0.0,0.0,0.0,0.0,0.0,0.0,0.0,0.0,0.0,0.0,0.0,0.0,0.0,0.0,0.0,0.0,0.0,0.0,0.0,0.0,0.0,0.0,0.0,0.0,0.0,0.0,0.0,0.0,0.0,0.0,0.0,0.0,0.0,0.0,0.0,0.0,0.0,0.0,0.0,0.0,0.0,0.0,0.0,0.0,0.0,0.0,0.0,0.0,0.0,0.0,0.0,0.0,0.0,0.0,0.0,-2.5923,-2.6686,-2.7083,-2.6809,-2.6776,-2.6437,-2.5574,-2.5315,-2.5091,0.0,0.0,0.0,0.0,0.0,0.0,0.0,0.0,0.0,0.0,0.0,0.0,0.0,0.0,0.0,0.0,0.0,0.0,0.0,0.0,0.0,0.0,0.0,0.0,0.0,0.0,0.0,0.0,0.0,0.0,0.0,0.0,0.0,0.0,0.0,0.0,0.0,0.0,0.0,0.0,0.0,0.0,0.0,0.0,0.0,0.0,0.0,0.0,0.0,0.0,0.0,0.0,0.0,0.0,0.0,0.0,0.0,0.0,0.0,0.0,0.0,0.0,0.0,0.0,0.0,0.0,0.0,0.0,0.0,0.0,0.0,0.0,0.0,0.0,0.0,0.0,0.0,0.0,0.0,0.0,0.0,0.0,0.0,0.0,0.0,0.0,0.0,0.0,0.0,0.0,0.0,0.0,0.0,0.0,0.0,0.0,0.0,0.0,0.0,0.0,0.0,0.0,0.0,-2.4849,-2.5716,-2.6211,-2.5849,-2.5856,-2.5758,-2.5459,-2.5286,-2.5091,-2.4814,0.0,0.0,0.0,0.0,0.0,0.0,0.0,0.0,0.0,0.0,0.0,0.0,0.0,0.0,0.0,0.0,0.0,0.0,0.0,0.0,0.0,0.0,0.0,0.0,0.0,0.0,0.0,0.0,0.0,0.0,0.0,0.0,0.0,0.0,0.0,0.0,0.0,0.0,0.0,0.0,0.0,0.0,0.0,0.0,0.0,0.0,0.0,0.0,0.0,0.0,0.0,0.0,0.0,0.0,0.0,0.0,0.0,0.0,0.0,0.0,0.0,0.0,0.0,0.0,0.0,0.0,0.0,0.0,0.0,0.0,0.0,0.0,0.0,0.0,0.0,0.0,0.0,0.0,0.0,0.0,0.0,0.0,0.0,0.0,0.0,0.0,0.0,0.0,0.0,0.0,0.0,0.0,0.0,0.0,0.0,0.0,0.0,0.0,0.0,0.0,0.0,0.0,-2.456,-2.5133,-2.5557,-2.5453,-2.5478,-2.5495,-2.5482,-2.5377,-2.5171,-2.4818,0.0,0.0,0.0,0.0,0.0,0.0,0.0,0.0,0.0,0.0,0.0,0.0,0.0,0.0,0.0,0.0,0.0,0.0,0.0,0.0,0.0,0.0,0.0,0.0,0.0,0.0,0.0,0.0,0.0,0.0,0.0,0.0,0.0,0.0,0.0,0.0,0.0,0.0,0.0,0.0,0.0,0.0,0.0,0.0,0.0,0.0,0.0,0.0,0.0,0.0,0.0,0.0,0.0,0.0,0.0,0.0,0.0,0.0,0.0,0.0,0.0,0.0,0.0,0.0,0.0,0.0,0.0,0.0,0.0,0.0,0.0,0.0,0.0,0.0,0.0,0.0,0.0,0.0,0.0,0.0,0.0,0.0,0.0,0.0,0.0,0.0,0.0,0.0,0.0,0.0,0.0,0.0,0.0,0.0,0.0,0.0,0.0,0.0,0.0,0.0,0.0,0.0,-2.4809,-2.492,-2.5138,-2.5463,-2.5498,-2.5522,-2.5592,-2.5527,-2.5308,-2.4855,0.0,0.0,0.0,0.0,0.0,0.0,0.0,0.0,0.0,0.0,0.0,0.0,0.0,0.0,0.0,0.0,0.0,0.0,0.0,0.0,0.0,0.0,0.0,0.0,0.0,0.0,0.0,0.0,0.0,0.0,0.0,0.0,0.0,0.0,0.0,0.0,0.0,0.0,0.0,0.0,0.0,0.0,0.0,0.0,0.0,0.0,0.0,0.0,0.0,0.0,0.0,0.0,0.0,0.0,0.0,0.0,0.0,0.0,0.0,0.0,-2.7661,0.0,0.0,0.0,0.0,0.0,0.0,0.0,0.0,0.0,0.0,0.0,0.0,0.0,0.0,0.0,0.0,0.0,0.0,0.0,0.0,0.0,0.0,0.0,0.0,0.0,0.0,0.0,0.0,0.0,0.0,0.0,0.0,0.0,0.0,0.0,0.0,0.0,0.0,0.0,0.0,0.0,-2.4937,-2.4977,-2.5106,-2.5391,-2.5467,-2.5509,-2.5517,-2.5506,-2.5373,-2.5062,-2.4895,0.0,0.0,0.0,0.0,0.0,0.0,0.0,0.0,0.0,0.0,0.0,0.0,0.0,0.0,0.0,0.0,0.0,0.0,0.0,0.0,0.0,0.0,0.0,0.0,0.0,0.0,0.0,0.0,0.0,0.0,0.0,0.0,0.0,0.0,0.0,0.0,0.0,0.0,0.0,0.0,0.0,0.0,0.0,0.0,0.0,0.0,0.0,0.0,0.0,0.0,0.0,0.0,0.0,0.0,0.0,0.0,0.0,0.0,0.0,0.0,-2.7172,0.0,0.0,0.0,0.0,0.0,0.0,0.0,0.0,0.0,0.0,0.0,0.0,0.0,0.0,0.0,0.0,0.0,0.0,0.0,0.0,0.0,0.0,0.0,0.0,0.0,0.0,0.0,0.0,0.0,0.0,0.0,0.0,0.0,0.0,0.0,0.0,0.0,0.0,0.0,0.0,-2.5013,-2.5078,-2.5216,-2.5425,-2.5478,-2.5525,-2.5586,-2.5541,-2.5397,-2.5161,-2.4991,0.0,0.0,0.0,0.0,0.0,0.0,0.0,0.0,0.0,0.0,0.0,0.0,0.0,0.0,0.0,0.0,0.0,0.0,0.0,0.0,0.0,0.0,0.0,0.0,0.0,0.0,0.0,0.0,0.0,0.0,0.0,0.0,0.0,0.0,0.0,0.0,0.0,0.0,0.0,0.0,0.0,0.0,0.0,0.0,0.0,0.0,0.0,0.0,0.0,0.0,0.0,0.0,0.0,-3.0832,-3.0996,-3.1101,-3.034,-3.0233,-3.0527,-2.84,-2.7689,-2.7888,-2.6452,0.0,0.0,0.0,0.0,0.0,0.0,0.0,0.0,0.0,0.0,0.0,0.0,0.0,0.0,0.0,0.0,0.0,0.0,0.0,0.0,0.0,0.0,0.0,0.0,-2.9139,-2.9398,0.0,0.0,0.0,0.0,0.0,0.0,0.0,0.0,0.0,0.0,0.0,0.0,-2.5137,-2.5226,-2.5376,-2.5503,-2.5517,-2.5574,-2.5693,-2.558,-2.5429,-2.5266,-2.5091,-2.4971,0.0,0.0,0.0,0.0,0.0,0.0,0.0,0.0,0.0,0.0,0.0,0.0,0.0,0.0,0.0,0.0,0.0,0.0,0.0,0.0,0.0,0.0,0.0,0.0,0.0,0.0,0.0,0.0,0.0,0.0,0.0,0.0,-2.9117,-2.7121,0.0,0.0,0.0,0.0,0.0,0.0,0.0,0.0,0.0,0.0,0.0,0.0,0.0,-3.0368,-3.1556,-3.1831,-3.1728,-3.1277,-3.1875,-3.2112,-3.2015,-3.1436,-3.134,-3.1555,-3.0366,0.0,-2.922,-2.8699,0.0,0.0,0.0,0.0,0.0,0.0,0.0,0.0,0.0,0.0,0.0,0.0,0.0,0.0,0.0,0.0,0.0,0.0,0.0,0.0,0.0,0.0,-3.0662,-3.0428,-3.0446,-3.0478,0.0,-2.914,-2.812,-2.8023,-2.7994,0.0,0.0,0.0,0.0,0.0,0.0,0.0,-2.5539,-2.5457,-2.5503,-2.558,-2.5595,-2.5619,-2.5693,-2.558,-2.5489,-2.5459,-2.5168,-2.5077,-2.5233,-2.4962,0.0,0.0,0.0,0.0,0.0,0.0,0.0,0.0,0.0,0.0,0.0,0.0,0.0,0.0,0.0,0.0,0.0,0.0,0.0,0.0,0.0,0.0,0.0,0.0,0.0,0.0,0.0,0.0,0.0,-2.664,-2.8735,-2.7007,-2.8024,-2.8425,0.0,0.0,0.0,0.0,0.0,0.0,0.0,0.0,0.0,-3.1422,-3.1497,-3.1691,-3.209,-3.2492,-3.2368,-3.1756,-3.2144,-3.1793,-3.0814,-3.123,-3.1004,-3.0339,-3.0432,-3.0316,-3.0028,-2.9665,-2.9274,-2.9002,0.0,0.0,0.0,0.0,-2.9093,-2.9171,-2.9171,-2.9069,0.0,-2.842,0.0,0.0,0.0,0.0,0.0,0.0,0.0,0.0,0.0,0.0,-3.0146,-3.0104,-2.9711,-2.947,-2.9893,-2.9007,-2.8376,0.0,-2.9406,-2.9119,-2.8236,0.0,0.0,0.0,0.0,-2.5927,-2.5551,-2.5503,-2.5535,-2.5588,-2.5601,-2.5608,-2.564,-2.5558,-2.5473,-2.5453,-2.5263,-2.5214,-2.5303,-2.5158,-2.5163,0.0,0.0,0.0,0.0,0.0,0.0,0.0,0.0,0.0,0.0,0.0,0.0,0.0,0.0,0.0,0.0,0.0,0.0,0.0,0.0,0.0,0.0,0.0,0.0,0.0,0.0,0.0,0.0,-2.7821,-2.8476,-2.7343,-2.9373,-3.0075,0.0,0.0,0.0,0.0,0.0,0.0,-3.1737,-3.1603,-3.1851,-3.2605,-3.2742,-3.2637,-3.2237,-3.2457,-3.2176,-3.1388,-3.1483,-3.0908,-2.9758,-3.0662,-3.0527,-2.9603,-3.0307,-3.0599,-3.0535,-3.023,-3.0017,-2.9918,-3.0299,-3.0443,-3.0452,-3.0452,-3.0441,-3.0437,-3.0437,-3.0285,-3.0008,-2.9404,0.0,-2.953,-2.8483,0.0,0.0,0.0,0.0,-2.9883,-2.9658,-2.96,-2.9541,-2.9316,-2.8769,-2.8456,-2.9061,-2.8686,-2.861,0.0,-3.0005,-2.9462,-2.8205,0.0,0.0,0.0,0.0,-2.5798,-2.558,-2.5554,-2.5564,-2.5619,-2.5631,-2.5623,-2.5595,-2.5543,-2.5472,-2.5401,-2.5339,-2.5293,-2.5293,-2.5244,-2.5253,-2.5293,0.0,0.0,0.0,0.0,0.0,0.0,0.0,0.0,0.0,0.0,0.0,0.0,0.0,0.0,0.0,0.0,0.0,0.0,0.0,0.0,0.0,0.0,0.0,0.0,0.0,0.0,0.0,0.0,0.0,-2.9294,-3.0736,0.0,0.0,0.0,0.0,-2.9639,-3.1054,-3.1987,-3.2072,-3.2072,-3.233,-3.2961,-3.2573,-3.2255,-3.2106,-3.1247,-3.0448,-2.9728,-2.953,-2.9558,-2.9808,-3.0121,-3.0357,-3.0537,-3.0655,-3.0692,-3.0689,-3.0673,-3.0533,-3.0384,-3.0529,-3.0587,-3.0587,-3.0587,-3.0548,-3.049,-3.049,-3.0442,-3.0367,-3.0331,-2.9832,-2.9264,-2.9366,-2.9425,0.0,0.0,-3.0156,-3.0644,-2.9814,-2.96,-2.9394,-2.8564,-2.833,-2.831,-2.8349,-2.833,-2.8494,0.0,-2.8651,-2.8099,-2.8008,0.0,-2.7766,-2.6947,-2.6881,-2.6631,-2.58,-2.5693,-2.5693,-2.5693,-2.5693,-2.5672,-2.5615,-2.5543,-2.5472,-2.5401,-2.5339,-2.5293,-2.5293,-2.512,-2.5099,-2.5303,-2.5111,0.0,0.0,0.0,0.0,0.0,0.0,0.0,0.0,0.0,0.0,0.0,0.0,0.0,0.0,0.0,0.0,0.0,0.0,0.0,0.0,0.0,0.0,0.0,0.0,0.0,0.0,0.0,0.0,-2.9488,-3.1331,0.0,-2.9784,-3.0613,-3.1279,-3.127,-3.2307,-3.3174,-3.374,-3.3314,-3.3167,-3.3366,-3.2309,-3.1546,-3.1203,-3.0391,-2.9744,-2.9225,-2.9455,-2.937,-2.9046,-2.9389,-2.9633,-2.9772,-2.9829,-3.0161,-3.0643,-3.0679,-3.0708,-3.0711,-3.063,-3.06,-3.0522,-2.9826,-3.002,-3.0537,-2.9886,-3.0008,-3.0463,-3.0463,-3.0331,-3.018,-3.0248,-3.033,-3.0291,-2.9746,-2.9824,-2.9863,-2.8994,-2.835,-2.7851,-2.7539,-2.7031,-2.6777,-2.7344,-2.7021,-2.6831,-2.7522,-2.788,-2.7864,-2.7272,-2.7154,-2.6888,-2.6175,-2.6051,-2.5954,-2.5732,-2.5703,-2.5703,-2.5703,-2.5703,-2.5659,-2.5547,-2.5512,-2.5472,-2.5403,-2.5339,-2.5339,-2.5431,-2.5313,-2.5313,-2.5428,-2.5355,-2.5366,0.0,0.0,0.0,0.0,0.0,0.0,0.0,0.0,0.0,0.0,0.0,0.0,0.0,0.0,0.0,0.0,0.0,0.0,0.0,0.0,0.0,0.0,0.0,0.0,0.0,0.0,-3.1262,-2.9897,-3.1789,-3.2334,-3.0102,-3.0928,-3.1532,-3.1337,-3.2095,-3.2748,-3.318,-3.3002,-3.2746,-3.2483,-3.175,-3.0891,-2.9962,-2.9459,-2.901,-2.8641,-2.9107,-2.9063,-2.8618,-2.8992,-2.9071,-2.8902,-2.8919,-2.9227,-2.9729,-2.9825,-2.9907,-3.0043,-3.0504,-3.0516,-3.018,-2.9791,-2.9732,-2.9761,-2.9067,-2.9204,-2.9685,-2.9722,-2.9776,-2.9857,-2.9877,-2.9948,-2.9902,-2.9316,-2.915,-2.8933,-2.8054,-2.7377,-2.6856,-2.6589,-2.6091,-2.5828,-2.6426,-2.6093,-2.58,-2.6275,-2.6851,-2.704,-2.6352,-2.6246,-2.6104,-2.5638,-2.5574,-2.5601,-2.5693,-2.5703,-2.5703,-2.5703,-2.5703,-2.5649,-2.5537,-2.5529,-2.5513,-2.5434,-2.5391,-2.5403,-2.5498,-2.5439,-2.542,-2.5471,-2.5473,-2.5464,-2.5429,0.0,0.0,0.0,0.0,0.0,0.0,0.0,0.0,0.0,0.0,0.0,0.0,0.0,0.0,0.0,0.0,0.0,0.0,0.0,0.0,0.0,0.0,0.0,-3.0671,-3.0898,-3.0852,-3.0632,-3.2114,-3.2251,-2.9931,-3.1194,-3.1444,-2.9735,-3.0405,-3.0725,-3.0308,-3.0969,-3.1031,-3.0325,-3.0866,-3.0331,-2.852,-2.8421,-2.8211,-2.7917,-2.8394,-2.8615,-2.8618,-2.892,-2.8709,-2.809,-2.7998,-2.797,-2.8005,-2.8143,-2.8201,-2.8383,-3.0188,-3.0316,-2.9594,-3.0433,-2.963,-2.8106,-2.8091,-2.8093,-2.811,-2.8177,-2.8203,-2.8211,-2.828,-2.8301,-2.8291,-2.8262,-2.8207,-2.7954,-2.7076,-2.6815,-2.6563,-2.5778,-2.5601,-2.5619,-2.5683,-2.5648,-2.5583,-2.5517,-2.5558,-2.5543,-2.5348,-2.5471,-2.5567,-2.5526,-2.5617,0.0,-2.5703,-2.5703,-2.5703,-2.5703,-2.5703,-2.5672,-2.5613,-2.5601,-2.5567,-2.5508,-2.5503,-2.5503,-2.5508,-2.5437,-2.5398,-2.54,-2.5387,-2.5363,-2.5289,0.0,0.0,0.0,0.0,0.0,0.0,0.0,0.0,0.0,0.0,0.0,0.0,0.0,0.0,0.0,0.0,0.0,0.0,0.0,0.0,0.0,0.0,-2.9281,-2.9746,-3.0901,-3.1416,-3.0686,-3.1579,-3.1573,-2.9874,-3.0639,-3.0798,-2.969,-3.0405,-3.0725,-3.0308,-3.0173,-3.0135,-3.0207,-2.9259,-2.8638,-2.8414,-2.7892,-2.7777,-2.8128,-2.8681,-2.8947,-2.8878,-2.8434,-2.8185,-2.8056,-2.731,-2.7372,-2.8014,-2.809,-2.816,-2.8381,-3.0185,-3.0242,-2.9109,-2.7664,-2.6784,-2.6442,-2.7302,-2.7822,-2.8111,-2.8177,-2.8229,-2.8271,-2.8237,-2.8231,-2.809,-2.7404,-2.7201,-2.6985,-2.6114,-2.5867,-2.58,-2.5579,-2.5561,-2.5613,-2.5621,-2.5653,-2.5649,-2.5593,-2.5633,-2.5621,-2.5467,-2.545,-2.5498,-2.5631,-2.5644,0.0,-2.5693,-2.5703,-2.5703,-2.5703,-2.5703,-2.5672,-2.5613,-2.5601,-2.5588,-2.5567,-2.5535,-2.5537,-2.5636,-2.5534,-2.5468,-2.5466,-2.5278,-2.5174,0.0,0.0,0.0,0.0,0.0,0.0,0.0,0.0,0.0,0.0,0.0,0.0,0.0,0.0,0.0,0.0,0.0,0.0,0.0,0.0,0.0,0.0,-2.8382,-2.8825,-2.9285,-3.0568,-3.1121,-3.0205,-3.0543,-3.0411,-2.9278,-2.9438,-2.9437,-2.8928,-2.9208,-2.9213,-2.8795,-2.8824,-2.8883,-2.8991,-2.8377,-2.8113,-2.8181,-2.7421,-2.7331,-2.7916,-2.8053,-2.8059,-2.7907,-2.7547,-2.7259,0.0,-2.6338,-2.6362,-2.6877,-2.6941,-2.7006,0.0,0.0,0.0,0.0,0.0,-2.5676,-2.574,-2.6406,-2.6835,-2.7104,-2.7144,-2.7158,-2.7163,-2.7122,-2.7088,-2.6961,-2.6412,-2.6237,-2.6093,-2.5597,-2.5441,-2.5421,-2.545,-2.5508,-2.5574,-2.5588,-2.5633,-2.5648,-2.5615,-2.5605,0.0,-2.5554,-2.5529,-2.5558,-2.5637,-2.5648,-2.5659,-2.5693,-2.5703,-2.5703,-2.5703,-2.5703,-2.5683,-2.5647,-2.5637,0.0,0.0,0.0,-2.5588,-2.5621,-2.5508,0.0,0.0,0.0,0.0,0.0,0.0,0.0,0.0,-2.4895,-2.5049,0.0,0.0,0.0,0.0,0.0,0.0,0.0,0.0,0.0,0.0,0.0,0.0,0.0,0.0,0.0,0.0,-2.779,-2.8155,-2.9007,-2.9858,-3.0106,-2.9343,-2.9228,-2.8954,-2.8335,-2.7951,-2.7691,-2.7571,-2.7246,-2.6865,-2.6404,0.0,0.0,0.0,0.0,-2.7914,-2.7697,-2.6986,-2.6892,-2.7416,-2.7026,-2.6711,-2.6453,-2.6617,-2.6263,-2.5493,-2.5354,-2.5293,-2.5303,-2.5369,-2.5441,-2.5618,-2.6762,-2.706,-2.6758,-2.5986,-2.5703,-2.5693,-2.5634,0.0,0.0,-2.5693,-2.5648,-2.5601,-2.5583,-2.5543,-2.5488,-2.5478,-2.5425,-2.5391,-2.5391,-2.5337,-2.5322,-2.5374,-2.545,-2.5517,-2.5593,-2.5605,-2.5607,-2.5607,-2.5561,-2.5537,-2.5603,-2.5649,-2.5672,-2.5619,-2.5661,-2.5703,-2.5703,-2.5703,-2.5703,-2.5703,0.0,0.0,-2.5703,-2.5703,-2.5703,-2.5703,-2.5693,-2.5634,-2.5508,-2.5444,-2.5272,-2.501,-2.4986,-2.4907,-2.476,-2.4568,-2.447,-2.447,-2.447,-2.4507,0.0,0.0,0.0,0.0,0.0,0.0,0.0,0.0,0.0,0.0,0.0,0.0,0.0,0.0,0.0,-2.6384,-2.7089,-2.7758,-2.8055,-2.8335,-2.8484,-2.8374,-2.816,-2.7867,-2.7469,-2.7019,-2.6422,-2.5547,-2.5521,-2.5202,-2.4489,-2.4883,-2.5356,-2.5834,-2.5732,-2.589,-2.6361,-2.6209,-2.6372,-2.6849,0.0,0.0,-2.672,-2.6708,-2.6263,-2.5493,-2.5354,-2.5293,-2.5303,-2.5369,-2.5467,-2.5605,-2.5906,-2.5996,-2.5928,-2.5763,-2.5697,-2.5697,-2.5687,-2.5648,-2.5616,-2.562,-2.5605,-2.558,-2.5472,-2.5434,0.0,-2.5354,-2.5331,-2.5312,-2.5312,-2.5303,-2.5322,-2.5374,-2.545,-2.5517,-2.5593,-2.5641,-2.5683,-2.5683,-2.5672,-2.5671,-2.5683,-2.5647,-2.5634,-2.5672,-2.5693,-2.5703,-2.5703,-2.5703,-2.5703,-2.5703,-2.5703,-2.5703,-2.5703,-2.5703,-2.5703,-2.5703,-2.5648,-2.5583,-2.5503,-2.5441,-2.5271,-2.501,-2.4891,-2.4751,-2.4552,-2.4366,-2.4256,-2.4256,-2.4256,-2.4606,0.0,0.0,0.0,0.0,0.0,0.0,0.0,0.0,0.0,0.0,0.0,-2.5391,-2.5184,0.0,-2.5996,-2.5995,-2.6384,-2.679,-2.706,-2.6746,-2.6701,-2.7241,-2.7147,-2.6883,-2.6489,-2.5907,-2.5438,-2.5217,-2.4953,-2.4633,-2.4225,-2.455,-2.4979,-2.5473,-2.534,-2.5587,-2.6299,-2.5791,-2.5825,-2.6339,-2.6282,-2.6213,-2.615,-2.6111,-2.5874,-2.5484,-2.5391,-2.5331,-2.5303,-2.5369,-2.5459,-2.5558,-2.5621,-2.5672,-2.5703,-2.57,-2.5697,-2.5697,-2.5697,-2.5662,-2.5595,-2.5601,-2.5544,-2.5488,-2.5415,-2.5377,-2.5347,-2.5303,-2.5293,-2.5293,-2.5293,-2.5293,-2.5322,-2.5374,-2.545,-2.5517,-2.5593,-2.5649,-2.5703,-2.5703,-2.5703,-2.5703,-2.5703,-2.5672,-2.566,-2.5693,-2.5703,-2.5703,-2.5703,-2.5703,-2.5703,-2.5703,-2.5703,-2.5703,-2.5703,-2.5703,-2.5703,-2.5703,-2.5613,-2.5529,-2.5503,-2.5403,-2.5245,-2.5001,-2.4873,-2.47,-2.4495,-2.4303,-2.4199,-2.4199,-2.4199,-2.4419,0.0,0.0,0.0,0.0,0.0,0.0,0.0,0.0,-2.4588,-2.4505,-2.4793,-2.4987,-2.4797,-2.4851,-2.5023,-2.531,-2.533,-2.5475,-2.5948,-2.5345,-2.5124,-2.5799,-2.5918,-2.5792,-2.5418,-2.4687,-2.4432,-2.49,-2.4436,-2.4117,-2.4057,-2.4442,-2.4804,-2.5141,-2.5151,-2.5482,-2.6135,-2.5364,-2.5245,-2.5753,-2.538,-2.5308,-2.5502,-2.5498,-2.5493,-2.5478,-2.5415,-2.5387,-2.5338,-2.5398,-2.5465,-2.5521,-2.558,-2.5636,-2.5703,-2.5703,-2.5703,-2.5703,-2.5703,-2.5659,-2.5601,-2.5583,-2.5498,-2.5406,-2.5376,-2.5338,-2.5293,-2.5293,-2.5293,-2.5293,-2.5293,-2.5293,-2.5322,-2.5374,-2.545,-2.5517,-2.5593,-2.5649,-2.5703,-2.5703,-2.5703,-2.5703,-2.5703,-2.5703,-2.5703,-2.5703,-2.5703,-2.5703,-2.5703,-2.5703,-2.5703,-2.5703,-2.5703,-2.5703,-2.5703,-2.5703,-2.5703,-2.5703,-2.5595,-2.5512,-2.5503,-2.535,-2.5164,-2.4971,-2.4828,-2.4639,-2.4436,-2.4275,-2.4199,-2.4199,-2.4199,-2.4199,-2.368,-2.4549,-2.4749,-2.481,-2.5031,-2.5262,0.0,0.0,-2.5339,-2.5212,-2.4628,-2.4021,-2.365,-2.3034,-2.268,-2.2951,-2.3312,-2.3812,-2.4523,-2.4476,-2.42,-2.3721,-2.4011,-2.4247,-2.4192,-2.3413,-2.2919,-2.2911,-2.2912,-2.2761,-2.2386,-2.3032,-2.3558,-2.388,-2.3911,-2.4088,-2.4465,-2.4532,-2.4692,-2.4945,-2.5109,-2.5313,-2.5497,-2.5496,-2.5467,-2.5408,-2.5396,-2.5431,-2.5478,-2.5488,-2.5525,-2.5586,-2.5601,-2.5636,-2.5703,-2.5703,-2.5703,-2.5703,-2.5703,-2.5659,-2.5586,-2.5529,-2.5455,-2.5393,-2.5331,-2.5303,-2.5293,-2.5293,-2.5293,-2.5293,-2.5293,-2.5293,-2.5322,-2.5374,-2.545,-2.5517,-2.5593,-2.5649,-2.5703,-2.5703,-2.5703,-2.5703,-2.5703,-2.5703,-2.5703,-2.5703,-2.5703,-2.5703,-2.5703,-2.5703,-2.5703,-2.5703,-2.5703,-2.5703,-2.5703,-2.5703,-2.5703,-2.5703,-2.5633,-2.5561,-2.5503,-2.5261,-2.5035,-2.4837,-2.4639,-2.4426,-2.4219,-2.4209,-2.4199,-2.4199,-2.4199,-2.4199,-2.291,-2.4018,-2.4538,0.0,-2.5147,-2.5567,-2.5633,-2.5574,-2.5325,-2.4678,-2.4164,-2.36,-2.285,-2.2202,-2.1885,0.0,-2.2683,-2.3269,-2.3849,-2.3513,-2.3291,-2.3556,-2.3109,-2.2877,-2.3156,-2.3344,-2.3431,-2.3426,-2.3258,-2.3131,-2.3097,-2.3571,-2.3895,-2.4045,-2.4227,-2.4405,-2.4552,-2.4708,-2.4844,-2.4982,-2.5243,-2.542,-2.5498,-2.5503,-2.5461,-2.5406,-2.5398,-2.5434,-2.5503,-2.5503,-2.5543,-2.5601,-2.5601,-2.5636,-2.5703,-2.5703,-2.5703,-2.5693,-2.5659,-2.5621,-2.5583,-2.5478,-2.5415,-2.5393,-2.5312,-2.5293,-2.5293,-2.5293,-2.5293,-2.5293,-2.5293,-2.5293,-2.5322,-2.5374,-2.545,-2.5517,-2.5593,-2.5649,-2.5703,-2.5703,-2.5703,-2.5703,-2.5703,-2.5703,-2.5703,-2.5703,-2.5703,-2.5703,-2.5703,-2.5703,-2.5703,-2.5703,-2.5703,-2.5703,-2.5703,-2.5703,-2.5703,-2.5703,-2.5636,-2.5564,-2.5503,-2.5242,-2.5049,-2.492,-2.4636,-2.447,-2.4375,-2.4256,-2.4094,-2.3917,-2.3917,-2.3795,-2.2319,-2.3394,0.0,-2.4033,-2.4616,-2.5158,-2.4964,-2.4802,-2.4362,-2.3166,-2.2544,-2.1959,-2.1116,-2.0436,-2.0311,-2.1144,-2.1837,-2.2562,-2.3381,-2.304,-2.2956,-2.3659,-2.3095,-2.2684,-2.2782,-2.3501,-2.401,-2.4106,-2.3906,-2.3833,-2.3951,-2.4289,-2.4463,-2.4463,-2.4681,-2.4799,-2.4799,-2.493,-2.5035,-2.5128,-2.5354,-2.5478,-2.5499,-2.5454,-2.5431,-2.5398,-2.5417,-2.5471,-2.5525,-2.5551,-2.5583,-2.5633,-2.5633,-2.566,-2.5703,-2.5703,-2.5703,-2.5693,-2.5621,-2.5586,-2.5554,-2.5441,-2.5383,-2.5363,-2.5313,-2.5293,-2.5293,-2.5293,-2.5293,-2.5293,-2.5293,-2.5293,-2.5313,-2.5353,-2.5421,-2.5488,-2.5558,-2.5631,-2.5683,-2.5703,-2.5703,-2.5703,-2.5703,-2.5683,-2.5683,-2.5703,-2.5683,-2.5683,-2.5703,-2.5703,-2.5703,-2.5703,-2.5683,-2.5672,-2.5672,-2.5672,-2.5672,-2.5672,-2.5641,-2.5601,-2.5529,-2.527,-2.5072,-2.4953,-2.4653,-2.4434,-2.4275,-2.4125,-2.3896,-2.3566,-2.3566,-2.3414,-2.2536,0.0,-2.4095,-2.3252,-2.3647,-2.4059,-2.3337,-2.292,-2.2222,-2.0564,-1.9283,-1.835,-1.7922,-1.7022,-1.7103,-1.9323,-2.0288,-2.134,-2.2984,-2.3359,-2.3501,-2.3592,-2.4158,-2.4187,0.0,-2.3656,-2.4046,-2.4356,-2.4439,-2.4445,-2.4384,-2.4702,-2.488,-2.488,-2.483,-2.4796,-2.4796,-2.4922,-2.507,-2.5202,-2.5344,-2.5439,-2.5503,-2.5371,-2.5339,-2.5406,-2.5467,-2.5539,-2.5603,-2.5672,-2.5703,-2.5703,-2.5703,-2.5703,-2.5703,-2.5703,-2.5703,-2.5693,-2.5621,-2.5558,-2.5493,-2.5424,-2.5356,-2.5303,-2.5293,-2.5293,-2.5293,-2.5293,-2.5293,-2.5293,-2.5293,-2.5293,-2.5293,-2.5303,-2.5346,-2.5424,-2.5488,-2.5558,-2.5621,-2.5693,-2.5703,-2.5703,-2.5703,-2.5647,-2.5631,-2.5693,-2.5637,-2.5633,-2.5693,-2.5703,-2.5703,-2.5703,-2.5637,-2.5603,-2.5603,-2.5603,-2.5603,-2.5603,-2.5661,-2.5671,-2.5601,-2.5341,-2.5069,-2.4808,-2.4606,-2.4247,-2.3714,-2.3714,-2.3535,-2.3221,-2.3221,-2.3221,-2.1688,0.0,-2.2481,-2.2898,-2.3101,-2.3164,-2.2998,-2.278,-2.1429,-1.7297,-1.6761,-1.6103,-1.3076,-1.3408,-1.4874,-1.7167,-1.9121,-2.095,-2.257,-2.282,-2.3221,-2.4271,-2.3887,0.0,0.0,0.0,0.0,-2.4662,-2.4689,-2.4725,-2.4791,-2.5035,-2.5171,-2.5171,-2.5187,-2.5199,-2.5199,-2.5238,-2.5313,-2.5398,-2.5255,-2.5211,-2.5226,-2.5138,-2.5102,-2.5147,-2.5352,-2.5472,-2.5543,-2.5615,-2.566,-2.5703,-2.5703,-2.5703,-2.5693,-2.5648,-2.5634,-2.5629,-2.5606,-2.5607,-2.5615,-2.5444,-2.5437,-2.5472,-2.5348,-2.533,-2.5363,-2.5313,-2.5293,-2.5293,-2.5293,-2.5293,-2.5293,-2.5293,-2.5347,-2.5417,-2.5483,-2.5554,-2.5619,-2.5693,-2.5703,-2.5693,-2.5636,-2.5607,-2.5615,-2.5633,-2.5649,-2.5672,-2.5703,-2.5703,-2.5703,-2.5703,-2.5636,-2.5601,-2.5601,-2.5558,-2.5554,-2.5601,-2.5619,-2.5624,-2.5603,-2.5346,-2.5141,-2.5003,-2.4666,-2.431,-2.3908,-2.378,-2.3414,-2.2864,-2.2864,-2.26,-2.0466,-2.0791,-2.0867,-2.0921,-2.1148,-2.1222,-2.0613,-1.9476,-1.7175,-1.2313,-1.2081,-1.1713,-0.8291,-1.029,-1.3218,-1.5581,-1.7999,-2.022,-2.2026,-2.2696,-2.351,-2.489,-2.4343,-2.419,0.0,0.0,0.0,-2.4803,-2.4822,-2.4818,-2.4793,-2.5023,-2.5155,-2.5155,-2.5247,-2.5293,-2.5293,-2.5273,-2.5252,-2.5252,-2.5083,-2.499,-2.4992,-2.4994,-2.5001,-2.5003,-2.528,-2.5441,-2.5508,-2.5567,-2.5636,-2.5703,-2.5703,-2.5703,-2.5693,-2.5648,-2.5644,-2.5627,-2.5547,-2.5566,-2.5603,-2.5416,-2.5445,-2.5529,-2.5346,-2.5347,-2.5383,-2.5322,-2.5293,-2.5293,-2.5293,-2.5293,-2.5293,-2.5293,-2.533,-2.5393,-2.5478,-2.5529,-2.5588,-2.5683,-2.5703,-2.5683,-2.5607,-2.558,-2.5558,-2.5529,-2.5615,-2.5672,-2.5703,-2.5703,-2.5703,-2.5703,-2.5619,-2.5561,-2.5561,-2.5503,-2.5493,-2.5558,-2.5595,-2.5609,-2.5626,-2.5447,-2.5282,-2.5145,-2.4797,-2.4405,-2.4007,-2.3681,-2.3156,-2.2486,-2.2361,-2.1989,-1.9027,-1.9254,-1.9307,-1.7567,-1.798,-1.8328,-1.6501,-1.3724,-1.0411,-0.6416,-0.6048,-0.5861,-0.3988,0.0,-1.1957,-1.4411,-1.6859,-1.9188,-2.1348,-2.2946,-2.4291,0.0,0.0,0.0,0.0,0.0,0.0,-2.4768,0.0,-2.4716,-2.437,-2.4677,-2.487,-2.487,-2.501,-2.5084,-2.5084,-2.5021,-2.4933,-2.4793,-2.4788,-2.4793,-2.4795,-2.492,-2.4977,-2.5013,-2.5272,-2.5431,-2.5513,-2.5564,-2.5636,-2.5703,-2.5703,-2.5703,-2.5703,-2.5693,-2.5693,-2.5673,-2.5471,-2.545,-2.5487,-2.5356,-2.5396,-2.5478,-2.5338,-2.5357,-2.5385,-2.5322,-2.5293,-2.5293,-2.5293,-2.5293,-2.5293,-2.5293,-2.5293,-2.5339,-2.5472,-2.5503,-2.5543,-2.5672,-2.5693,-2.5672,-2.5613,-2.5543,-2.5467,-2.5417,-2.5512,-2.5619,-2.5693,-2.5703,-2.5703,-2.5703,-2.5583,-2.5503,-2.5503,-2.5434,-2.5431,-2.5498,-2.5558,-2.5633,-2.5703,-2.5644,-2.5475,-2.5233,-2.4946,-2.4554,-2.4026,-2.3485,-2.2829,-2.2088,-2.1774,-2.1368,-1.8519,-1.8061,-1.7258,-1.65,-1.6238,-1.613,-1.5974,-1.5355,-1.354,-0.9137,-0.9057,-0.8615,-0.4828,0.0,0.0,-1.2156,-1.5448,0.0,-2.0586,-2.2536,0.0,-2.522,0.0,-2.5517,-2.5644,-2.5176,0.0,0.0,-2.4359,-2.4236,-2.3768,-2.4194,-2.4448,-2.4448,-2.4724,-2.4878,-2.4878,-2.486,-2.4826,-2.4796,-2.4651,-2.4653,-2.4804,-2.4682,-2.4762,-2.501,-2.5132,-2.5293,-2.5508,-2.5572,-2.5641,-2.5703,-2.5703,-2.5703,-2.5693,-2.5586,-2.5583,-2.5595,-2.5454,-2.5509,-2.5624,-2.5427,-2.547,-2.5543,-2.5364,-2.5347,-2.5383,-2.5322,-2.5293,-2.5293,-2.5293,-2.5293,-2.5293,-2.5293,-2.5293,-2.5339,-2.5472,-2.5503,-2.5543,-2.5672,-2.5619,-2.5551,-2.5525,-2.5428,-2.5353,-2.5406,-2.5472,-2.5551,-2.5619,-2.5672,-2.5703,-2.5703,-2.5621,-2.5544,-2.5493,-2.5441,-2.5428,-2.5498,-2.5517,-2.558,-2.5703,-2.5644,-2.5573,-2.5502,-2.5186,-2.477,-2.4292,-2.3706,-2.297,-2.2088,-2.1774,-2.1015,-1.6577,-1.5728,-1.4822,-1.4161,-1.3728,-1.335,-1.2846,-1.2885,-1.1826,-0.7607,-0.84,0.0,-0.492,-0.6646,0.0,0.0,0.0,0.0,-1.9197,-2.1302,-2.3015,0.0,-2.4484,0.0,-2.4638,-2.4311,-2.3951,0.0,-2.3858,-2.3775,-2.3176,-2.3575,-2.3884,-2.4035,-2.4302,-2.4529,-2.4667,-2.4681,-2.4618,-2.4545,-2.4418,-2.4436,-2.4545,-2.453,-2.4651,-2.4841,0.0,-2.5319,-2.5538,-2.5554,-2.5609,-2.5703,-2.5703,-2.5703,-2.5693,-2.5617,-2.5607,-2.5633,-2.5521,-2.5562,-2.5629,-2.5461,-2.5493,-2.5561,-2.5363,-2.5347,-2.5374,-2.5216,-2.5234,-2.5283,-2.5194,-2.5224,-2.5293,-2.5293,-2.5293,-2.5339,-2.5472,-2.5503,-2.5543,-2.5672,-2.5588,-2.5503,-2.5503,-2.5391,-2.5313,-2.5346,-2.5441,-2.5512,-2.5554,-2.5636,-2.5703,-2.5703,-2.5636,-2.5583,-2.5551,-2.5459,-2.5428,-2.5498,-2.5503,-2.5551,-2.5649,-2.5653,-2.5633,-2.5601,-2.5299,-2.5005,-2.4707,-2.4041,-2.3271,-2.2427,-2.1836,-2.0839,-1.4009,-1.2906,-1.2123,-1.124,-1.0958,-1.0541,-0.9135,-0.927,-0.8782,-0.5571,0.0,-0.8335,-0.557,-0.7375,-0.9485,-1.0059,0.0,-1.4522,-1.6958,-1.8921,-2.0539,-2.1723,-2.2134,-2.2328,-2.234,-2.265,-2.2785,-2.2631,-2.3099,-2.3171,-2.2574,-2.288,-2.3236,-2.3619,-2.3799,-2.4053,-2.4391,-2.4346,-2.4275,-2.4199,-2.4142,-2.4161,-2.4247,-2.4439,-2.4591,-2.4677,-2.5071,0.0,-2.5576,-2.5539,-2.5603,-2.5703,-2.5703,-2.5703,-2.5703,-2.5693,-2.5693,-2.5693,-2.5621,-2.5595,-2.5581,-2.5435,-2.5478,-2.5543,-2.5364,-2.5338,-2.5332,-2.5072,-2.5131,-2.5223,-2.502,-2.5098,-2.5223,-2.5223,-2.5253,-2.5293,-2.5426,-2.5498,-2.5561,-2.5683,-2.5588,-2.5503,-2.5503,-2.5391,-2.5293,-2.5293,-2.5408,-2.5503,-2.5503,-2.5619,-2.5703,-2.5703,-2.5648,-2.5605,-2.5601,-2.5493,-2.5434,-2.5498,-2.5493,-2.5521,-2.5601,-2.5659,-2.5663,-2.5607,-2.5381,-2.5207,-2.511,-2.4401,-2.3655,-2.2891,-2.198,-2.0863,-1.213,-1.0817,-0.937,-0.9062,-0.895,-0.9003,-0.944,-1.0949,0.0,0.0,-1.2502,-1.2572,-1.0562,-0.9711,-0.9358,-0.955,0.0,0.0,0.0,0.0,-1.4713,0.0,0.0,0.0,0.0,0.0,0.0,0.0,0.0,-2.1864,-2.1803,-2.2105,-2.26,-2.3268,-2.3319,-2.3508,-2.384,-2.3552,-2.3696,-2.4199,-2.3917,-2.401,-2.4444,-2.4321,-2.4512,-2.4932,-2.496,0.0,-2.5454,-2.56,-2.5683,-2.5703,-2.5703,-2.5703,-2.5693,-2.5636,-2.5649,-2.5693,-2.5621,-2.5595,-2.5581,-2.5435,-2.5414,-2.5415,-2.5331,-2.5313,-2.5274,-2.5057,-2.5022,-2.502,-2.4873,-2.4865,-2.4888,-2.4888,-2.4968,-2.5086,-2.5217,-2.5473,-2.5672,-2.5703,-2.5588,-2.5503,-2.5503,-2.5391,-2.5293,-2.5293,-2.5408,-2.5503,-2.5503,-2.5619,-2.5703,-2.5703,-2.5693,-2.566,-2.5603,-2.5535,-2.5488,-2.5498,-2.5444,-2.5472,-2.5588,-2.5607,-2.5638,-2.5683,-2.5583,-2.5415,-2.518,-2.4601,-2.3832,-2.2891,-2.2295,-2.1137,-1.0556,-0.864,-0.699,-0.7812,-0.7784,-0.8013,-0.9901,0.0,0.0,0.0,-1.5352,-1.5425,-1.3601,-1.0924,0.0,0.0,0.0,0.0,0.0,0.0,0.0,0.0,0.0,0.0,0.0,0.0,0.0,0.0,0.0,-2.019,-2.1236,-2.1791,-2.2254,-2.2626,-2.2996,-2.3289,-2.344,-2.3286,-2.3455,-2.393,-2.3599,-2.3754,-2.4358,-2.4394,-2.4548,-2.4803,-2.5029,0.0,-2.5457,-2.5561,-2.5636,-2.5703,-2.5703,-2.5703,-2.5703,-2.5661,-2.5672,-2.5703,-2.5661,-2.5611,-2.5541,-2.5473,-2.5429,-2.5383,-2.5312,-2.5293,-2.5234,-2.4968,-2.4946,-2.4949,-2.4721,-2.4716,-2.4823,-2.49,-2.5087,-2.5281,-2.5344,-2.5544,-2.5703,-2.5703,-2.5619,-2.5537,-2.5508,-2.5453,-2.5391,-2.5363,-2.5471,-2.5554,-2.5554,-2.5636,-2.5703,-2.5703,-2.5703,-2.5693,-2.5649,-2.5586,-2.5543,-2.5503,-2.5472,-2.5467,-2.5489,-2.5561,-2.5617,-2.5648,-2.562,-2.5525,-2.5362,-2.4966,-2.4359,-2.3611,-2.2855,-2.1773,-0.7929,-0.562,-0.4074,-0.5668,-0.5937,-0.6614,-0.9476,-1.2327,0.0,0.0,-1.6753,-1.6856,-1.5094,0.0,-0.8697,0.0,-0.8332,0.0,0.0,0.0,0.0,0.0,0.0,0.0,0.0,0.0,0.0,0.0,0.0,0.0,-2.0608,-2.1348,-2.1795,-2.1992,-2.2565,-2.2929,-2.3101,-2.3038,-2.3204,-2.3593,-2.3255,-2.3442,-2.4103,-2.4398,-2.457,-2.467,-2.5047,0.0,0.0,-2.5495,-2.5564,-2.5664,-2.5693,-2.5703,-2.5703,-2.5703,-2.5703,-2.5703,-2.5703,-2.5607,-2.5489,-2.5444,-2.5409,-2.5353,-2.5255,-2.5234,-2.5171,-2.4837,-2.4809,-2.4818,-2.4519,-2.4552,-2.4721,-2.492,-2.5167,-2.5399,-2.5474,-2.5613,-2.5703,-2.5703,-2.5647,-2.5583,-2.5529,-2.5508,-2.5483,-2.5434,-2.5521,-2.5601,-2.5601,-2.566,-2.5703,-2.5703,-2.5703,-2.5703,-2.5703,-2.5636,-2.558,-2.5521,-2.5484,-2.5461,-2.5421,-2.5521,-2.5593,-2.5601,-2.5615,-2.5583,-2.5498,-2.525,-2.4843,-2.4281,-2.3499,-2.2535,-0.2658,-0.0725,0.0275,-0.0794,-0.2064,-0.3869,-0.7021,0.0,0.0,-1.6278,-1.6739,-1.6218,-1.4619,-1.1261,-0.8697,0.0,0.0,-0.585,0.0,0.0,0.0,0.0,0.0,0.0,0.0,0.0,0.0,0.0,0.0,0.0,-1.9685,-2.0215,-2.0822,-2.1634,-2.1706,-2.2071,-2.2733,-2.2495,-2.2659,-2.3228,-2.2912,-2.3097,-2.3753,-2.4085,-2.4441,-2.4784,-2.4883,0.0,0.0,-2.5447,-2.5515,-2.5527,-2.5654,-2.5703,-2.5703,-2.5703,-2.5703,-2.5703,-2.5703,-2.5607,-2.5474,-2.5292,-2.5265,-2.5274,-2.5078,-2.5022,-2.4962,-2.462,-2.4536,-2.4502,-2.4284,-2.4238,-2.4339,-2.4721,-2.4881,-2.5056,-2.5414,-2.5613,-2.5703,-2.5703,-2.5647,-2.5601,-2.5588,-2.5537,-2.5498,-2.5493,-2.5554,-2.5601,-2.5601,-2.566,-2.5703,-2.5703,-2.5703,-2.5703,-2.5703,-2.5636,-2.5601,-2.5588,-2.5478,-2.5425,-2.5488,-2.5503,-2.5543,-2.5601,-2.5662,-2.5633,-2.5503,-2.5292,-2.4886,-2.4297,-2.4017,-2.3222,-0.0,0.2923,0.469,0.4567,0.2716,-0.0824,-0.7418,0.0,-1.3836,-1.8173,-1.788,-1.6253,-1.4352,-1.073,-0.792,-0.7551,-0.6745,-0.6294,-0.6683,0.0,0.0,0.0,0.0,0.0,0.0,0.0,0.0,0.0,0.0,0.0,-1.8175,-1.9273,-2.0181,-2.0805,-2.1236,-2.1532,-2.1689,-2.172,-2.2023,-2.2517,-2.2189,-2.2623,-2.3709,-2.3746,-2.4146,-2.4813,-2.4905,0.0,0.0,-2.5437,-2.5497,-2.5514,-2.5653,-2.5703,-2.5703,-2.5703,-2.5703,-2.5693,-2.5649,-2.558,-2.5464,-2.5213,-2.513,-2.5098,-2.493,-2.4887,-2.4832,-2.4575,-2.4495,-2.4444,-2.4256,-2.4284,-2.4444,-2.4731,-2.4915,-2.5117,-2.5434,-2.5567,-2.5649,-2.5693,-2.5647,-2.5601,-2.5601,-2.558,-2.5558,-2.5558,-2.5619,-2.566,-2.566,-2.5683,-2.5703,-2.5703,-2.5703,-2.5703,-2.5703,-2.5636,-2.5583,-2.5537,-2.5444,-2.5391,-2.5385,-2.5465,-2.5512,-2.5543,-2.5647,-2.5634,-2.5503,-2.5424,-2.5109,-2.4591,-2.431,-2.3669,0.223,0.5756,0.7726,0.8026,0.5337,0.0618,0.0,-1.0834,-1.4469,-1.9315,-1.8383,-1.6134,-1.4293,-1.0466,-0.7511,-0.7283,-0.7063,-0.7225,-0.8227,-0.9411,0.0,0.0,0.0,0.0,0.0,0.0,0.0,0.0,0.0,0.0,0.0,-1.8646,-1.9585,-2.0035,-2.0764,-2.1082,-2.088,-2.1072,-2.142,-2.194,-2.1722,-2.2288,-2.3547,-2.3443,-2.3925,-2.481,-2.4898,0.0,0.0,-2.5434,-2.5496,-2.5509,-2.5651,-2.5703,-2.5703,-2.5683,-2.5683,-2.5693,-2.5623,-2.5556,-2.5449,-2.5135,-2.5007,-2.4907,-2.4691,-2.467,-2.467,-2.447,-2.4347,-2.422,-2.4095,-2.4154,-2.4355,-2.4712,-2.4907,-2.5101,-2.5428,-2.5554,-2.5607,-2.566,-2.5634,-2.5601,-2.5601,-2.5601,-2.5615,-2.5633,-2.5672,-2.5703,-2.5703,-2.5703,-2.5703,-2.5703,-2.5703,-2.5703,-2.5703,-2.5636,-2.558,-2.5529,-2.5471,-2.5413,-2.5363,-2.5467,-2.5525,-2.5525,-2.5637,-2.5637,-2.5525,-2.5508,-2.5261,-2.4789,-2.4563,-2.3998,0.4319,0.769,0.888,0.8901,0.4822,-0.0203,-0.4142,-1.005,-1.5671,-1.9179,-1.7779,-1.5565,-1.4504,-1.0627,-0.7832,-0.8639,-0.8115,-0.8296,-1.0357,-1.1336,0.0,0.0,0.0,0.0,0.0,0.0,0.0,0.0,0.0,0.0,0.0,-1.8334,-1.9074,-1.9489,-2.022,-2.0616,-2.0581,-2.0598,-2.0951,-2.1625,-2.159,-2.2153,-2.3219,-2.3202,-2.3784,0.0,0.0,0.0,0.0,-2.5437,-2.5506,-2.5509,-2.5651,-2.5703,-2.5693,-2.5631,-2.5637,-2.5693,-2.5621,-2.5564,-2.5429,-2.5029,-2.486,-2.4731,-2.433,-2.4348,-2.4461,-2.4256,-2.3967,-2.3714,-2.3723,-2.3714,-2.3894,-2.4626,-2.4809,-2.4923,-2.5397,-2.5554,-2.5601,-2.5601,-2.5601,-2.5601,-2.5601,-2.5601,-2.5621,-2.5693,-2.5703,-2.5703,-2.5703,-2.5703,-2.5703,-2.5703,-2.5703,-2.5703,-2.5703,-2.5636,-2.5601,-2.5601,-2.5543,-2.5498,-2.5498,-2.5561,-2.5601,-2.5601,-2.5671,-2.5671,-2.5601,-2.5529,-2.526,-2.4796,-2.4803,-2.4227,0.8832,1.2378,1.3007,1.2998,1.0398,0.5927,-0.141,-0.875,-1.4867,-1.785,-1.7638,-1.615,-1.3531,-1.0846,-0.9075,-0.9129,-0.9371,0.0,0.0,0.0,0.0,0.0,0.0,0.0,0.0,0.0,0.0,0.0,0.0,0.0,0.0,-1.8387,-1.8763,-1.8891,-1.9586,-1.9983,-1.9987,-1.9989,-2.0395,-2.1187,-2.1193,-2.1891,-2.3194,-2.3342,-2.3928,0.0,0.0,0.0,0.0,-2.5401,-2.5461,-2.55,-2.5552,-2.5593,-2.5621,-2.5558,-2.5547,-2.5554,-2.5491,-2.5476,-2.5439,-2.5082,-2.4888,-2.4754,-2.4491,-2.4339,-2.4238,-2.3937,-2.3619,-2.3414,-2.364,-2.3692,-2.3851,-2.4441,-2.4698,-2.4879,-2.5157,-2.5347,-2.5478,-2.5521,-2.5484,-2.5478,-2.5521,-2.5529,-2.5544,-2.5621,-2.5672,-2.5703,-2.5703,-2.5703,-2.5703,-2.5703,-2.5703,-2.5703,-2.5703,-2.5601,-2.5529,-2.5529,-2.5431,-2.5376,-2.5431,-2.5503,-2.5529,-2.5529,-2.5601,-2.5579,-2.5456,-2.5436,-2.5211,-2.478,-2.4054,-2.3529,0.72,1.1414,1.2483,1.1283,0.9791,0.6269,-0.2644,-0.9996,-1.5691,-1.8467,-1.8145,-1.6889,-1.5299,-1.2918,-1.1235,-1.1153,-1.1762,0.0,0.0,0.0,0.0,0.0,0.0,0.0,0.0,0.0,0.0,0.0,0.0,0.0,0.0,-1.8471,-1.8695,-1.8614,-1.931,-1.9682,-1.9682,-1.9682,-2.0158,-2.099,-2.0907,-2.1614,-2.3093,-2.3483,-2.4083,0.0,0.0,0.0,0.0,-2.5405,-2.5457,-2.5497,-2.5526,-2.5558,-2.5583,-2.5409,-2.5369,-2.5374,-2.5308,-2.5307,-2.5318,-2.5144,-2.4916,-2.4661,-2.44,-2.4164,-2.3926,-2.3437,-2.3165,-2.3093,-2.3414,-2.3513,-2.3687,-2.4346,-2.4601,-2.4733,-2.4937,-2.5082,-2.5202,-2.533,-2.5321,-2.5316,-2.544,-2.5483,-2.5521,-2.5586,-2.566,-2.5703,-2.5703,-2.5703,-2.5703,-2.5703,-2.5703,-2.5693,-2.5661,-2.5561,-2.5503,-2.5503,-2.5398,-2.5364,-2.5398,-2.5461,-2.5503,-2.5503,-2.5537,-2.5528,-2.5483,-2.5373,-2.5143,-2.479,-2.3784,-2.3261,0.0,0.5467,0.7847,0.4945,0.3951,0.1519,-0.7018,-1.3293,0.0,-2.0498,-1.9182,-1.7909,-1.9005,-1.6459,-1.4275,-1.4554,0.0,0.0,0.0,0.0,0.0,0.0,0.0,0.0,0.0,0.0,0.0,0.0,0.0,0.0,0.0,-1.8672,-1.8871,-1.8695,-1.9325,-1.9682,-1.9682,-1.9682,-2.0126,-2.096,-2.0711,-2.1421,-2.2949,-2.36,-2.4256,0.0,0.0,0.0,0.0,-2.5447,-2.5485,-2.5496,-2.5555,-2.5588,-2.5551,-2.5215,-2.5127,-2.5182,-2.5101,-2.5079,-2.5094,-2.5164,-2.4929,-2.4549,-2.4117,-2.3848,-2.3522,-2.2864,-2.2695,-2.2772,-2.3117,-2.3221,-2.3441,-2.4284,-2.4495,-2.4544,-2.4746,-2.4793,-2.486,-2.5042,-2.5081,-2.5149,-2.5347,-2.544,-2.5521,-2.5583,-2.5649,-2.5703,-2.5703,-2.5703,-2.5703,-2.5703,-2.5703,-2.5672,-2.5607,-2.5537,-2.5498,-2.5493,-2.5428,-2.5398,-2.5403,-2.5461,-2.5493,-2.5493,-2.5493,-2.5516,-2.5591,-2.5315,-2.5062,-2.4776,-2.3914,-2.3387,-0.7389,0.0,0.1914,0.0586,-0.1734,-0.4903,0.0,-1.6297,-2.1217,-2.0295,-2.0205,-2.026,-2.0169,-1.8788,-1.8091,-1.9447,0.0,0.0,0.0,0.0,0.0,0.0,0.0,0.0,0.0,0.0,0.0,0.0,0.0,0.0,0.0,-1.9216,-1.9483,-1.9454,-1.9626,-1.9682,-1.9682,-1.9682,-2.0031,-2.0694,-2.0632,-2.1498,-2.3144,-2.3655,-2.4244,0.0,0.0,0.0,-2.5313,-2.5395,-2.5414,-2.543,-2.5436,-2.5455,-2.5409,-2.5129,-2.5023,-2.5024,-2.4917,-2.4865,-2.4879,-2.4948,-2.4942,-2.4803,-2.4254,-2.3722,-2.3221,-2.2822,-2.2695,-2.2772,-2.3117,-2.3392,-2.3714,-2.4153,-2.4393,-2.451,-2.4551,-2.4694,-2.4808,-2.4858,-2.4945,-2.504,-2.5094,-2.5323,-2.5508,-2.5521,-2.5621,-2.5703,-2.5703,-2.5703,-2.5703,-2.5703,-2.5703,-2.5693,-2.5683,-2.5574,-2.5478,-2.5428,-2.5363,-2.5347,-2.5396,-2.5417,-2.5424,-2.5424,-2.5424,-2.5429,-2.5444,-2.5229,-2.501,-2.4781,-2.3907,-2.3387,-1.3512,-0.9553,-0.5725,-0.6782,-1.0183,-1.3594,-1.4856,-1.8608,-2.1742,-2.1348,0.0,-2.1905,-2.238,-2.1786,0.0,0.0,0.0,0.0,0.0,0.0,0.0,0.0,0.0,0.0,0.0,0.0,0.0,0.0,0.0,0.0,0.0,-1.8328,-1.8323,-1.8491,-1.881,-1.9182,-1.9682,-1.9697,-2.0,-2.0591,-2.0323,-2.1097,-2.2827,-2.4015,-2.4728,0.0,0.0,0.0,-2.5313,-2.5409,-2.5433,-2.5402,-2.5434,-2.543,-2.5374,-2.5094,-2.4962,-2.4904,-2.4823,-2.4854,-2.4937,-2.4934,-2.4986,-2.4941,-2.4379,-2.3895,-2.3485,-2.3052,-2.2914,-2.3021,-2.3346,-2.3566,-2.3786,-2.4122,-2.4284,-2.4357,-2.4357,-2.4453,-2.4552,-2.4639,-2.4717,-2.4818,-2.4974,-2.5194,-2.5383,-2.5489,-2.5607,-2.5703,-2.5703,-2.5703,-2.5693,-2.566,-2.5649,-2.5641,-2.5605,-2.5505,-2.5406,-2.5314,-2.5226,-2.5154,-2.5126,-2.5126,-2.5147,-2.5216,-2.5377,-2.5425,-2.5396,-2.5318,-2.5118,-2.4777,-2.4154,-2.3697,-1.8142,-1.6153,-1.4173,-1.5128,-1.864,-2.1621,-2.0691,0.0,0.0,0.0,0.0,0.0,-2.4818,-2.4711,0.0,0.0,0.0,0.0,0.0,0.0,0.0,0.0,0.0,0.0,0.0,0.0,0.0,0.0,0.0,0.0,0.0,-1.7002,-1.6657,-1.7071,-1.7748,-1.8556,-1.9506,-1.9623,-2.0032,-2.0663,-2.0224,-2.0939,-2.2663,-2.4405,-2.523,-2.5304,0.0,0.0,-2.5313,-2.5444,-2.5453,-2.539,-2.547,-2.5444,-2.5352,-2.5093,-2.4917,-2.479,-2.4731,-2.4847,-2.5003,-2.498,-2.502,-2.4997,-2.4524,-2.4261,-2.4007,-2.3499,-2.3323,-2.3346,-2.3619,-2.3744,-2.3846,-2.4122,-2.4199,-2.4199,-2.4199,-2.4199,-2.4256,-2.4461,-2.4495,-2.4614,-2.4946,-2.5101,-2.5262,-2.5469,-2.5613,-2.5693,-2.5703,-2.5693,-2.5661,-2.5615,-2.5588,-2.5568,-2.5517,-2.5419,-2.5278,-2.5095,-2.5,-2.4879,-2.4723,-2.4752,-2.4841,-2.4998,-2.5328,-2.5467,-2.5417,-2.5466,-2.5258,-2.4803,-2.4456,-2.4054,-2.0197,-2.1407,-2.2137,-2.1648,-2.2291,-2.3206,-2.3874,-2.3875,0.0,0.0,0.0,0.0,0.0,-2.6061,0.0,0.0,0.0,0.0,0.0,0.0,0.0,0.0,0.0,0.0,0.0,0.0,0.0,0.0,0.0,0.0,0.0,-1.6665,-1.6534,-1.6909,-1.7747,-1.8318,-1.8601,-1.9318,-2.0125,-2.0939,-2.137,-2.2395,-2.3934,-2.4458,-2.4926,-2.5287,0.0,-2.5142,-2.5313,-2.544,-2.5434,-2.5332,-2.545,-2.5421,-2.5293,-2.5078,-2.4917,-2.4746,-2.4401,-2.4425,-2.4625,-2.4784,-2.4904,-2.498,-2.4777,-2.4694,-2.4595,-2.4173,-2.3846,-2.3649,-2.3692,-2.3917,-2.4151,-2.4199,-2.4199,-2.4199,-2.4199,-2.4199,-2.4256,-2.4461,-2.4495,-2.4614,-2.494,-2.5059,-2.5199,-2.5464,-2.5574,-2.5644,-2.5693,-2.5648,-2.5607,-2.5603,-2.5551,-2.5527,-2.5576,-2.5317,-2.4988,-2.4633,-2.4642,-2.4576,-2.4391,-2.4531,-2.4755,-2.4998,-2.5328,-2.5488,-2.5478,-2.5494,-2.5292,-2.4879,-2.4478,-2.3924,-2.1317,-2.3027,-2.4377,-2.4666,-2.4773,-2.4834,-2.4889,-2.4822,0.0,0.0,0.0,0.0,0.0,0.0,0.0,0.0,0.0,0.0,0.0,0.0,0.0,0.0,0.0,0.0,0.0,0.0,0.0,0.0,0.0,0.0,0.0,0.0,-1.5501,-1.5588,-1.6718,-1.7583,-1.8114,-1.9651,-2.0598,-2.1013,-2.2452,-2.3512,-2.4222,-2.4478,-2.472,-2.4927,0.0,-2.5046,-2.5164,-2.5399,-2.5441,-2.5358,-2.5457,-2.5441,-2.5329,-2.5091,-2.4917,-2.476,-2.4461,-2.4418,-2.4533,-2.4729,-2.4892,-2.4973,-2.4835,-2.4803,-2.4716,-2.4312,-2.4094,-2.3967,-2.3967,-2.4094,-2.4199,-2.4199,-2.4199,-2.4228,-2.433,-2.4357,-2.4418,-2.4623,-2.4654,-2.4732,-2.4952,-2.5068,-2.5185,-2.5409,-2.5529,-2.5607,-2.5637,-2.5648,-2.5633,-2.5554,-2.5554,-2.5554,-2.5551,-2.5273,-2.4857,-2.4276,-2.3989,-2.3798,-2.3706,-2.4177,-2.4507,-2.4615,-2.5197,-2.5503,-2.5503,-2.5545,-2.5376,-2.5047,-2.4714,-2.4328,-2.185,-2.361,-2.5087,-2.578,-2.5908,-2.5826,-2.5668,-2.5547,-2.5548,0.0,0.0,0.0,0.0,0.0,0.0,0.0,0.0,0.0,0.0,0.0,0.0,0.0,0.0,0.0,0.0,0.0,0.0,0.0,0.0,0.0,0.0,0.0,-1.4742,-1.493,-1.5991,-1.6909,-1.7636,-1.9378,-2.0679,-2.1526,-2.3189,-2.4046,-2.4207,-2.4403,-2.4535,-2.4584,-2.4846,-2.4974,-2.5027,-2.5338,-2.5434,-2.5383,-2.5473,-2.5459,-2.5372,-2.5118,-2.4952,-2.4814,-2.4575,-2.4495,-2.4536,-2.4721,-2.4869,-2.4934,-2.483,-2.4802,-2.4716,-2.4312,-2.4219,-2.4275,-2.4275,-2.4275,-2.4275,-2.4275,-2.4219,-2.4266,-2.447,-2.4495,-2.4568,-2.4799,-2.4823,-2.4865,-2.5032,-2.5067,-2.5149,-2.5374,-2.5498,-2.5583,-2.5601,-2.5637,-2.5633,-2.5512,-2.5551,-2.5491,-2.5263,-2.4899,-2.436,-2.3601,-2.3252,-2.3085,-2.3067,-2.3771,-2.4255,-2.4416,-2.5109,-2.5473,-2.5503,-2.5546,-2.5447,-2.5221,-2.4975,-2.472,-2.1816,-2.4149,-2.5965,-2.5118,-2.504,-2.558,-2.7148,-2.7028,0.0,-2.7712,0.0,0.0,0.0,0.0,0.0,0.0,0.0,0.0,0.0,0.0,0.0,0.0,0.0,0.0,0.0,0.0,0.0,0.0,0.0,0.0,0.0,-1.4782,-1.5012,-1.6156,-1.6327,-1.6574,-1.6887,-1.7646,-1.9717,-2.3049,-2.3195,-2.3599,-2.4199,-2.4222,-2.4339,-2.4512,-2.4721,-2.4887,-2.5025,-2.5298,-2.5369,-2.5322,-2.5445,-2.5457,-2.5379,-2.5168,-2.5057,-2.4949,-2.4604,-2.4495,-2.4536,-2.4721,-2.4812,-2.4813,-2.48,-2.4802,-2.4716,-2.4312,-2.433,-2.4478,-2.4478,-2.4478,-2.4478,-2.4478,-2.433,-2.4266,-2.447,-2.4495,-2.4598,-2.4914,-2.4887,-2.4906,-2.5223,-2.5131,-2.5105,-2.5358,-2.5455,-2.5525,-2.5588,-2.5603,-2.558,-2.5508,-2.5493,-2.5229,-2.4536,-2.3823,-2.3089,-2.2302,-2.2565,-2.2712,-2.2642,-2.3413,-2.4124,-2.4756,-2.5197,-2.5441,-2.5503,-2.5499,-2.5426,-2.5294,-2.5142,-2.4847,-2.2041,-2.4344,-2.605,-2.5506,-2.5416,0.0,0.0,-2.6381,-2.6208,-2.7108,-2.6632,0.0,0.0,0.0,0.0,0.0,0.0,0.0,0.0,0.0,0.0,0.0,0.0,0.0,0.0,0.0,0.0,0.0,0.0,0.0,0.0,-1.446,-1.4911,-1.5829,-1.6212,-1.6521,-1.6786,-1.7458,-1.9324,-2.2345,-2.2932,-2.3433,-2.3867,-2.3664,-2.384,-2.4312,-2.4317,-2.4514,-2.4881,-2.4985,-2.5165,-2.5368,-2.5457,-2.5457,-2.54,-2.5356,-2.5237,-2.5038,-2.4915,-2.4793,-2.4706,-2.4877,-2.4946,-2.4978,-2.4939,-2.4875,-2.4773,-2.4626,-2.4632,-2.4654,-2.4536,-2.4591,-2.4664,-2.4519,-2.4545,-2.4591,-2.467,-2.4752,-2.4894,-2.5141,-2.5149,-2.5149,-2.5283,-2.5234,-2.5225,-2.5321,-2.5428,-2.5508,-2.5529,-2.5605,-2.5645,-2.5564,-2.5523,-2.5287,-2.4753,-2.4077,-2.3318,-2.2462,-2.2144,-2.2,-2.1975,-2.3032,-2.3783,-2.4177,-2.4853,-2.5282,-2.5434,-2.5477,-2.5455,-2.5361,-2.5219,-2.5043,-2.2373,-2.4223,-2.5529,-2.5596,0.0,0.0,-2.6422,-2.6171,-2.606,-2.7008,-2.6538,0.0,0.0,0.0,0.0,0.0,0.0,0.0,0.0,0.0,0.0,0.0,0.0,0.0,0.0,0.0,0.0,0.0,0.0,0.0,0.0,-1.4436,-1.5052,-1.5954,-1.6321,-1.6722,-1.7118,-1.7889,-1.9486,-2.189,-2.2364,-2.286,-2.331,-2.3361,-2.3619,-2.4036,-2.4015,-2.4263,-2.4706,-2.476,-2.4956,-2.5219,-2.5327,-2.5349,-2.5322,-2.5452,-2.5367,-2.519,-2.5119,-2.5005,-2.4917,-2.4998,-2.505,-2.5057,-2.5037,-2.4953,-2.4847,-2.4809,-2.4837,-2.4832,-2.4693,-2.4761,-2.4832,-2.4687,-2.4727,-2.4809,-2.4846,-2.4933,-2.5055,-2.5264,-2.5293,-2.5293,-2.5293,-2.5293,-2.5313,-2.5331,-2.5428,-2.5508,-2.5525,-2.5633,-2.5674,-2.5612,-2.5496,-2.527,-2.487,-2.4199,-2.3498,-2.2746,-2.2194,-2.1906,-2.1906,-2.2935,-2.3671,-2.4017,-2.467,-2.507,-2.5214,-2.5316,-2.5366,-2.5372,-2.5322,-2.5271,-2.2783,-2.3804,-2.4489,-2.5199,0.0,0.0,-2.6874,-2.6776,-2.6715,-2.7845,-2.7343,-2.6376,-2.5379,0.0,0.0,0.0,0.0,0.0,0.0,0.0,0.0,0.0,0.0,0.0,0.0,0.0,0.0,0.0,0.0,0.0,0.0,-1.4819,-1.5565,-1.6757,-1.6791,-1.7135,-1.7811,-1.8819,-2.0241,-2.2079,-2.1568,-2.175,-2.2544,-2.3319,-2.3692,-2.3714,-2.3899,-2.4183,-2.4512,-2.4716,-2.4788,-2.481,-2.5022,-2.5095,-2.5133,-2.5404,-2.5455,-2.5372,-2.5174,-2.5101,-2.5101,-2.5101,-2.5056,-2.5019,-2.508,-2.5054,-2.4974,-2.4842,-2.4904,-2.5001,-2.5001,-2.5001,-2.5001,-2.5001,-2.4904,-2.4842,-2.4974,-2.5001,-2.5067,-2.5264,-2.5293,-2.5303,-2.5293,-2.5293,-2.5322,-2.5389,-2.5455,-2.5521,-2.5588,-2.566,-2.5672,-2.5615,-2.5416,-2.5143,-2.4742,-2.4038,-2.3417,-2.2952,-2.2714,-2.2599,-2.2599,-2.3168,-2.3815,-2.4486,-2.4685,-2.4793,-2.4808,-2.4992,-2.5176,-2.5294,-2.5429,-2.5498,-2.3025,-2.4408,0.0,-2.4424,0.0,0.0,0.0,-2.5767,0.0,0.0,-2.6054,-2.571,-2.5219,0.0,0.0,0.0,0.0,0.0,0.0,0.0,0.0,0.0,0.0,0.0,0.0,0.0,0.0,0.0,0.0,0.0,0.0,-1.5006,-1.5588,-1.677,-1.7179,-1.7623,-1.8141,-1.9704,-2.0741,-2.1267,-2.2674,-2.3343,-2.3337,-2.2903,-2.295,-2.3337,-2.3424,-2.3575,-2.3826,-2.4267,-2.4349,-2.4279,-2.4724,-2.4894,-2.4918,-2.5189,-2.5275,-2.5263,-2.5298,-2.5308,-2.53,-2.5256,-2.5259,-2.5284,-2.5246,-2.5063,-2.4896,-2.5098,-2.5012,-2.4913,-2.515,-2.5214,-2.5183,-2.5034,-2.5075,-2.5128,-2.5022,-2.5111,-2.5234,-2.5293,-2.5183,-2.5131,-2.5283,-2.5183,-2.5156,-2.5364,-2.5455,-2.5519,-2.5595,-2.5618,-2.5603,-2.5543,-2.5428,-2.5207,-2.4805,-2.4341,-2.3906,-2.3489,-2.3191,-2.2911,-2.2599,-2.3029,-2.3458,-2.3786,-2.4091,-2.431,-2.446,-2.4742,-2.4953,-2.5091,-2.5234,-2.5357,-2.3813,-2.4691,0.0,-2.4635,-2.4905,-2.5282,-2.5139,0.0,0.0,0.0,0.0,0.0,0.0,0.0,0.0,0.0,0.0,0.0,0.0,0.0,0.0,0.0,0.0,0.0,0.0,0.0,0.0,0.0,0.0,0.0,0.0,-1.544,-1.5936,-1.6768,-1.7494,-1.7995,-1.8261,-1.9624,-2.0451,-2.0712,-2.2027,-2.2748,-2.2892,-2.2432,-2.2579,-2.3189,-2.3189,-2.327,-2.3418,-2.3728,-2.3786,-2.3712,-2.4128,-2.4369,-2.4516,-2.4867,-2.5091,-2.5219,-2.5349,-2.5418,-2.5434,-2.5361,-2.5291,-2.5224,-2.51,-2.4937,-2.4816,-2.4883,-2.4892,-2.4926,-2.513,-2.5244,-2.5264,-2.5152,-2.5214,-2.5264,-2.5152,-2.5214,-2.5293,-2.5293,-2.5194,-2.5163,-2.5283,-2.5203,-2.5187,-2.5412,-2.5498,-2.5554,-2.5588,-2.5554,-2.5513,-2.5461,-2.5329,-2.5139,-2.4908,-2.4571,-2.428,-2.4022,-2.3759,-2.3495,-2.3252,-2.3218,-2.3333,-2.3566,-2.3648,-2.3744,-2.3866,-2.4145,-2.4413,-2.4643,-2.4886,-2.5121,-2.4849,0.0,0.0,-2.5393,-2.537,0.0,-2.6042,-2.5835,-2.5485,0.0,0.0,0.0,0.0,0.0,0.0,0.0,0.0,0.0,0.0,0.0,0.0,0.0,0.0,0.0,0.0,0.0,0.0,0.0,0.0,0.0,0.0,-1.6069,-1.645,-1.6841,-1.7766,-1.8244,-1.8243,-1.8999,-1.9747,-2.0448,-2.045,-2.0901,-2.177,-2.2014,-2.2536,-2.3273,-2.3203,-2.3189,-2.3189,-2.3174,-2.3141,-2.3115,-2.3378,-2.3656,-2.398,-2.4483,-2.4878,-2.5185,-2.5342,-2.5444,-2.5493,-2.5407,-2.5195,-2.4929,-2.4744,-2.4693,-2.4629,-2.4375,-2.46,-2.4921,-2.4979,-2.5141,-2.5283,-2.5303,-2.5283,-2.5274,-2.5274,-2.5274,-2.5264,-2.5263,-2.5264,-2.5274,-2.5274,-2.5284,-2.5336,-2.5479,-2.5556,-2.5598,-2.5583,-2.5482,-2.5389,-2.5364,-2.5147,-2.4989,-2.4952,-2.4687,-2.4495,-2.4478,-2.4303,-2.4199,-2.4151,-2.3544,-2.3337,-2.3579,-2.3259,-2.3085,-2.3052,-2.324,-2.358,-2.4001,-2.4374,-2.4717,-2.5153,-2.5096,0.0,0.0,-2.482,-2.4983,-2.5354,-2.5508,-2.5535,0.0,0.0,0.0,0.0,0.0,0.0,0.0,0.0,0.0,0.0,0.0,0.0,0.0,0.0,0.0,0.0,0.0,0.0,0.0,0.0,0.0,0.0,-1.6612,-1.6831,-1.7194,-1.7624,-1.8042,-1.8511,-1.9515,-2.0242,0.0,-2.1346,-2.182,-2.2177,-2.234,-2.2927,-2.3803,-2.328,-2.3109,-2.3165,-2.2923,-2.2617,-2.2407,-2.3017,-2.3289,-2.3386,-2.4121,-2.4635,-2.5005,-2.5242,-2.5396,-2.5478,-2.5362,-2.5029,-2.4685,-2.4627,-2.4232,-2.3839,-2.4204,-2.4249,-2.4344,-2.4863,-2.5034,-2.5099,-2.5264,-2.5183,-2.5067,-2.5067,-2.5067,-2.5032,-2.4932,-2.4993,-2.5067,-2.5067,-2.5107,-2.5221,-2.5463,-2.5562,-2.5561,-2.5455,-2.5415,-2.5314,-2.5116,-2.5027,-2.4888,-2.4636,-2.4543,-2.4436,-2.4266,-2.4228,-2.4074,-2.3816,-2.3423,-2.3091,-2.2842,-2.2522,-2.2173,-2.1868,-2.2119,-2.2551,-2.3163,-2.33,-2.3654,-2.54,0.0,0.0,-2.4802,0.0,-2.5007,-2.5276,-2.5454,0.0,0.0,0.0,0.0,0.0,0.0,0.0,0.0,0.0,0.0,0.0,0.0,0.0,0.0,0.0,0.0,0.0,0.0,0.0,0.0,0.0,0.0,-1.7048,-1.7032,-1.7116,-1.7281,-1.7721,-1.8151,-1.8591,-1.9348,-1.9913,-2.0326,-2.084,-2.1413,-2.2021,-2.2111,-2.2382,-2.2749,-2.2662,-2.2811,-2.3071,-2.2591,-2.2324,-2.22,-2.2369,-2.2728,-2.3225,-2.3821,-2.4422,-2.4914,-2.51,-2.5239,-2.5327,-2.5205,-2.4879,-2.4515,-2.4289,-2.4035,-2.3828,-2.3795,-2.4063,-2.4463,-2.4806,-2.5046,-2.5226,-2.5319,-2.5176,-2.5001,-2.5001,-2.5001,-2.4986,-2.4917,-2.503,-2.5142,-2.5142,-2.5224,-2.5335,-2.5476,-2.5529,-2.5522,-2.5417,-2.5289,-2.5148,-2.5003,-2.4858,-2.4693,-2.4519,-2.4401,-2.4312,-2.4218,-2.4199,-2.4045,-2.3714,-2.3392,-2.2937,-2.2373,-2.2032,-2.1652,-2.125,-2.1398,-2.1829,-2.253,-2.2641,-2.3063,-2.5542,0.0,-2.5146,-2.5055,-2.5098,0.0,-2.5458,0.0,0.0,0.0,0.0,0.0,0.0,0.0,0.0,0.0,0.0,0.0,0.0,0.0,0.0,0.0,0.0,0.0,0.0,0.0,0.0,0.0,0.0,0.0,-1.7392,-1.7394,-1.7387,-1.7387,-1.7867,-1.8279,-1.8592,-1.8946,-1.936,-1.979,-2.0035,-2.0611,-2.1459,-2.1531,-2.1664,-2.1863,-2.2254,-2.2747,-2.3209,-2.2606,-2.2337,-2.229,-2.1985,-2.2379,-2.3168,-2.3695,-2.4312,-2.489,-2.497,-2.5085,-2.5161,-2.5044,-2.4763,-2.4397,-2.4044,-2.4026,-2.402,-2.3545,-2.4045,-2.4756,-2.4841,-2.5119,-2.5365,-2.5415,-2.5216,-2.5006,-2.5001,-2.5001,-2.4989,-2.4974,-2.5122,-2.5284,-2.533,-2.5434,-2.5515,-2.5498,-2.5499,-2.5457,-2.5348,-2.5137,-2.4955,-2.4837,-2.4573,-2.4381,-2.4274,-2.4182,-2.4113,-2.4113,-2.4113,-2.3967,-2.3619,-2.3291,-2.2728,-2.1927,-2.1647,-2.1275,-2.0772,-2.0772,-2.1172,-2.1918,-2.2082,-2.2571,0.0,0.0,-2.5399,0.0,-2.5303,-2.5469,0.0,0.0,0.0,0.0,0.0,0.0,0.0,0.0,0.0,0.0,0.0,0.0,0.0,0.0,0.0,0.0,0.0,0.0,0.0,0.0,0.0,0.0,0.0,-1.7424,-1.7712,-1.7721,-1.7721,-1.7721,-1.7816,-1.8086,-1.8605,-1.877,-1.9173,-1.9802,-2.0179,-2.0396,-2.0495,-2.0558,-2.171,-2.3636,-2.3428,-2.3657,-2.4176,-2.3612,-2.2999,-2.2436,-2.2828,-2.287,-2.2816,-2.385,-2.4477,-2.483,-2.4961,-2.5054,-2.5109,-2.5018,-2.4688,-2.4349,-2.4464,-2.4199,-2.3916,-2.4169,-2.4339,-2.4555,-2.5031,-2.5197,-2.5272,-2.5453,-2.5277,-2.507,-2.5006,-2.5001,-2.4962,-2.4855,-2.4986,-2.5203,-2.543,-2.5543,-2.5571,-2.5509,-2.5503,-2.5386,-2.5096,-2.5025,-2.4774,-2.419,-2.4082,-2.3881,-2.3401,-2.361,-2.3774,-2.3774,-2.3774,-2.3619,-2.3268,-2.2939,-2.2262,-2.1165,-2.111,-2.0665,-1.9882,-1.9882,-2.0296,-2.1134,-2.1172,-2.163,-2.521,-2.5281,-2.5277,0.0,-2.5242,-2.5274,0.0,0.0,0.0,0.0,0.0,0.0,0.0,0.0,0.0,0.0,0.0,0.0,0.0,0.0,0.0,0.0,0.0,0.0,0.0,0.0,0.0,0.0,0.0,-1.7368,-1.7517,-1.7704,-1.7811,-1.7811,-1.7957,-1.8208,-1.8594,-1.8963,-1.9463,-2.0137,-2.0318,-2.0415,-2.0465,-2.0505,-2.1296,-2.2668,-2.2862,-2.3259,-2.3775,-2.3649,-2.3371,-2.3,-2.2832,-2.2946,-2.3289,-2.383,-2.4348,-2.4823,-2.4951,-2.4965,-2.4933,-2.4898,-2.4671,-2.4407,-2.4426,-2.4407,-2.4337,-2.4216,-2.4391,-2.4684,-2.4913,-2.5062,-2.5203,-2.5445,-2.5408,-2.5318,-2.5292,-2.5159,-2.5079,-2.5177,-2.5231,-2.5328,-2.552,-2.558,-2.5591,-2.5561,-2.5521,-2.5389,-2.509,-2.4784,-2.4454,-2.4035,-2.3731,-2.3459,-2.3212,-2.3346,-2.3414,-2.3414,-2.3414,-2.3268,-2.2939,-2.2565,-2.1927,-2.1031,-2.0999,-2.0573,-1.9682,-1.9682,-2.0007,-2.0616,-2.0862,-2.1323,0.0,0.0,-2.5118,-2.5168,-2.5097,-2.5057,0.0,0.0,0.0,0.0,0.0,0.0,0.0,0.0,0.0,0.0,0.0,0.0,0.0,0.0,0.0,0.0,0.0,0.0,0.0,0.0,0.0,0.0,-1.6842,-1.7215,-1.7296,-1.7627,-1.7825,-1.7914,-1.8091,-1.8373,-1.8744,-1.9309,-1.985,-2.037,-2.0408,-2.0472,-2.0547,-2.0554,-2.0809,-2.1308,-2.2016,-2.2783,-2.3536,-2.3644,-2.3724,-2.3756,-2.317,-2.3289,-2.3812,-2.3924,-2.434,-2.4814,-2.4912,-2.4882,-2.4801,-2.4793,-2.4659,-2.4486,-2.444,-2.4597,-2.4725,-2.4323,-2.4492,-2.4803,-2.4822,-2.4939,-2.5108,-2.5364,-2.5424,-2.5439,-2.549,-2.5344,-2.5267,-2.5464,-2.5472,-2.5483,-2.5583,-2.5607,-2.5613,-2.5579,-2.5529,-2.5373,-2.5061,-2.4611,-2.417,-2.3843,-2.3361,-2.3054,-2.2974,-2.303,-2.3061,-2.3061,-2.3061,-2.2972,-2.2721,-2.2351,-2.1795,-2.1031,-2.0999,-2.0573,-1.9682,-1.9682,-1.9909,-2.0314,-2.0789,-2.1221,0.0,-2.4809,0.0,-2.4869,0.0,0.0,0.0,0.0,0.0,0.0,0.0,0.0,0.0,0.0,0.0,0.0,0.0,0.0,0.0,0.0,0.0,0.0,0.0,0.0,0.0,0.0,0.0,0.0,-1.6633,-1.696,-1.7288,-1.7627,-1.7914,-1.8166,-1.8187,-1.8504,-1.9161,-1.976,-2.0137,-2.0309,-2.0435,-2.0469,-2.041,-2.0414,-2.039,-2.0424,-2.1405,-2.272,-2.4141,-2.3964,-2.4179,-2.4625,-2.4463,-2.4252,-2.4107,-2.4366,-2.4616,-2.4801,-2.4814,-2.4812,-2.4803,-2.4789,-2.4667,-2.453,-2.4726,-2.4788,-2.4793,-2.4771,-2.4778,-2.4808,-2.4877,-2.4899,-2.4964,-2.5173,-2.522,-2.527,-2.5459,-2.5484,-2.5484,-2.5498,-2.5551,-2.5588,-2.5601,-2.5649,-2.565,-2.5525,-2.5503,-2.5333,-2.4868,-2.4507,-2.4026,-2.3333,-2.2939,-2.2617,-2.2377,-2.259,-2.2721,-2.2721,-2.2721,-2.2721,-2.2695,-2.2436,-2.1878,-2.1031,-2.0999,-2.0573,-1.9682,-1.9682,-1.9909,-2.0314,-2.0789,-2.1221,0.0,0.0,0.0,-2.4455,0.0,0.0,0.0,0.0,0.0,0.0,0.0,0.0,0.0,0.0,0.0,0.0,0.0,0.0,0.0,0.0,0.0,0.0,0.0,0.0,0.0,0.0,0.0,0.0,0.0,-1.6934,-1.7288,-1.7627,-1.7927,-1.8187,-1.8371,-1.8824,-1.9578,-1.9848,-2.0104,-2.0371,-2.0457,-2.0494,-2.0459,-2.038,-2.0279,-2.0188,-2.0462,-2.1251,-2.2405,-2.3281,-2.3761,-2.3964,-2.4301,-2.4485,-2.4562,-2.4602,-2.4772,-2.4997,-2.509,-2.4982,-2.4803,-2.4804,-2.4666,-2.4509,-2.4591,-2.4696,-2.4772,-2.4642,-2.4608,-2.4558,-2.4369,-2.448,-2.4726,-2.5063,-2.5198,-2.532,-2.5517,-2.5562,-2.558,-2.5619,-2.558,-2.5551,-2.5588,-2.5619,-2.5602,-2.551,-2.539,-2.5113,-2.46,-2.4104,-2.3744,-2.3665,-2.3357,-2.3292,-2.3693,-2.3357,-2.3144,-2.3144,-2.2709,-2.2445,-2.2445,-2.1815,-2.1323,-2.0999,-2.0439,-2.0015,-1.9682,-1.9682,-1.9909,-2.0314,-2.0789,-2.1221,-2.3352,0.0,0.0,0.0,0.0,0.0,0.0,0.0,0.0,0.0,0.0,0.0,0.0,0.0,0.0,0.0,0.0,0.0,0.0,0.0,0.0,0.0,0.0,0.0,0.0,0.0,0.0,0.0,0.0,0.0,-1.7288,-1.7627,-1.7971,-1.833,-1.8726,-1.921,-1.979,-1.9926,-2.0137,-2.0401,-2.0474,-2.0487,-2.046,-2.0302,-2.0176,-2.0063,-1.9886,-2.0347,-2.1323,-2.2582,-2.3263,-2.3597,-2.4266,-2.4658,-2.4826,-2.4764,-2.4921,-2.5172,-2.5193,-2.5045,-2.4836,-2.4808,-2.4617,-2.441,-2.441,-2.4495,-2.4568,-2.4436,-2.441,-2.4356,-2.4127,-2.4336,-2.4665,-2.4962,-2.52,-2.5414,-2.5588,-2.5635,-2.5648,-2.5693,-2.5605,-2.5551,-2.5588,-2.5583,-2.5544,-2.5478,-2.5296,-2.4971,-2.4431,-2.387,-2.3593,-2.3875,-2.3608,-2.3689,-2.4455,-2.3807,-2.3393,-2.3393,-2.2716,-2.231,-2.231,-2.1576,-2.115,-2.0999,-2.0277,-1.9846,-1.9682,-1.9682,-1.9909,-2.0314,-2.0789,-2.1352,0.0,0.0,0.0,0.0,0.0,0.0,0.0,0.0,0.0,0.0,0.0,0.0,0.0,0.0,0.0,0.0,0.0,0.0,0.0,0.0,0.0,0.0,0.0,0.0,0.0,0.0,0.0,0.0,-1.6615,-1.6952,-1.732,-1.7641,-1.807,-1.8594,-1.9256,-1.9656,-1.98,-2.0063,-2.0269,-2.0404,-2.0469,-2.046,-2.0383,-2.0176,-2.0063,-1.9974,-1.971,-2.0141,-2.1116,-2.1928,-2.2776,-2.3633,-2.4461,-2.4833,-2.4901,-2.4829,-2.5021,-2.5279,-2.5083,-2.4973,-2.4898,-2.4834,-2.4545,-2.4218,-2.4218,-2.419,-2.4199,-2.4199,-2.4199,-2.4199,-2.4199,-2.4495,-2.4799,-2.4877,-2.5202,-2.5529,-2.5672,-2.5703,-2.5703,-2.5703,-2.5637,-2.5601,-2.5588,-2.5537,-2.5476,-2.541,-2.5222,-2.4904,-2.4361,-2.3829,-2.3593,-2.3848,-2.3625,-2.3723,-2.4481,-2.3849,-2.3427,-2.3427,-2.2725,-2.231,-2.231,-2.1832,-2.1399,-2.0999,-2.0516,-2.0089,-1.9682,-1.9682,-1.9909,-2.0314,-2.0789,-2.1622,-2.2553,0.0,0.0,0.0,0.0,0.0,0.0,0.0,0.0,0.0,0.0,0.0,0.0,0.0,0.0,0.0,0.0,0.0,0.0,0.0,0.0,0.0,0.0,0.0,0.0,0.0,0.0,0.0,-1.6738,-1.7142,-1.7915,-1.8402,-1.8734,-1.8887,-1.9359,-1.9656,-1.98,-2.0063,-2.0245,-2.0331,-2.0438,-2.0392,-2.0179,-2.0023,-1.9866,-1.9698,-1.9481,-1.9529,-1.9893,-2.1079,-2.1923,-2.2571,-2.3816,-2.4562,-2.4973,-2.5057,-2.5239,-2.5434,-2.5331,-2.5214,-2.5095,-2.4979,-2.4708,-2.4428,-2.4428,-2.4321,-2.4199,-2.4199,-2.4199,-2.4199,-2.4199,-2.4211,-2.4325,-2.4733,-2.506,-2.5345,-2.5581,-2.5635,-2.5633,-2.5633,-2.5567,-2.5512,-2.5455,-2.5478,-2.5457,-2.5351,-2.5119,-2.4711,-2.4031,-2.3545,-2.3351,-2.3514,-2.3918,-2.4484,-2.5228,-2.4611,-2.421,-2.421,-2.3004,-2.231,-2.231,-2.1584,-2.1118,-2.0999,-2.0235,-1.9811,-1.9682,-1.9682,-1.9909,-2.0306,-2.107,-2.1777,-2.231,-2.2451,0.0,0.0,0.0,0.0,0.0,-2.2902,0.0,0.0,0.0,0.0,0.0,0.0,0.0,0.0,0.0,0.0,0.0,0.0,0.0,0.0,0.0,0.0,0.0,-1.6181,-1.6357,-1.6761,-1.6789,-1.7215,-1.8146,-1.8715,-1.8993,-1.8993,-1.9398,-1.9685,-1.9832,-2.0053,-2.022,-2.0336,-2.0336,-2.0253,-2.009,-1.9877,-1.9712,-1.9592,-1.9389,-1.9305,-1.9375,-2.0391,-2.1243,-2.2089,-2.3737,-2.461,-2.4944,-2.5158,-2.5366,-2.5521,-2.5398,-2.5294,-2.5182,-2.5035,-2.4762,-2.4495,-2.4495,-2.4418,-2.4303,-2.4228,-2.4199,-2.4209,-2.4294,-2.4328,-2.4435,-2.4827,-2.5125,-2.5385,-2.5561,-2.5624,-2.5634,-2.5613,-2.5521,-2.5453,-2.5413,-2.5434,-2.5415,-2.5321,-2.5046,-2.4715,-2.4321,-2.3907,-2.3815,-2.4279,-2.4695,-2.5127,-2.5566,-2.4915,-2.4379,-2.4044,-2.2953,-2.231,-2.231,-2.1454,-2.0999,-2.0999,-2.0147,-1.9682,-1.9682,-1.9682,-1.9909,-2.0314,-2.1007,-2.1515,-2.231,-2.2369,0.0,0.0,0.0,0.0,-2.1658,-2.2353,0.0,0.0,0.0,0.0,0.0,0.0,0.0,0.0,0.0,0.0,0.0,0.0,0.0,0.0,0.0,0.0,-1.6775,-1.6725,-1.6749,-1.6844,-1.6873,-1.7295,-1.8208,-1.8725,-1.9027,-1.9078,-1.9433,-1.9722,-1.9917,-2.0039,-2.0189,-2.036,-2.0165,-2.0049,-1.9988,-1.9691,-1.9555,-1.9513,-1.9335,-1.9283,-1.9338,-1.9937,-2.0816,-2.1984,-2.3858,-2.4671,-2.4843,-2.5161,-2.541,-2.5545,-2.5371,-2.5269,-2.5201,-2.5067,-2.4827,-2.4559,-2.4559,-2.4552,-2.4495,-2.4321,-2.4275,-2.4303,-2.4495,-2.4685,-2.4868,-2.5051,-2.5299,-2.5508,-2.5567,-2.5638,-2.5663,-2.5601,-2.5498,-2.5421,-2.5408,-2.5412,-2.5391,-2.5322,-2.5021,-2.4816,-2.4882,-2.4544,-2.4601,-2.5385,-2.5558,-2.5609,-2.5609,-2.4915,-2.4205,-2.3494,-2.2693,-2.2209,-2.2152,-2.1354,-2.0926,-2.0926,-2.0112,-1.9682,-1.9682,-1.9682,-1.9909,-2.0314,-2.0723,-2.0959,-2.231,-2.2733,-2.2836,-2.1366,0.0,0.0,-2.0961,-2.1181,0.0,0.0,0.0,0.0,0.0,0.0,0.0,0.0,0.0,0.0,0.0,0.0,0.0,0.0,0.0,0.0,-1.6874,-1.675,-1.6827,-1.7179,-1.7395,-1.782,-1.8489,-1.8834,-1.9143,-1.9471,-1.9663,-1.9862,-2.0067,-2.0094,-2.0115,-2.0162,-2.0005,-1.9736,-1.937,-1.9302,-1.9222,-1.911,-1.9086,-1.915,-1.9369,-2.0286,-2.112,-2.1885,-2.2819,-2.3861,-2.4826,-2.5052,-2.5267,-2.5431,-2.5383,-2.5369,-2.5352,-2.5265,-2.5086,-2.4901,-2.4901,-2.4823,-2.4731,-2.47,-2.4685,-2.4685,-2.4731,-2.485,-2.4982,-2.5081,-2.5265,-2.5441,-2.5508,-2.5529,-2.5537,-2.5517,-2.5539,-2.5537,-2.5493,-2.5476,-2.5457,-2.539,-2.5047,-2.4824,-2.489,-2.4544,-2.4418,-2.4686,-2.5245,-2.5609,-2.5609,-2.4915,-2.4292,-2.3833,-2.2501,-2.1598,-2.126,-2.0723,-2.0449,-2.0449,-1.9937,-1.9682,-1.9682,-1.9682,-1.9909,-2.0314,-2.0374,-2.0649,-2.231,-2.2581,-2.2559,-2.1318,0.0,0.0,0.0,0.0,-2.166,0.0,0.0,0.0,0.0,0.0,0.0,0.0,0.0,0.0,0.0,0.0,0.0,0.0,0.0,0.0,-1.7046,-1.7733,-1.808,-1.7783,-1.821,-1.8589,-1.8781,-1.9287,-1.955,-1.9601,-1.976,-1.9925,-2.01,-2.0095,-2.0032,-1.9905,-1.9494,-1.9197,-1.8988,-1.8761,-1.8789,-1.8993,-1.8993,-1.9101,-1.9341,-1.9843,-2.0486,-2.1279,-2.262,-2.3558,-2.4223,-2.4824,-2.5197,-2.5398,-2.5353,-2.5368,-2.5391,-2.5322,-2.5163,-2.5001,-2.5001,-2.4904,-2.4809,-2.4887,-2.4855,-2.4818,-2.4877,-2.4949,-2.5027,-2.5168,-2.5306,-2.5417,-2.5437,-2.5477,-2.5503,-2.5503,-2.5535,-2.5527,-2.546,-2.5478,-2.5434,-2.5225,-2.5168,-2.5189,-2.5284,-2.5231,-2.5207,-2.5246,-2.5572,-2.5537,-2.4915,-2.4215,-2.358,-2.2988,-2.1907,-2.1213,-2.0999,-2.055,-2.0066,-1.96,-1.914,-1.905,-1.9288,-1.9288,-1.9536,-2.0,-2.0,-2.0139,0.0,0.0,0.0,0.0,0.0,-2.1335,0.0,0.0,0.0,-2.1765,0.0,0.0,0.0,0.0,0.0,0.0,0.0,0.0,0.0,0.0,0.0,0.0,0.0,0.0,0.0,-1.8231,-1.8865,-1.8129,-1.8788,-1.9211,-1.9147,-1.9702,-1.996,-1.9778,-1.9856,-1.9961,-2.0101,-2.0018,-1.9825,-1.9529,-1.8886,-1.8583,-1.8583,-1.8191,-1.8351,-1.8931,-1.8931,-1.9067,-1.9305,-1.9335,-1.9715,-2.046,-2.2448,-2.3328,-2.3627,-2.4643,-2.5178,-2.5391,-2.5339,-2.5361,-2.541,-2.5338,-2.5216,-2.5097,-2.5083,-2.5001,-2.4943,-2.5032,-2.499,-2.4923,-2.5032,-2.5055,-2.5099,-2.5264,-2.5338,-2.5383,-2.5383,-2.5434,-2.5478,-2.5483,-2.5493,-2.5486,-2.5429,-2.5418,-2.5308,-2.4994,-2.5218,-2.5394,-2.5297,-2.5666,-2.5881,-2.5681,-2.577,-2.5424,-2.4399,-2.3554,-2.2793,-2.2107,-2.1323,-2.0829,-2.0764,-2.0272,-1.9636,-1.8765,-1.8419,-1.8458,-1.8893,-1.9006,-1.9288,-1.9682,-1.9682,-1.9646,0.0,0.0,0.0,0.0,-2.1503,0.0,0.0,0.0,-1.9476,-1.9504,0.0,0.0,0.0,0.0,0.0,0.0,0.0,0.0,0.0,0.0,0.0,0.0,0.0,0.0,0.0,-1.6599,-1.7377,-1.7558,-1.8427,-1.9181,-1.9681,-1.9738,-1.9949,-2.038,-2.0061,-1.9967,-2.0096,-1.9745,-1.9335,-1.8896,-1.8404,-1.8057,-1.7821,-1.7773,-1.8068,-1.8651,-1.8651,-1.8886,-1.9305,-1.949,-1.9517,-1.9614,-2.1453,-2.2727,-2.3631,-2.4702,-2.5223,-2.5396,-2.5389,-2.5425,-2.5478,-2.5408,-2.5412,-2.543,-2.5369,-2.534,-2.5324,-2.5274,-2.5253,-2.5243,-2.5264,-2.5264,-2.5274,-2.5293,-2.5313,-2.5313,-2.5313,-2.5363,-2.541,-2.5408,-2.5461,-2.5498,-2.5486,-2.5302,-2.5052,-2.4776,-2.4965,-2.4798,-2.3868,-2.471,-2.5155,-2.4495,-2.4928,-2.5227,-2.507,-2.3863,-2.2893,-2.2399,-2.1097,-2.0227,-1.9846,-1.9347,-1.8803,-1.8217,-1.8612,-1.8848,-1.8893,-1.9369,-1.9646,-1.9682,-1.9682,-1.9442,0.0,0.0,0.0,0.0,0.0,0.0,-1.9991,0.0,-1.9565,0.0,0.0,0.0,0.0,0.0,0.0,0.0,0.0,0.0,0.0,0.0,0.0,0.0,0.0,0.0,0.0,0.0,0.0,0.0,-1.9446,-2.0116,-2.0091,-2.1034,-2.1225,-2.0522,-2.0565,-2.0366,-1.987,-1.9425,-1.8899,-1.8271,-1.7594,-1.7245,-1.7191,-1.7191,-1.758,-1.8321,-1.851,-1.893,-1.9462,-1.9433,-1.9447,-1.9628,-2.125,-2.2249,-2.2978,-2.4404,-2.513,-2.5413,-2.5437,-2.5478,-2.5498,-2.5467,-2.5478,-2.5488,-2.5415,-2.5396,-2.5391,-2.5312,-2.5293,-2.5293,-2.5293,-2.5293,-2.5293,-2.5293,-2.5293,-2.5293,-2.5293,-2.5322,-2.5311,-2.5187,-2.5187,-2.512,-2.4859,-2.4841,-2.4741,-2.4348,-2.4469,-2.428,-2.3429,-2.4297,-2.4531,-2.3304,-2.3776,-2.3881,-2.325,-2.2262,-2.1633,-2.1424,-2.0183,-1.9281,-1.8772,-1.8256,-1.786,-1.7626,-1.786,-1.8138,-1.8458,-1.8968,-1.9406,-1.9682,-1.9682,-1.9566,-2.231,0.0,0.0,0.0,0.0,0.0,0.0,0.0,0.0,0.0,0.0,0.0,0.0,0.0,0.0,0.0,0.0,0.0,0.0,0.0,0.0,0.0,0.0,0.0,0.0,0.0,0.0,0.0,0.0,-2.1023,-2.0652,-2.1981,-2.2233,-2.1115,-2.1085,-2.0701,-1.9871,-1.9179,-1.8405,-1.7555,-1.6897,-1.6612,-1.6659,-1.6834,-1.7341,-1.8128,-1.8571,-1.9046,-1.9513,-1.9418,-1.9442,-1.9652,-2.1006,-2.1837,-2.2505,-2.4198,-2.5082,-2.5444,-2.5503,-2.5525,-2.5529,-2.5551,-2.5544,-2.5543,-2.545,-2.5428,-2.541,-2.5312,-2.5313,-2.5322,-2.5293,-2.5313,-2.5322,-2.5293,-2.5293,-2.5293,-2.5293,-2.5264,-2.5173,-2.5022,-2.4974,-2.4793,-2.4299,-2.4388,-2.4298,-2.3655,-2.3774,-2.3558,-2.2548,-2.3431,-2.3594,-2.2091,-2.2517,-2.2591,-2.1772,-2.1096,-2.0549,-2.0235,-1.9395,-1.8574,-1.79,-1.7666,-1.747,-1.7312,-1.7585,-1.794,-1.8334,-1.8848,-1.9325,-1.9682,-1.9682,-1.9603,0.0,0.0,0.0,-2.159,0.0,0.0,0.0,0.0,-1.9566,0.0,0.0,0.0,0.0,0.0,0.0,0.0,0.0,0.0,0.0,0.0,0.0,0.0,0.0,0.0,0.0,0.0,0.0,0.0,0.0,0.0,-2.1569,-2.2037,-2.2374,-2.2538,-2.1599,-2.0842,-2.0287,-1.9036,-1.7855,-1.6746,-1.6462,-1.632,-1.6348,-1.6913,-1.7521,-1.8148,-1.8872,-1.9219,-1.932,-1.9513,-1.9485,-1.9403,-2.0431,-2.1428,-2.2511,-2.4252,-2.5151,-2.5508,-2.5567,-2.5601,-2.5615,-2.5672,-2.5693,-2.5672,-2.5543,-2.5498,-2.5467,-2.5339,-2.5347,-2.5383,-2.5322,-2.5356,-2.5383,-2.5322,-2.5293,-2.5293,-2.5293,-2.5152,-2.501,-2.5001,-2.49,-2.4638,-2.41,-2.4016,-2.3662,-2.2618,-2.2911,-2.2535,-2.0636,-2.161,-2.2039,-2.088,-2.1367,-2.1757,-2.1695,-2.1096,-2.0182,-1.904,-1.89,-1.8419,-1.7388,-1.782,-1.782,-1.7312,-1.8334,-1.8848,-1.8893,-1.9406,-1.9682,-1.9682,-1.9682,-1.9406,0.0,0.0,-2.2003,-2.1688,0.0,0.0,0.0,0.0,0.0,0.0,0.0,0.0,0.0,0.0,0.0,0.0,0.0,0.0,0.0,0.0,0.0,0.0,0.0,0.0,0.0,0.0,0.0,0.0,-2.1303,0.0,0.0,-2.324,-2.353,-2.2882,-2.1854,-2.0739,-1.9588,-1.8136,-1.6931,-1.5963,-1.5966,-1.6088,-1.632,-1.6913,-1.7574,-1.8281,-1.8912,-1.9407,-1.975,-1.9643,-1.9604,-1.9703,-2.0485,-2.1091,-2.1737,-2.3609,-2.481,-2.5517,-2.5633,-2.5671,-2.5672,-2.5693,-2.5672,-2.5619,-2.5535,-2.5503,-2.5483,-2.5389,-2.5408,-2.5461,-2.5441,-2.5424,-2.5354,-2.5197,-2.5126,-2.5086,-2.4997,-2.4923,-2.4752,-2.4403,-2.4295,-2.4035,-2.3271,-2.2924,-2.2616,-2.2258,-2.2168,-2.182,-2.0878,-2.1571,-2.1818,-2.097,-2.1518,-2.1595,-2.0832,-2.0322,-1.9694,-1.8945,-1.8893,-1.8574,-1.786,-1.798,-1.802,-1.782,-1.8535,-1.8893,-1.8893,-1.9442,-1.9682,-1.9682,-1.9682,-1.9603,-2.198,-2.1913,0.0,-2.0986,-2.0521,0.0,-1.997,0.0,0.0,0.0,0.0,0.0,0.0,0.0,0.0,0.0,0.0,0.0,0.0,0.0,0.0,0.0,0.0,0.0,0.0,0.0,-2.1488,-2.1393,0.0,0.0,0.0,0.0,-2.4062,-2.3023,-2.2032,-2.07,-1.9004,-1.7587,-1.6438,-1.5605,-1.5853,-1.6196,-1.6648,-1.7303,-1.7902,-1.8485,-1.9177,-1.9653,-1.9913,-1.9788,-1.9774,-1.9856,-2.0333,-2.0781,-2.1397,-2.3302,-2.4647,-2.5551,-2.5635,-2.5661,-2.5662,-2.5644,-2.562,-2.5583,-2.5488,-2.5478,-2.5488,-2.5424,-2.5471,-2.5529,-2.5508,-2.5467,-2.5379,-2.5148,-2.4985,-2.4815,-2.4661,-2.4463,-2.4234,-2.3894,-2.3773,-2.3489,-2.283,-2.2379,-2.2003,-2.1753,-2.1389,-2.1007,-2.0599,-2.1051,-2.1221,-2.0811,-2.13,-2.128,-2.0387,-2.0062,-1.9601,-1.8923,-1.8893,-1.865,-1.8138,-1.8295,-1.8373,-1.8373,-1.8893,-1.9169,-1.9207,-1.9522,-1.9782,-1.9909,-1.9782,-1.9782]},{"header":{"parameterUnit":"m.s-1","parameterCategory":1,"la1":30.6,"la2":29.2853,"lo1":-89.7004,"lo2":-87.6739,"dy":0.0162,"dx":0.0183,"nx":112,"ny":82,"refTime":"2024-07-27T12:00:00:Z","depth":0,"parameterNumber":3,"parameterNumberName":"V-component_of_WINDS"},"data":[0.0,0.0,0.0,0.0,0.0,0.0,0.0,0.0,0.0,0.0,0.0,0.0,0.0,0.0,0.0,0.0,0.0,0.0,0.0,0.0,0.0,0.0,0.0,0.0,0.0,0.0,0.0,0.0,0.0,0.0,0.0,0.0,0.0,0.0,0.0,0.0,0.0,0.0,0.0,0.0,0.0,0.0,0.0,0.0,0.0,0.0,0.0,0.0,0.0,0.0,0.0,0.0,0.0,0.0,0.0,0.0,0.0,0.0,0.0,0.0,0.0,0.0,0.0,0.0,0.0,0.0,0.0,0.0,0.0,0.0,0.0,0.0,0.0,0.0,0.0,0.0,0.0,0.0,0.0,0.0,0.0,0.0,0.0,0.0,0.0,0.0,0.0,0.0,0.0,0.0,0.0,0.9027,0.5142,0.2421,0.1658,-0.1139,-0.3271,-0.4317,0.0,0.0,0.0,0.0,0.0,0.0,0.0,0.0,0.0,0.0,0.0,0.0,0.0,0.0,0.0,0.0,0.0,0.0,0.0,0.0,0.0,0.0,0.0,0.0,0.0,0.0,0.0,0.0,0.0,0.0,0.0,0.0,0.0,0.0,0.0,0.0,0.0,0.0,0.0,0.0,0.0,0.0,0.0,0.0,0.0,0.0,0.0,0.0,0.0,0.0,0.0,0.0,0.0,0.0,0.0,0.0,0.0,0.0,0.0,0.0,0.0,0.0,0.0,0.0,0.0,0.0,0.0,0.0,0.0,0.0,0.0,0.0,0.0,0.0,0.0,0.0,0.0,0.0,0.0,0.0,0.0,0.0,0.0,0.0,0.0,0.0,0.0,0.0,0.0,0.0,0.0,0.0,0.0,0.0,0.0,0.0,0.0,0.0,0.0,0.0,0.0,0.0,0.0,0.0,0.9787,0.7314,0.4449,0.2371,0.1655,-0.1457,-0.3644,-0.4362,0.0,0.0,0.0,0.0,0.0,0.0,0.0,0.0,0.0,0.0,0.0,0.0,0.0,0.0,0.0,0.0,0.0,0.0,0.0,0.0,0.0,0.0,0.0,0.0,0.0,0.0,0.0,0.0,0.0,0.0,0.0,0.0,0.0,0.0,0.0,0.0,0.0,0.0,0.0,0.0,0.0,0.0,0.0,0.0,0.0,0.0,0.0,0.0,0.0,0.0,0.0,0.0,0.0,0.0,0.0,0.0,0.0,0.0,0.0,0.0,0.0,0.0,0.0,0.0,0.0,0.0,0.0,0.0,0.0,0.0,0.0,0.0,0.0,0.0,0.0,0.0,0.0,0.0,0.0,0.0,0.0,0.0,0.0,0.0,0.0,0.0,0.0,0.0,0.0,0.0,0.0,0.0,0.0,0.0,0.0,0.0,0.0,0.0,0.0,0.0,0.0,0.0,0.0,0.9885,0.8254,0.6678,0.4212,0.2205,0.0971,-0.1829,-0.4095,-0.5493,-0.5152,0.0,0.0,0.0,0.0,0.0,0.0,0.0,0.0,0.0,0.0,0.0,0.0,0.0,0.0,0.0,0.0,0.0,0.0,0.0,0.0,0.0,0.0,0.0,0.0,0.0,0.0,0.0,0.0,0.0,0.0,0.0,0.0,0.0,0.0,0.0,0.0,0.0,0.0,0.0,0.0,0.0,0.0,0.0,0.0,0.0,0.0,0.0,0.0,0.0,0.0,0.0,0.0,0.0,0.0,0.0,0.0,0.0,0.0,0.0,0.0,0.0,0.0,0.0,0.0,0.0,0.0,0.0,0.0,0.0,0.0,0.0,0.0,0.0,0.0,0.0,0.0,0.0,0.0,0.0,0.0,0.0,0.0,0.0,0.0,0.0,0.0,0.0,0.0,0.0,0.0,0.0,0.0,0.0,0.0,0.0,0.0,0.0,0.0,0.0,0.0,0.0,0.0,0.8424,0.7182,0.5945,0.3931,0.1937,0.0117,-0.2302,-0.4538,-0.6487,-0.6188,0.0,0.0,0.0,0.0,0.0,0.0,0.0,0.0,0.0,0.0,0.0,0.0,0.0,0.0,0.0,0.0,0.0,0.0,0.0,0.0,0.0,0.0,0.0,0.0,0.0,0.0,0.0,0.0,0.0,0.0,0.0,0.0,0.0,0.0,0.0,0.0,0.0,0.0,0.0,0.0,0.0,0.0,0.0,0.0,0.0,0.0,0.0,0.0,0.0,0.0,0.0,0.0,0.0,0.0,0.0,0.0,0.0,0.0,0.0,0.0,0.0,0.0,0.0,0.0,0.0,0.0,0.0,0.0,0.0,0.0,0.0,0.0,0.0,0.0,0.0,0.0,0.0,0.0,0.0,0.0,0.0,0.0,0.0,0.0,0.0,0.0,0.0,0.0,0.0,0.0,0.0,0.0,0.0,0.0,0.0,0.0,0.0,0.0,0.0,0.0,0.0,0.0,0.8094,0.7012,0.4429,0.3314,0.1756,-0.0643,-0.298,-0.4963,-0.6529,-0.6549,0.0,0.0,0.0,0.0,0.0,0.0,0.0,0.0,0.0,0.0,0.0,0.0,0.0,0.0,0.0,0.0,0.0,0.0,0.0,0.0,0.0,0.0,0.0,0.0,0.0,0.0,0.0,0.0,0.0,0.0,0.0,0.0,0.0,0.0,0.0,0.0,0.0,0.0,0.0,0.0,0.0,0.0,0.0,0.0,0.0,0.0,0.0,0.0,0.0,0.0,0.0,0.0,0.0,0.0,0.0,0.0,0.0,0.0,0.0,0.0,0.0,0.0,0.0,0.0,0.0,0.0,0.0,0.0,0.0,0.0,0.0,0.0,0.0,0.0,0.0,0.0,0.0,0.0,0.0,0.0,0.0,0.0,0.0,0.0,0.0,0.0,0.0,0.0,0.0,0.0,0.0,0.0,0.0,0.0,0.0,0.0,0.0,0.0,0.0,0.0,0.0,0.0,0.7749,0.6594,0.0,0.3064,0.1587,-0.0794,-0.3104,-0.5004,-0.6527,0.0,0.0,0.0,0.0,0.0,0.0,0.0,0.0,0.0,0.0,0.0,0.0,0.0,0.0,0.0,0.0,0.0,0.0,0.0,0.0,0.0,0.0,0.0,0.0,0.0,0.0,0.0,0.0,0.0,0.0,0.0,0.0,0.0,0.0,0.0,0.0,0.0,0.0,0.0,0.0,0.0,0.0,0.0,0.0,0.0,0.0,0.0,0.0,0.0,0.0,0.0,0.0,0.0,0.0,0.0,0.0,0.0,0.0,0.0,0.0,0.0,0.0,0.0,0.0,0.0,0.0,0.0,0.0,0.0,0.0,0.0,0.0,0.0,0.0,0.0,0.0,0.0,0.0,0.0,0.0,0.0,0.0,0.0,0.0,0.0,0.0,0.0,0.0,0.0,0.0,0.0,0.0,0.0,0.0,0.0,0.0,0.0,0.0,0.0,0.0,0.0,0.0,0.777,0.7428,0.6252,0.0,0.2813,0.1443,-0.1225,-0.3033,-0.479,-0.6475,0.0,0.0,0.0,0.0,0.0,0.0,0.0,0.0,0.0,0.0,0.0,0.0,0.0,0.0,0.0,0.0,0.0,0.0,0.0,0.0,0.0,0.0,0.0,0.0,0.0,0.0,0.0,0.0,0.0,0.0,0.0,0.0,0.0,0.0,0.0,0.0,0.0,0.0,0.0,0.0,0.0,0.0,0.0,0.0,0.0,0.0,0.0,0.0,0.0,0.0,0.0,0.0,0.0,0.0,0.0,0.0,0.0,0.0,0.0,0.0,0.0,0.0,0.0,0.0,0.0,0.0,0.0,0.0,0.0,0.0,0.0,0.0,0.0,0.0,0.0,0.0,0.0,0.0,0.0,0.0,0.0,0.0,0.0,0.0,0.0,0.0,0.0,0.0,0.0,0.0,0.0,0.0,0.0,0.0,0.0,0.0,0.0,0.0,0.0,0.0,0.0,0.0,0.7128,0.715,0.6066,0.2877,0.2519,0.1212,-0.19,-0.2884,-0.4255,0.0,0.0,0.0,0.0,0.0,0.0,0.0,0.0,0.0,0.0,0.0,0.0,0.0,0.0,0.0,0.0,0.0,0.0,0.0,0.0,0.0,0.0,0.0,0.0,0.0,0.0,0.0,0.0,0.0,0.0,0.0,0.0,0.0,0.0,0.0,0.0,0.0,0.0,0.0,0.0,0.0,0.0,0.0,0.0,0.0,0.0,0.0,0.0,0.0,0.0,0.0,0.0,0.0,0.0,0.0,0.0,0.0,0.0,0.0,0.0,0.0,0.0,0.0,0.0,0.0,0.0,0.0,0.0,0.0,0.0,0.0,0.0,0.0,0.0,0.0,0.0,0.0,0.0,0.0,0.0,0.0,0.0,0.0,0.0,0.0,0.0,0.0,0.0,0.0,0.0,0.0,0.0,0.0,0.0,0.0,0.0,0.0,0.0,0.0,0.0,0.0,0.0,0.0,0.7538,0.7253,0.6112,0.3346,0.2604,0.1294,-0.1223,-0.2602,-0.4255,-0.6475,0.0,0.0,0.0,0.0,0.0,0.0,0.0,0.0,0.0,0.0,0.0,0.0,0.0,0.0,0.0,0.0,0.0,0.0,0.0,0.0,0.0,0.0,0.0,0.0,0.0,0.0,0.0,0.0,0.0,0.0,0.0,0.0,0.0,0.0,0.0,0.0,0.0,0.0,0.0,0.0,0.0,0.0,0.0,0.0,0.0,0.0,0.0,0.0,0.0,0.0,0.0,0.0,0.0,0.0,0.0,0.0,0.0,0.0,0.0,0.0,0.0,0.0,0.0,0.0,0.0,0.0,0.0,0.0,0.0,0.0,0.0,0.0,0.0,0.0,0.0,0.0,0.0,0.0,0.0,0.0,0.0,0.0,0.0,0.0,0.0,0.0,0.0,0.0,0.0,0.0,0.0,0.0,0.0,0.0,0.0,0.0,0.0,0.0,0.0,0.0,0.0,0.0,0.7275,0.6793,0.5549,0.3125,0.2453,0.128,-0.089,-0.2164,-0.3818,-0.6016,0.0,0.0,0.0,0.0,0.0,0.0,0.0,0.0,0.0,0.0,0.0,0.0,0.0,0.0,0.0,0.0,0.0,0.0,0.0,0.0,0.0,0.0,0.0,0.0,0.0,0.0,0.0,0.0,0.0,0.0,0.0,0.0,0.0,0.0,0.0,0.0,0.0,0.0,0.0,0.0,0.0,0.0,0.0,0.0,0.0,0.0,0.0,0.0,0.0,0.0,0.0,0.0,0.0,0.0,0.0,0.0,0.0,0.0,0.0,0.0,0.0,0.0,0.0,0.0,0.0,0.0,0.0,0.0,0.0,0.0,0.0,0.0,0.0,0.0,0.0,0.0,0.0,0.0,0.0,0.0,0.0,0.0,0.0,0.0,0.0,0.0,0.0,0.0,0.0,0.0,0.0,0.0,0.0,0.0,0.0,0.0,0.0,0.0,0.0,0.0,0.0,0.0,0.6532,0.5925,0.4659,0.2508,0.2231,0.1338,-0.0838,-0.1729,-0.3107,-0.5283,0.0,0.0,0.0,0.0,0.0,0.0,0.0,0.0,0.0,0.0,0.0,0.0,0.0,0.0,0.0,0.0,0.0,0.0,0.0,0.0,0.0,0.0,0.0,0.0,0.0,0.0,0.0,0.0,0.0,0.0,0.0,0.0,0.0,0.0,0.0,0.0,0.0,0.0,0.0,0.0,0.0,0.0,0.0,0.0,0.0,0.0,0.0,0.0,0.0,0.0,0.0,0.0,0.0,0.0,0.0,0.0,0.0,0.0,0.0,0.0,-0.8325,0.0,0.0,0.0,0.0,0.0,0.0,0.0,0.0,0.0,0.0,0.0,0.0,0.0,0.0,0.0,0.0,0.0,0.0,0.0,0.0,0.0,0.0,0.0,0.0,0.0,0.0,0.0,0.0,0.0,0.0,0.0,0.0,0.0,0.0,0.0,0.0,0.0,0.0,0.0,0.0,0.0,0.5814,0.5594,0.488,0.323,0.2564,0.156,-0.0111,-0.1448,-0.2891,-0.4532,-0.5862,0.0,0.0,0.0,0.0,0.0,0.0,0.0,0.0,0.0,0.0,0.0,0.0,0.0,0.0,0.0,0.0,0.0,0.0,0.0,0.0,0.0,0.0,0.0,0.0,0.0,0.0,0.0,0.0,0.0,0.0,0.0,0.0,0.0,0.0,0.0,0.0,0.0,0.0,0.0,0.0,0.0,0.0,0.0,0.0,0.0,0.0,0.0,0.0,0.0,0.0,0.0,0.0,0.0,0.0,0.0,0.0,0.0,0.0,0.0,0.0,-0.9092,0.0,0.0,0.0,0.0,0.0,0.0,0.0,0.0,0.0,0.0,0.0,0.0,0.0,0.0,0.0,0.0,0.0,0.0,0.0,0.0,0.0,0.0,0.0,0.0,0.0,0.0,0.0,0.0,0.0,0.0,0.0,0.0,0.0,0.0,0.0,0.0,0.0,0.0,0.0,0.0,0.5431,0.5216,0.4446,0.2953,0.2453,0.1617,0.0112,-0.1339,-0.2669,-0.3817,-0.5255,0.0,0.0,0.0,0.0,0.0,0.0,0.0,0.0,0.0,0.0,0.0,0.0,0.0,0.0,0.0,0.0,0.0,0.0,0.0,0.0,0.0,0.0,0.0,0.0,0.0,0.0,0.0,0.0,0.0,0.0,0.0,0.0,0.0,0.0,0.0,0.0,0.0,0.0,0.0,0.0,0.0,0.0,0.0,0.0,0.0,0.0,0.0,0.0,0.0,0.0,0.0,0.0,0.0,-1.0092,-0.9476,-0.8406,-0.7846,-0.6702,-0.5314,-0.695,-0.8333,-0.9535,-1.0088,0.0,0.0,0.0,0.0,0.0,0.0,0.0,0.0,0.0,0.0,0.0,0.0,0.0,0.0,0.0,0.0,0.0,0.0,0.0,0.0,0.0,0.0,0.0,0.0,-0.1718,-0.2701,0.0,0.0,0.0,0.0,0.0,0.0,0.0,0.0,0.0,0.0,0.0,0.0,0.4772,0.4448,0.3566,0.2175,0.2008,0.1452,0.0112,-0.1341,-0.2449,-0.3046,-0.4594,-0.5708,0.0,0.0,0.0,0.0,0.0,0.0,0.0,0.0,0.0,0.0,0.0,0.0,0.0,0.0,0.0,0.0,0.0,0.0,0.0,0.0,0.0,0.0,0.0,0.0,0.0,0.0,0.0,0.0,0.0,0.0,0.0,0.0,-0.1908,-0.3631,0.0,0.0,0.0,0.0,0.0,0.0,0.0,0.0,0.0,0.0,0.0,0.0,0.0,-0.8565,-0.9648,-1.1822,-1.2338,-1.123,-1.1444,-1.0511,-0.8504,-0.6682,-0.5315,-0.4365,-0.4538,0.0,-0.8172,-0.8637,0.0,0.0,0.0,0.0,0.0,0.0,0.0,0.0,0.0,0.0,0.0,0.0,0.0,0.0,0.0,0.0,0.0,0.0,0.0,0.0,0.0,0.0,-0.0334,-0.1129,-0.1396,-0.1731,0.0,-0.3384,-0.3827,-0.3814,-0.381,0.0,0.0,0.0,0.0,0.0,0.0,0.0,0.2628,0.2563,0.2175,0.1341,0.1229,0.0895,0.0056,-0.1341,-0.223,-0.2339,-0.4325,-0.5273,-0.4791,-0.5878,0.0,0.0,0.0,0.0,0.0,0.0,0.0,0.0,0.0,0.0,0.0,0.0,0.0,0.0,0.0,0.0,0.0,0.0,0.0,0.0,0.0,0.0,0.0,0.0,0.0,0.0,0.0,0.0,0.0,-0.1454,-0.1758,-0.3376,-0.3876,-0.4439,0.0,0.0,0.0,0.0,0.0,0.0,0.0,0.0,0.0,-0.6607,-0.8513,-1.0068,-1.1128,-1.2717,-1.316,-1.2429,-1.2098,-1.0484,-0.7683,-0.6283,-0.4564,-0.2588,-0.3064,-0.3588,-0.4354,-0.6509,-0.7639,-0.7975,0.0,0.0,0.0,0.0,-0.6383,-0.567,-0.567,-0.598,0.0,-0.6171,0.0,0.0,0.0,0.0,0.0,0.0,0.0,0.0,0.0,0.0,-0.0066,-0.046,-0.0583,-0.0836,-0.1697,-0.2092,-0.2607,0.0,-0.3937,-0.364,-0.2843,0.0,0.0,0.0,0.0,0.1245,0.2067,0.2175,0.1898,0.1173,0.1118,0.0615,-0.0503,-0.1563,-0.2397,-0.2788,-0.4171,-0.4787,-0.4519,-0.5119,-0.4948,0.0,0.0,0.0,0.0,0.0,0.0,0.0,0.0,0.0,0.0,0.0,0.0,0.0,0.0,0.0,0.0,0.0,0.0,0.0,0.0,0.0,0.0,0.0,0.0,0.0,0.0,0.0,0.0,-0.0789,-0.1306,-0.3115,-0.3412,-0.4227,0.0,0.0,0.0,0.0,0.0,0.0,-0.6385,-0.7151,-0.772,-0.8129,-1.001,-1.1397,-1.2294,-1.361,-1.3824,-1.3001,-1.2402,-1.0267,-0.6939,-0.5614,-0.3546,-0.0969,-0.1456,-0.1269,-0.0866,-0.4249,-0.5767,-0.6019,-0.6717,-0.661,-0.5988,-0.5988,-0.5573,-0.5025,-0.5025,-0.5613,-0.631,-0.6049,0.0,-0.6209,-0.4384,0.0,0.0,0.0,0.0,0.0,0.0,0.0,0.0,0.0,0.0,-0.0186,-0.0824,-0.0939,-0.1562,0.0,-0.395,-0.3879,-0.3776,0.0,0.0,0.0,0.0,0.0394,0.1509,0.1619,0.1452,0.0895,0.0839,0.028,-0.1006,-0.1786,-0.2509,-0.3231,-0.407,-0.4517,-0.4517,-0.4679,-0.468,-0.4517,0.0,0.0,0.0,0.0,0.0,0.0,0.0,0.0,0.0,0.0,0.0,0.0,0.0,0.0,0.0,0.0,0.0,0.0,0.0,0.0,0.0,0.0,0.0,0.0,0.0,0.0,0.0,0.0,0.0,-0.2434,-0.2757,0.0,0.0,0.0,0.0,-0.8011,-0.8393,-0.8646,-0.8669,-0.8669,-0.927,-1.0393,-1.1375,-1.2301,-1.3053,-1.4904,-1.4605,-1.2238,-1.2307,-1.0322,-0.654,-0.3965,-0.179,0.0,0.0736,0.1139,0.0938,-0.1742,-0.3411,-0.4135,-0.4155,-0.4163,-0.4163,-0.4163,-0.409,-0.4082,-0.4082,-0.4686,-0.5491,-0.5416,-0.4792,-0.3658,-0.1989,-0.1285,0.0,0.0,0.0,0.0,0.0,0.0,0.0,0.0,0.0,0.0,-0.0062,-0.0062,-0.0808,0.0,-0.3836,-0.3762,-0.3625,0.0,-0.2185,-0.1177,-0.0469,0.0,0.0113,0.0112,0.0112,0.0056,0.0056,-0.028,-0.1006,-0.1786,-0.2509,-0.3231,-0.407,-0.4517,-0.4517,-0.5111,-0.5164,-0.4519,-0.5109,0.0,0.0,0.0,0.0,0.0,0.0,0.0,0.0,0.0,0.0,0.0,0.0,0.0,0.0,0.0,0.0,0.0,0.0,0.0,0.0,0.0,0.0,0.0,0.0,0.0,0.0,0.0,0.0,-0.245,-0.2672,0.0,-0.6331,-0.6927,-0.7509,-0.8379,-0.8808,-0.9044,-0.912,-1.0344,-1.1178,-1.1652,-1.289,-1.4045,-1.4883,-1.5318,-1.4668,-1.3088,-1.1976,-0.9472,-0.5646,-0.3089,-0.0582,0.1756,0.1955,0.2109,0.2076,0.0536,-0.0938,-0.235,-0.2949,-0.3149,-0.3141,-0.3135,-0.3155,-0.3277,-0.3802,-0.4217,-0.4485,-0.4485,-0.3456,-0.211,-0.1453,-0.086,-0.033,-0.0065,0.0,0.0,0.0,0.0,0.0,0.0,0.0,0.0,0.0,0.0,-0.0527,-0.2408,-0.2869,-0.3113,-0.353,-0.3756,-0.3301,-0.1372,-0.1308,-0.1076,-0.0112,0.0,0.0,0.0,0.0,-0.0504,-0.173,-0.2064,-0.2509,-0.3288,-0.407,-0.407,-0.3066,-0.3727,-0.3727,-0.301,-0.3282,-0.2387,0.0,0.0,0.0,0.0,0.0,0.0,0.0,0.0,0.0,0.0,0.0,0.0,0.0,0.0,0.0,0.0,0.0,0.0,0.0,0.0,0.0,0.0,0.0,0.0,0.0,0.0,-0.0682,-0.2484,-0.2711,-0.3899,-0.6881,-0.7425,-0.8228,-0.973,-1.0119,-1.0483,-1.0861,-1.2175,-1.2899,-1.2795,-1.397,-1.49,-1.5514,-1.5254,-1.4543,-1.3355,-1.1612,-0.8885,-0.5175,-0.2409,0.0254,0.2656,0.2785,0.2943,0.2928,0.1694,0.0522,-0.059,-0.1799,-0.2201,-0.2243,-0.2214,-0.2209,-0.2342,-0.3248,-0.3586,-0.3513,-0.3189,-0.2278,-0.1238,-0.0978,-0.0457,0.0,0.0,0.0191,0.0379,0.0367,0.0538,0.0703,0.0406,0.0398,0.0282,0.0058,-0.0171,-0.0732,-0.1953,-0.2113,-0.2425,-0.3704,-0.3689,-0.3032,-0.168,-0.1452,-0.1118,-0.0112,0.0,0.0,0.0,0.0,-0.0504,-0.173,-0.1841,-0.2176,-0.2954,-0.3456,-0.3288,-0.2231,-0.2449,-0.2336,-0.1837,-0.1335,-0.05,0.0721,0.0,0.0,0.0,0.0,0.0,0.0,0.0,0.0,0.0,0.0,0.0,0.0,0.0,0.0,0.0,0.0,0.0,0.0,0.0,0.0,0.0,0.0,0.0,0.0402,0.0067,-0.0673,-0.2478,-0.281,-0.4246,-0.7671,-0.8359,-0.9613,-1.2014,-1.2517,-1.3042,-1.3892,-1.4277,-1.4306,-1.39,-1.4475,-1.4712,-1.4689,-1.4795,-1.4219,-1.2944,-1.1185,-0.8544,-0.5175,-0.1769,0.0814,0.2519,0.3314,0.362,0.3501,0.1845,0.1108,0.0929,-0.0659,-0.1257,-0.1227,-0.1262,-0.1294,-0.1473,-0.2396,-0.2705,-0.2521,-0.16,-0.1293,-0.1108,-0.0247,0.0062,0.0062,0.0062,0.0554,0.1159,0.1123,0.164,0.2032,0.1295,0.1118,0.0895,0.0168,-0.056,-0.1285,-0.2008,-0.1563,-0.1786,-0.4015,-0.2621,-0.1396,-0.2009,-0.0951,0.0,0.0,0.0,0.0,0.0,0.0,-0.028,-0.1062,-0.1118,-0.1396,-0.212,-0.2175,-0.2175,-0.212,-0.1444,-0.1053,-0.0998,0.0443,0.1551,0.2268,0.0,0.0,0.0,0.0,0.0,0.0,0.0,0.0,0.0,0.0,0.0,0.0,0.0,0.0,0.0,0.0,0.0,0.0,0.0,0.0,0.0,0.0,0.3271,0.2015,0.1282,0.0069,-0.2415,-0.2763,-0.4157,-0.7657,-0.8281,-0.9489,-1.1995,-1.2517,-1.3042,-1.3892,-1.4635,-1.4779,-1.4086,-1.515,-1.5468,-1.487,-1.452,-1.3623,-1.2012,-1.0368,-0.7689,-0.4251,-0.1552,0.0677,0.2578,0.3838,0.4091,0.3502,0.2519,0.1722,0.0991,0.0,-0.033,-0.0381,-0.0362,-0.1111,-0.2197,-0.2449,-0.2556,-0.2398,-0.16,-0.0862,-0.0185,0.0554,0.0801,0.092,0.1436,0.1723,0.1887,0.1883,0.2036,0.2144,0.1957,0.1507,0.1062,0.0839,0.0224,-0.0504,-0.1285,-0.0783,-0.0839,-0.2564,-0.2731,-0.2231,-0.0839,-0.0727,0.0,-0.0056,0.0,0.0,0.0,0.0,-0.028,-0.1062,-0.1118,-0.1173,-0.1396,-0.1898,-0.173,-0.0671,-0.039,0.0222,0.1279,0.2768,0.3594,0.0,0.0,0.0,0.0,0.0,0.0,0.0,0.0,0.0,0.0,0.0,0.0,0.0,0.0,0.0,0.0,0.0,0.0,0.0,0.0,0.0,0.0,0.3926,0.3859,0.2755,0.187,0.0339,-0.2311,-0.2605,-0.4004,-0.7504,-0.8372,-0.9707,-1.2354,-1.3004,-1.37,-1.4514,-1.5245,-1.5196,-1.414,-1.5088,-1.5106,-1.4127,-1.3746,-1.2745,-1.1067,-0.9318,-0.6866,-0.3798,-0.1082,0.0952,0.0,0.3936,0.4352,0.3897,0.3189,0.2363,0.0,0.0,0.0,0.0,0.0,-0.0616,-0.1462,-0.1442,-0.1465,-0.1361,-0.0889,-0.0178,0.0533,0.0947,0.1301,0.1649,0.2079,0.2411,0.2685,0.2634,0.2899,0.3065,0.2731,0.212,0.1452,0.1173,0.028,-0.056,-0.1006,-0.1006,0.0,-0.1619,-0.1841,-0.1563,-0.0615,-0.056,-0.0504,-0.0056,0.0,0.0,0.0,0.0,-0.0168,-0.0616,-0.0615,0.0,0.0,0.0,-0.0614,0.0839,0.1225,0.0,0.0,0.0,0.0,0.0,0.0,0.0,0.0,0.7139,0.7718,0.0,0.0,0.0,0.0,0.0,0.0,0.0,0.0,0.0,0.0,0.0,0.0,0.0,0.0,0.0,0.0,0.5088,0.4522,0.2985,0.1957,0.0328,-0.2181,-0.2621,-0.4069,-0.7328,-0.8479,-1.0147,-1.2783,-1.3659,-1.4435,-1.5321,0.0,0.0,0.0,0.0,-1.407,-1.2768,-1.2512,-1.1623,-1.0047,-0.8198,-0.5983,-0.3541,-0.0465,0.1376,0.2286,0.3846,0.4517,0.4462,0.3678,0.2899,0.196,0.0526,0.0,0.0,-0.0113,-0.0112,-0.0112,-0.0112,0.0,0.0,0.0056,0.056,0.1118,0.1285,0.1786,0.2342,0.2453,0.2953,0.3456,0.3456,0.3956,0.4294,0.351,0.2731,0.2008,0.1285,0.0,-0.095,-0.095,-0.1507,-0.173,-0.1062,-0.0504,-0.0336,-0.0895,-0.0392,0.0,0.0,0.0,0.0,0.0,0.0,0.0,0.0,0.0,0.0,0.0,0.0056,0.0727,0.212,0.2955,0.4059,0.5487,0.5597,0.598,0.675,0.7453,0.7833,0.7833,0.7833,0.7845,0.0,0.0,0.0,0.0,0.0,0.0,0.0,0.0,0.0,0.0,0.0,0.0,0.0,0.0,0.0,0.6273,0.613,0.5207,0.3569,0.2168,0.0373,-0.2171,-0.352,-0.5102,-0.7168,-0.8584,-1.0275,-1.2668,-1.3003,-1.3755,-1.508,-1.473,-1.3839,-1.2392,-1.304,-1.2768,-1.1326,-1.126,-1.0455,-0.8854,0.0,0.0,-0.2691,-0.0233,0.1376,0.2286,0.3846,0.4517,0.4462,0.3678,0.2564,0.123,0.0339,0.0,-0.0057,-0.0675,-0.0897,-0.0897,-0.0897,-0.0896,-0.0671,0.0503,0.1006,0.1341,0.2509,0.2954,0.0,0.3846,0.4182,0.4293,0.4293,0.4405,0.4294,0.351,0.2731,0.2008,0.1285,0.0392,-0.0224,-0.0224,-0.0336,-0.0392,-0.0224,-0.0616,-0.0727,-0.028,-0.0112,0.0,0.0,0.0,0.0,0.0,0.0,0.0,0.0,0.0,0.0,0.0,0.056,0.1285,0.2175,0.2899,0.4003,0.5487,0.6091,0.6748,0.7506,0.8212,0.859,0.859,0.859,0.8714,0.0,0.0,0.0,0.0,0.0,0.0,0.0,0.0,0.0,0.0,0.0,0.211,0.3595,0.0,0.6002,0.6783,0.664,0.5572,0.3263,0.1285,-0.0641,-0.2683,-0.3876,-0.5408,-0.7533,-0.9047,-1.0602,-1.2231,-1.3059,-1.3795,-1.4556,-1.3961,-1.3073,-1.1946,-1.2359,-1.1863,-1.0293,-1.0225,-0.9336,-0.7802,-0.5706,-0.3918,-0.2288,0.0342,0.1809,0.2286,0.3456,0.4182,0.4462,0.3678,0.2732,0.1563,0.0839,0.0336,-0.0056,-0.0393,-0.0561,-0.0561,-0.0561,-0.028,0.0112,0.0838,0.1618,0.2342,0.3121,0.3623,0.3958,0.4405,0.4517,0.4517,0.4517,0.4517,0.4294,0.351,0.2731,0.2008,0.1285,0.0504,0.0,0.0,0.0,0.0,0.0,-0.028,-0.0448,-0.0056,0.0,0.0,0.0,0.0,0.0,0.0,0.0,0.0,0.0,0.0,0.0,0.0,0.1062,0.1841,0.2175,0.3288,0.4395,0.5485,0.6202,0.6966,0.7723,0.8427,0.8808,0.8808,0.8808,0.8888,0.0,0.0,0.0,0.0,0.0,0.0,0.0,0.0,0.0268,0.1124,0.2224,0.3456,0.4932,0.6601,0.777,0.7799,0.7563,0.6293,0.3186,0.0553,-0.1757,-0.3568,-0.4628,-0.6014,-0.8075,-0.9724,-1.1006,-1.181,-1.2993,-1.3714,-1.382,-1.3065,-1.2299,-1.1524,-1.1595,-1.0948,-0.9512,-0.9232,-0.8325,-0.678,-0.4418,-0.2772,-0.1671,0.1002,0.2286,0.2453,0.3121,0.3624,0.4013,0.34,0.2676,0.1953,0.1341,0.0671,0.0,0.0,0.0,0.0,0.0,0.0504,0.1118,0.1285,0.2231,0.3345,0.3566,0.4013,0.4517,0.4517,0.4517,0.4517,0.4517,0.4517,0.4294,0.351,0.2731,0.2008,0.1285,0.0504,0.0,0.0,0.0,0.0,0.0,0.0,0.0,0.0,0.0,0.0,0.0,0.0,0.0,0.0,0.0,0.0,0.0,0.0,0.0,0.0,0.1229,0.2064,0.2175,0.3676,0.4891,0.5708,0.6421,0.7182,0.794,0.8537,0.8808,0.8808,0.8808,0.8808,-0.7923,-0.5218,-0.3094,-0.1463,-0.1531,-0.16,0.0,0.0,0.0387,0.1763,0.4121,0.638,0.7798,0.9718,1.1062,1.1132,1.0136,0.8083,0.46,0.1122,-0.217,-0.5259,-0.7169,-0.8349,-0.8626,-1.0486,-1.1678,-1.1737,-1.1927,-1.2294,-1.2925,-1.1735,-1.0736,-1.0075,-1.0027,-0.9671,-0.8905,-0.8208,-0.7139,-0.5645,-0.4089,-0.2215,-0.0167,0.1448,0.2564,0.3176,0.3343,0.3066,0.2453,0.2342,0.1897,0.1229,0.1118,0.0671,0.0,0.0,0.0,0.0,0.0,0.0504,0.1229,0.1841,0.2675,0.3512,0.4182,0.4462,0.4517,0.4517,0.4517,0.4517,0.4517,0.4517,0.4294,0.351,0.2731,0.2008,0.1285,0.0504,0.0,0.0,0.0,0.0,0.0,0.0,0.0,0.0,0.0,0.0,0.0,0.0,0.0,0.0,0.0,0.0,0.0,0.0,0.0,0.0,0.0783,0.1507,0.2175,0.3606,0.5037,0.6423,0.7182,0.7937,0.8695,0.8752,0.8808,0.8808,0.8808,0.8808,-0.5079,-0.3109,-0.1877,0.0,-0.0988,-0.1396,-0.0783,-0.0335,0.0608,0.2866,0.5246,0.7668,0.9876,1.1681,1.2699,0.0,1.1124,0.8816,0.4744,0.077,-0.317,-0.7089,-0.7844,-0.8327,-0.8947,-0.961,-1.0006,-0.9944,-1.0355,-1.0541,-1.0404,-0.9464,-0.8815,-0.8515,-0.8165,-0.7812,-0.7506,-0.6794,-0.5907,-0.4856,-0.3379,-0.1722,0.0056,0.1504,0.262,0.3345,0.34,0.2954,0.2175,0.2175,0.1786,0.1118,0.1118,0.0671,0.0,0.0,0.0,0.0056,0.0504,0.0839,0.1285,0.2453,0.3121,0.3512,0.4293,0.4517,0.4517,0.4517,0.4517,0.4517,0.4517,0.4517,0.4294,0.351,0.2731,0.2008,0.1285,0.0504,0.0,0.0,0.0,0.0,0.0,0.0,0.0,0.0,0.0,0.0,0.0,0.0,0.0,0.0,0.0,0.0,0.0,0.0,0.0,0.0,0.0671,0.1452,0.2175,0.3604,0.4869,0.5925,0.7122,0.7833,0.8156,0.859,0.9008,0.9361,0.9361,0.9614,-0.2691,-0.1585,0.0,-0.0157,-0.0806,-0.1539,-0.1145,-0.0379,0.1064,0.3981,0.6892,0.9719,1.2253,1.4111,1.4892,1.3863,1.2607,1.0045,0.5077,0.1107,-0.287,-0.712,-0.7061,-0.6935,-0.7623,-0.775,-0.7859,-0.8066,-0.8348,-0.8381,-0.813,-0.7195,-0.6727,-0.6727,-0.644,-0.6298,-0.6298,-0.5756,-0.5037,-0.4092,-0.2609,-0.1001,0.0668,0.2171,0.3066,0.34,0.3177,0.2621,0.1897,0.1675,0.1285,0.0783,0.0783,0.0448,0.0,0.0,0.0,0.0112,0.0839,0.1229,0.1619,0.2899,0.3511,0.379,0.4349,0.4517,0.4517,0.4517,0.4517,0.4517,0.4517,0.4517,0.4349,0.3789,0.3065,0.2342,0.1563,0.0839,0.0224,0.0056,0.0,0.0,0.0,0.0168,0.0224,0.0056,0.0168,0.0224,0.0,0.0,0.0,0.0,-0.0168,-0.028,-0.028,-0.028,-0.028,-0.028,0.0392,0.1118,0.1841,0.3327,0.4534,0.5475,0.6953,0.788,0.8299,0.884,0.9413,1.0064,1.0064,1.0364,-0.1378,0.0,-0.0894,0.0,-0.1446,-0.2688,-0.1223,0.0,0.1798,0.5079,0.9562,1.3455,1.5239,1.7474,1.8421,1.6576,1.5219,1.2197,0.5944,0.2713,-0.0462,-0.4426,-0.4587,-0.4265,0.0,-0.4813,-0.5718,-0.6526,-0.5924,-0.5812,-0.6534,-0.5251,-0.4499,-0.4499,-0.5165,-0.5554,-0.5554,-0.5525,-0.476,-0.3318,-0.1828,0.0,0.2175,0.3735,0.407,0.3345,0.2564,0.1842,0.1062,0.0336,0.0056,0.0056,0.0056,0.0,0.0,0.0,0.0,0.0112,0.0839,0.1563,0.2286,0.3122,0.3903,0.4462,0.4517,0.4517,0.4517,0.4517,0.4517,0.4517,0.4517,0.4517,0.4517,0.4462,0.3901,0.3122,0.2342,0.1563,0.0839,0.0112,0.0,0.0,0.0,0.0616,0.0839,0.0112,0.0615,0.0783,0.0112,0.0,0.0,0.0,-0.0615,-0.1062,-0.1062,-0.1062,-0.1062,-0.1062,-0.0392,0.0392,0.1118,0.2552,0.4027,0.55,0.694,0.8349,0.9762,0.9762,1.0111,1.0767,1.0767,1.0767,-0.0947,0.0,-0.1473,-0.12,-0.2377,-0.3307,-0.2417,-0.1543,0.0514,0.5578,0.91,1.2525,1.6439,1.8202,1.8616,1.7167,1.5415,1.2402,0.717,0.336,-0.0304,-0.4007,-0.3997,0.0,0.0,0.0,0.0,-0.2158,-0.1943,-0.1729,-0.1462,-0.1476,-0.1484,-0.1484,-0.2204,-0.2593,-0.2593,-0.2597,-0.2103,-0.1053,0.1379,0.2928,0.3714,0.4716,0.505,0.4718,0.345,0.2509,0.1786,0.1006,0.0448,0.0,0.0,0.0,-0.0056,-0.056,-0.0727,-0.0559,0.0671,0.095,0.1006,0.2787,0.2842,0.2509,0.4015,0.4125,0.379,0.4349,0.4517,0.4517,0.4517,0.4517,0.4517,0.4517,0.3958,0.3177,0.2398,0.1619,0.0895,0.0168,0.0,0.0168,0.0671,0.095,0.1006,0.0783,0.0504,0.028,0.0056,0.0,0.0,0.0,-0.0671,-0.1118,-0.1118,-0.1563,-0.1619,-0.1118,-0.0895,-0.0168,0.1062,0.2496,0.3757,0.4747,0.6725,0.8134,0.9058,0.9547,1.0364,1.1462,1.1462,1.1953,-0.0715,-0.1682,-0.2655,-0.2615,-0.3729,-0.4753,-0.4523,-0.4051,-0.2033,0.3647,0.7367,1.1164,1.6271,1.8659,1.9414,1.8003,1.6277,1.3383,0.851,0.4824,0.1284,-0.2342,-0.2612,-0.2382,0.0,0.0,0.0,0.0758,0.1247,0.179,0.2224,0.1805,0.1594,0.1594,0.0606,0.0055,0.0055,-0.0165,0.0331,0.16,0.3749,0.4914,0.5198,0.5427,0.5485,0.5429,0.3947,0.2899,0.212,0.1396,0.0671,0.0,0.0,0.0,-0.0056,-0.056,-0.0727,-0.0615,0.0056,0.0167,0.0335,0.2279,0.2282,0.1841,0.3901,0.3958,0.3511,0.4294,0.4517,0.4517,0.4517,0.4517,0.4517,0.4517,0.4125,0.3512,0.2453,0.1841,0.1173,0.0168,0.0,0.0224,0.095,0.1341,0.1563,0.1841,0.1006,0.028,0.0056,0.0,0.0,0.0,-0.0895,-0.1507,-0.1507,-0.2175,-0.2286,-0.1563,-0.1229,-0.0559,0.0671,0.1891,0.2992,0.3983,0.5896,0.752,0.8678,0.9688,1.0859,1.2146,1.2395,1.3082,-0.0789,-0.2407,-0.4324,-0.4258,-0.5454,-0.6807,-0.726,-0.7221,-0.5506,-0.0042,0.4789,0.9706,1.5148,0.0,2.0814,1.9124,1.7766,1.5127,0.9955,0.7015,0.4065,0.0,0.0,0.0,0.0,0.0,0.0,0.2385,0.0,0.4581,0.4572,0.4574,0.4553,0.4553,0.3126,0.236,0.236,0.1695,0.2401,0.4539,0.5269,0.5952,0.6586,0.5925,0.5594,0.5431,0.4116,0.3066,0.2176,0.1452,0.0671,0.0,0.0,0.0,0.0,-0.0112,-0.0112,-0.0168,-0.0945,-0.0666,0.0222,0.1662,0.2166,0.2453,0.4013,0.3959,0.3568,0.4294,0.4517,0.4517,0.4517,0.4517,0.4517,0.4517,0.4517,0.407,0.2509,0.2175,0.1786,0.028,0.0056,0.0336,0.1062,0.1786,0.2564,0.3177,0.2064,0.0895,0.0168,0.0,0.0,0.0,-0.1285,-0.2175,-0.2175,-0.2954,-0.3066,-0.2231,-0.1563,-0.0783,-0.0056,0.0727,0.1781,0.3154,0.468,0.6464,0.8567,1.0029,1.1444,1.2817,1.3474,1.4143,-0.2809,-0.4336,-0.5942,-0.6005,-0.6809,-0.7694,-0.8227,-0.8776,-0.6788,0.1818,0.4765,0.8356,1.6699,0.0,0.0,1.9454,1.8168,0.0,1.1766,0.8707,0.0,0.204,0.0,-0.0223,0.0,0.1981,0.0,0.0,0.6243,0.7236,0.8242,0.7339,0.678,0.678,0.5425,0.4667,0.4667,0.4495,0.4938,0.6067,0.6779,0.6953,0.6588,0.6961,0.6519,0.5487,0.5342,0.4346,0.2737,0.1788,0.0839,0.0,0.0,0.0,-0.0112,-0.1229,-0.1285,-0.1006,-0.2283,-0.156,0.0168,0.1055,0.1391,0.1786,0.3847,0.3958,0.3511,0.4294,0.4517,0.4517,0.4517,0.4517,0.4517,0.4517,0.4517,0.407,0.2509,0.2175,0.1786,0.028,0.0895,0.1675,0.1897,0.301,0.3789,0.3345,0.2509,0.1675,0.0895,0.0336,0.0,0.0,-0.0839,-0.1618,-0.2174,-0.2899,-0.301,-0.2231,-0.2008,-0.1341,-0.0056,0.0727,0.1284,0.1671,0.3652,0.5491,0.708,0.904,1.0956,1.2817,1.3474,1.4578,-0.4793,-0.6275,-0.7798,-0.789,-0.9001,-1.029,-1.1167,-1.1755,-0.9619,-0.0867,0.281,0.0,1.6346,2.0009,0.0,0.0,0.0,0.0,1.3884,1.1148,0.8434,0.0,0.3659,0.0,0.2698,0.4123,0.5695,0.0,0.8099,0.9186,1.0562,0.9585,0.8871,0.857,0.7488,0.6745,0.6494,0.644,0.6827,0.7563,0.7993,0.794,0.7563,0.7676,0.7069,0.5964,0.0,0.4807,0.291,0.1899,0.0894,0.0,0.0,0.0,-0.0112,-0.0951,-0.095,-0.0783,-0.1953,-0.1116,0.0559,0.0945,0.1113,0.1507,0.379,0.3958,0.351,0.4617,0.4734,0.4572,0.484,0.4732,0.4517,0.4517,0.4517,0.407,0.2509,0.2175,0.1786,0.028,0.1173,0.2175,0.2175,0.3456,0.4349,0.3901,0.2899,0.2064,0.1619,0.0671,0.0,0.0,-0.0671,-0.1285,-0.1675,-0.2732,-0.301,-0.2231,-0.2175,-0.1675,-0.0504,0.0224,0.0783,0.1118,0.2938,0.4465,0.5591,0.8044,1.0179,1.1925,1.3185,1.4727,-0.6832,-0.8222,-0.9686,-0.9814,-1.1397,-1.3252,-1.4548,-1.4763,-1.2484,-0.4695,0.0,0.6542,1.5515,1.9991,2.221,2.1945,0.0,1.9272,1.6376,1.4258,1.2099,0.9672,0.8056,0.7094,0.699,0.7524,0.8237,0.9029,0.9864,1.0805,1.2003,1.1408,1.0712,0.9965,0.9315,0.8636,0.7984,0.8087,0.8359,0.8808,0.8906,0.8854,0.8646,0.8118,0.7343,0.6497,0.6135,0.0,0.3084,0.1842,0.0782,0.0,0.0,0.0,0.0,-0.0112,-0.0056,-0.0112,-0.0839,-0.0112,0.1117,0.1111,0.1224,0.1786,0.3847,0.4013,0.3729,0.5101,0.5056,0.4789,0.549,0.522,0.4789,0.4789,0.468,0.4233,0.2672,0.2119,0.1507,0.0224,0.1173,0.2175,0.2175,0.3456,0.4517,0.4517,0.3176,0.2175,0.2175,0.0895,0.0,0.0,-0.056,-0.1006,-0.1118,-0.2399,-0.2954,-0.2231,-0.2286,-0.1953,-0.1118,-0.0504,0.0224,0.095,0.2332,0.3431,0.4258,0.7055,0.9199,1.0735,1.269,1.4608,-0.952,-1.0265,-1.1068,-1.1546,-1.2605,-1.3797,-1.4747,-1.453,0.0,0.0,0.2148,0.7442,1.7236,2.0826,2.2316,2.2363,0.0,0.0,0.0,0.0,1.6056,0.0,0.0,0.0,0.0,0.0,0.0,0.0,0.0,1.3137,1.3426,1.2827,1.189,1.0665,1.0505,1.01,0.9451,0.9997,0.9755,0.8808,0.9361,0.9037,0.7883,0.8374,0.767,0.6043,0.6339,0.0,0.4032,0.1342,0.0168,0.0,0.0,0.0,-0.0056,-0.0671,-0.0504,-0.0112,-0.0839,-0.0112,0.1117,0.1111,0.1944,0.3121,0.4182,0.4406,0.4457,0.5269,0.5433,0.549,0.6202,0.6315,0.6263,0.6263,0.5764,0.4933,0.3432,0.167,0.028,0.0056,0.1173,0.2175,0.2175,0.3456,0.4517,0.4517,0.3176,0.2175,0.2175,0.0895,0.0,0.0,-0.0112,-0.0448,-0.1062,-0.1898,-0.2342,-0.2231,-0.2787,-0.2509,-0.1173,-0.095,-0.0559,0.0168,0.1061,0.2168,0.3483,0.5793,0.8206,1.0735,1.2231,1.419,-1.152,-1.2226,-1.2873,-1.3599,-1.4564,-1.5393,-1.5542,0.0,0.0,0.0,0.3615,0.9406,1.7887,2.144,0.0,0.0,0.0,0.0,0.0,0.0,0.0,0.0,0.0,0.0,0.0,0.0,0.0,0.0,0.0,1.5492,1.4324,1.3353,1.2527,1.1841,1.0969,1.0308,1.001,0.9824,0.9775,0.9851,0.9475,0.894,0.8268,0.8639,0.8035,0.6704,0.7414,0.0,0.4317,0.2068,0.0671,0.0,0.0,0.0,-0.0056,-0.0392,-0.028,-0.0056,-0.0392,0.0447,0.1674,0.167,0.2449,0.3511,0.4293,0.4517,0.4734,0.5764,0.5817,0.576,0.6856,0.6912,0.6477,0.6093,0.4876,0.3609,0.2888,0.1283,0.0,0.0,0.0895,0.173,0.212,0.2788,0.3456,0.379,0.2621,0.1619,0.1619,0.0671,0.0,0.0,0.0,-0.0168,-0.0504,-0.1229,-0.1786,-0.2175,-0.2509,-0.2564,-0.223,-0.1507,-0.0951,-0.056,0.0503,0.1617,0.2722,0.4515,0.6698,0.9123,1.0901,1.289,-1.3327,-1.4086,-1.4568,-1.5261,-1.6202,-1.6791,-1.6168,-1.375,0.0,0.0,0.4923,1.1316,1.8311,0.0,2.3896,0.0,2.4026,0.0,0.0,0.0,0.0,0.0,0.0,0.0,0.0,0.0,0.0,0.0,0.0,0.0,1.518,1.3996,1.329,1.3019,1.1684,1.0814,1.0467,0.9957,1.0089,1.0939,0.9871,0.9234,0.9012,0.9001,0.834,0.7249,0.8018,0.0,0.0,0.3187,0.162,0.0,0.0,0.0,0.0,0.0,0.0,0.0,0.0,0.095,0.223,0.2394,0.3007,0.3789,0.451,0.4734,0.5007,0.6423,0.6416,0.6303,0.7613,0.7506,0.6856,0.5925,0.4155,0.2558,0.2285,0.1062,0.0,0.0,0.0616,0.1285,0.1841,0.212,0.2398,0.2954,0.1953,0.1118,0.1118,0.0448,0.0,0.0,0.0,0.0,0.0,-0.0671,-0.1341,-0.1953,-0.2286,-0.262,-0.3065,-0.1953,-0.1285,-0.1118,0.0168,0.1285,0.2231,0.3549,0.5337,0.7656,0.9435,1.142,-1.5268,-1.5823,-1.574,-1.582,-1.6512,-1.6927,-1.5955,0.0,0.0,-0.0604,0.5887,1.2165,1.9051,2.2221,2.3896,0.0,0.0,2.5089,0.0,0.0,0.0,0.0,0.0,0.0,0.0,0.0,0.0,0.0,0.0,0.0,1.6299,1.5652,1.4852,1.3716,1.3564,1.2807,1.1396,1.215,1.2175,1.1455,1.1299,1.0709,0.9718,0.9731,0.8595,0.6699,0.6784,0.0,0.0,0.4373,0.2569,0.0,0.0,0.0,0.0,0.0,0.0,0.0,0.0,0.095,0.2285,0.2994,0.372,0.4513,0.5216,0.5433,0.5706,0.7176,0.756,0.7667,0.848,0.8643,0.8262,0.6856,0.5345,0.3857,0.2503,0.1062,0.0,0.0,0.0616,0.1118,0.1173,0.173,0.2231,0.2286,0.1619,0.1118,0.1118,0.0448,0.0,0.0,0.0,0.0,0.0,-0.0671,-0.1118,-0.1173,-0.2453,-0.2953,-0.2342,-0.2175,-0.1786,-0.1118,-0.0336,0.0783,0.2175,0.2994,0.4837,0.7603,0.8505,1.0339,-1.5146,-1.5965,-1.5834,-1.661,-1.7149,-1.7148,-1.5818,0.0,-0.8028,-0.0159,0.6552,1.2871,1.8874,2.2245,2.4196,2.4508,2.4741,2.5011,2.5385,0.0,0.0,0.0,0.0,0.0,0.0,0.0,0.0,0.0,0.0,0.0,1.7939,1.6754,1.5696,1.4909,1.4324,1.3455,1.2334,1.273,1.2715,1.2353,1.2363,1.1527,1.0003,0.9474,0.8432,0.6998,0.5864,0.0,0.0,0.318,0.2007,0.0835,0.0224,0.0,0.0,0.0,0.0,0.0056,0.0504,0.1341,0.2396,0.36,0.4488,0.522,0.5928,0.6147,0.6364,0.7396,0.7723,0.7883,0.859,0.848,0.7883,0.6858,0.5467,0.3978,0.2505,0.1396,0.0504,0.0112,0.0616,0.1118,0.1118,0.1341,0.1563,0.1563,0.0895,0.0448,0.0448,0.0168,0.0,0.0,0.0,0.0,0.0,-0.0671,-0.1285,-0.173,-0.2787,-0.3456,-0.3568,-0.2676,-0.2064,-0.1786,-0.0616,0.0727,0.2175,0.2504,0.4146,0.6993,0.7723,0.9324,-1.5623,-1.6836,-1.6568,-1.7409,-1.7873,-1.7684,0.0,-1.2798,-0.7938,0.0211,0.7102,1.3359,1.8882,2.2316,2.4377,2.4588,2.4632,2.4789,2.5133,2.4839,0.0,0.0,0.0,0.0,0.0,0.0,0.0,0.0,0.0,0.0,0.0,1.7464,1.6434,1.5866,1.5017,1.422,1.3624,1.3489,1.345,1.3445,1.3052,1.2101,1.0545,0.965,0.8531,0.729,0.5634,0.0,0.0,0.2505,0.1615,0.1393,0.0392,0.0,0.0,-0.0224,-0.0168,0.0056,0.0335,0.1228,0.245,0.3925,0.5031,0.598,0.6964,0.7074,0.7074,0.7833,0.8146,0.8458,0.8949,0.8732,0.8031,0.6853,0.5636,0.4257,0.256,0.1619,0.095,0.0448,0.0727,0.1118,0.1118,0.1118,0.1006,0.0783,0.0336,0.0,0.0,0.0,0.0,0.0,0.0,0.0,0.0,-0.0671,-0.1341,-0.1841,-0.2621,-0.3289,-0.379,-0.2564,-0.1897,-0.1897,-0.0615,0.0615,0.1897,0.212,0.3606,0.6296,0.6985,0.8557,-1.7321,-1.9033,-1.841,-1.815,-1.8644,-1.8593,-1.6308,-1.3337,-0.8509,0.0628,0.7501,1.365,1.9335,2.2532,2.4286,2.4228,2.4254,2.4616,2.5475,2.5312,0.0,0.0,0.0,0.0,0.0,0.0,0.0,0.0,0.0,0.0,0.0,1.786,1.7024,1.6426,1.5869,1.5465,1.5299,1.4897,1.467,1.4655,1.3491,1.2406,1.145,1.0574,0.919,0.0,0.0,0.0,0.0,0.2842,0.1895,0.1393,0.0392,0.0,-0.0112,-0.0839,-0.0615,-0.0112,-0.0839,0.0335,0.2449,0.3908,0.5398,0.6858,0.8318,0.8265,0.783,0.859,0.926,0.9762,0.9766,0.9762,0.9232,0.712,0.6013,0.4901,0.2669,0.1619,0.1118,0.1118,0.1118,0.1118,0.1118,0.1118,0.0839,0.0112,0.0,0.0,0.0,0.0,0.0,0.0,0.0,0.0,0.0,-0.0671,-0.1118,-0.1118,-0.1786,-0.2231,-0.2231,-0.1507,-0.1118,-0.1118,-0.0392,0.0392,0.1118,0.1841,0.3326,0.5554,0.6242,0.8106,-1.7333,-1.8789,-1.7903,-1.7728,-1.8856,-1.9388,-1.6973,-1.4929,-1.0605,-0.0234,0.5945,1.1896,1.978,2.2611,2.3954,2.458,2.4573,0.0,0.0,0.0,0.0,0.0,0.0,0.0,0.0,0.0,0.0,0.0,0.0,0.0,0.0,1.7679,1.7193,1.7009,1.6508,1.6182,1.6113,1.5971,1.5369,1.4291,1.3895,1.2959,1.1501,1.1196,0.9728,0.0,0.0,0.0,0.0,0.3457,0.262,0.1839,0.0502,-0.0335,-0.0839,-0.1563,-0.173,-0.1451,-0.1169,-0.0334,0.1,0.3024,0.4669,0.6115,0.7605,0.8262,0.8583,0.9309,0.9965,1.0364,0.9913,0.9814,0.9395,0.7765,0.6791,0.5801,0.4097,0.3112,0.2453,0.1953,0.2286,0.2453,0.1953,0.1841,0.1618,0.0839,0.0336,0.0,0.0,0.0,0.0,0.0,0.0,0.0,0.0,-0.1118,-0.1841,-0.1841,-0.3066,-0.3566,-0.3066,-0.2287,-0.1841,-0.1841,-0.1118,-0.0614,-0.0389,0.0833,0.3096,0.6293,0.8459,0.9927,-1.9129,-2.0381,-1.9501,-1.9059,-1.9965,-2.0345,-1.7961,-1.6232,-1.237,-0.2554,0.3486,0.9314,1.7066,2.0474,2.229,2.2994,2.3336,0.0,0.0,0.0,0.0,0.0,0.0,0.0,0.0,0.0,0.0,0.0,0.0,0.0,0.0,1.7605,1.7282,1.7282,1.6786,1.6515,1.6515,1.6515,1.582,1.4562,1.3384,1.2229,1.1015,1.064,0.9365,0.0,0.0,0.0,0.0,0.357,0.2844,0.2007,0.0278,-0.0669,-0.1285,-0.2559,-0.2834,-0.2611,-0.2381,-0.1659,-0.0442,0.1758,0.4058,0.6206,0.7635,0.8616,0.9364,1.0312,1.0864,1.1015,1.0364,1.0163,0.9751,0.8087,0.7345,0.6627,0.513,0.4479,0.3935,0.3166,0.339,0.3502,0.273,0.2398,0.1953,0.1229,0.0448,0.0,0.0,0.0,0.0,0.0,0.0,-0.0112,-0.0392,-0.1507,-0.2175,-0.2175,-0.34,-0.3847,-0.34,-0.262,-0.2175,-0.2175,-0.173,-0.1394,-0.1113,0.0941,0.3534,0.6642,0.919,1.0539,0.0,-2.2992,-2.2313,-2.1208,-2.1317,-2.1068,-1.877,-1.7015,0.0,-0.5492,0.0544,0.621,1.2225,1.6603,1.9468,1.9941,0.0,0.0,0.0,0.0,0.0,0.0,0.0,0.0,0.0,0.0,0.0,0.0,0.0,0.0,0.0,1.7564,1.7292,1.7282,1.6799,1.6515,1.6515,1.6515,1.6081,1.5228,1.2383,1.068,1.0038,0.9178,0.8234,0.0,0.0,0.0,0.0,0.3407,0.2679,0.1895,-0.0279,-0.1173,-0.1507,-0.3656,-0.4036,-0.3539,-0.4313,-0.3636,-0.203,0.0275,0.3448,0.6635,0.8187,0.9214,1.0167,1.1462,1.1814,1.1665,1.0965,1.0767,1.0254,0.8243,0.7723,0.7329,0.5941,0.561,0.5398,0.4698,0.4535,0.4265,0.3562,0.273,0.1953,0.1285,0.0504,0.0,0.0,0.0,0.0,0.0,0.0,-0.028,-0.095,-0.173,-0.2231,-0.2286,-0.301,-0.34,-0.3288,-0.262,-0.2286,-0.2286,-0.2286,-0.1896,-0.1117,0.1826,0.4363,0.6581,0.8704,1.0109,-2.1159,0.0,-1.9879,-1.7891,-1.8434,-1.8623,0.0,-1.4999,-1.2812,-0.3991,0.0088,0.426,1.1411,1.4352,1.6218,1.782,0.0,0.0,0.0,0.0,0.0,0.0,0.0,0.0,0.0,0.0,0.0,0.0,0.0,0.0,0.0,1.7378,1.7313,1.7287,1.6763,1.6515,1.6515,1.6515,1.5934,1.4829,1.3592,1.1612,0.9058,0.8844,0.7412,0.0,0.0,0.0,0.4406,0.3569,0.2503,0.1221,-0.0444,-0.178,-0.3007,-0.4657,-0.5148,-0.5091,-0.581,-0.5512,-0.4163,-0.0817,0.1963,0.4541,0.7069,0.9106,1.0767,1.1566,1.1814,1.1665,1.0965,1.0415,0.9762,0.8791,0.8103,0.761,0.7272,0.6732,0.63,0.614,0.5645,0.5208,0.4992,0.3446,0.212,0.1953,0.0839,0.0,0.0,0.0,0.0,0.0,0.0,-0.0056,-0.0224,-0.1452,-0.2453,-0.301,-0.379,-0.3958,-0.3343,-0.3177,-0.3122,-0.3122,-0.3122,-0.2449,-0.1111,0.1322,0.3571,0.5835,0.8466,1.0109,-1.9031,-1.9265,-1.9173,-1.6787,-1.6781,-1.6712,-1.4222,-1.3959,-1.2301,-0.5521,0.0,0.1724,0.7652,1.1041,0.0,0.0,0.0,0.0,0.0,0.0,0.0,0.0,0.0,0.0,0.0,0.0,0.0,0.0,0.0,0.0,0.0,1.7317,1.7237,1.6504,1.6423,1.6456,1.6515,1.6237,1.5626,1.4688,1.3388,1.1694,0.9631,0.8093,0.6568,0.0,0.0,0.0,0.4406,0.3007,0.1946,0.0943,-0.0888,-0.2337,-0.351,-0.4992,-0.5706,-0.6036,-0.6477,-0.591,-0.4622,-0.2291,0.0436,0.3284,0.5797,0.8111,1.0029,1.1057,1.1362,1.1166,1.0517,1.0064,0.961,0.8959,0.848,0.8209,0.8209,0.7886,0.7506,0.7182,0.6797,0.6303,0.5651,0.399,0.2612,0.223,0.095,0.0,0.0,0.0,0.0112,0.0448,0.0504,0.0392,0.0056,-0.1058,-0.2167,-0.322,-0.4335,-0.4889,-0.4827,-0.4827,-0.4718,-0.439,-0.3341,-0.228,-0.1109,0.1105,0.3363,0.555,0.7732,0.9334,-1.6264,-1.6874,-1.7425,-1.5461,-1.4827,-1.431,-1.2866,0.0,0.0,0.0,0.0,0.0,0.3322,0.7555,0.0,0.0,0.0,0.0,0.0,0.0,0.0,0.0,0.0,0.0,0.0,0.0,0.0,0.0,0.0,0.0,0.0,1.7302,1.7025,1.5643,1.5841,1.606,1.6223,1.5819,1.5233,1.4536,1.2637,1.131,1.0508,0.752,0.6057,0.5784,0.0,0.0,0.4349,0.2394,0.1334,0.072,-0.1391,-0.2787,-0.3732,-0.5048,-0.5982,-0.6642,-0.6858,-0.6023,-0.4747,-0.3901,-0.1202,0.2132,0.4379,0.6614,0.8678,1.0096,1.0568,1.0517,0.9965,0.9714,0.9514,0.8959,0.8808,0.8808,0.8808,0.8808,0.859,0.783,0.7723,0.7233,0.5817,0.4426,0.3158,0.234,0.1062,0.0112,0.0,0.0112,0.0392,0.1006,0.1173,0.0949,0.0223,-0.0721,-0.1934,-0.3527,-0.4916,-0.5973,-0.674,-0.6632,-0.6251,-0.5542,-0.3335,-0.1893,-0.1276,0.1056,0.3269,0.5385,0.6897,0.8459,-1.3559,-1.0966,-0.9,-0.9357,-0.9519,-0.9141,-0.7185,-0.7642,0.0,0.0,0.0,0.0,0.0,0.548,0.0,0.0,0.0,0.0,0.0,0.0,0.0,0.0,0.0,0.0,0.0,0.0,0.0,0.0,0.0,0.0,0.0,1.7181,1.639,1.6116,1.5024,1.4636,1.5063,1.5435,1.5028,1.3925,1.24,1.1044,0.9792,0.8184,0.6737,0.5548,0.0,0.5001,0.4349,0.273,0.1333,0.0,-0.1557,-0.3065,-0.4403,-0.5216,-0.5982,-0.6804,-0.8046,-0.7877,-0.6945,-0.5608,-0.3113,-0.0054,0.2768,0.5193,0.7227,0.8679,0.9514,0.9917,0.9814,0.9361,0.891,0.8808,0.8808,0.8808,0.8808,0.8808,0.859,0.783,0.7723,0.7233,0.5758,0.4814,0.3766,0.2396,0.1452,0.0727,0.0056,0.056,0.095,0.1062,0.1675,0.1729,0.1005,-0.0884,-0.2902,-0.4956,-0.5916,-0.6758,-0.7399,-0.6919,-0.623,-0.5542,-0.3335,-0.2118,-0.2005,0.0835,0.2994,0.4611,0.6673,0.8707,-1.2872,-0.9479,-0.6134,-0.4072,-0.4591,-0.5335,-0.4501,-0.5106,0.0,0.0,0.0,0.0,0.0,0.0,0.0,0.0,0.0,0.0,0.0,0.0,0.0,0.0,0.0,0.0,0.0,0.0,0.0,0.0,0.0,0.0,0.0,0.0,1.6052,1.5319,1.4661,1.3676,1.2333,1.3442,1.3959,1.3777,1.1688,1.053,1.0219,0.8488,0.7322,0.6621,0.0,0.5324,0.4891,0.3006,0.1556,0.0387,-0.1446,-0.2899,-0.4012,-0.5105,-0.5982,-0.675,-0.783,-0.7993,-0.7501,-0.6453,-0.3831,-0.0599,0.1955,0.4541,0.6912,0.8371,0.9008,0.926,0.926,0.9008,0.8808,0.8808,0.8808,0.8699,0.8318,0.8209,0.7993,0.7235,0.7128,0.6743,0.5703,0.4873,0.4045,0.3007,0.1841,0.095,0.0615,0.056,0.0783,0.1619,0.1619,0.1619,0.1675,-0.0717,-0.3604,-0.6961,-0.826,-0.9016,-0.9338,-0.7914,-0.6969,-0.6653,-0.371,-0.2175,-0.2175,0.0334,0.2388,0.3855,0.5649,0.7438,-1.1987,-0.813,-0.3917,0.0281,-0.017,-0.1806,-0.2415,-0.308,-0.3534,0.0,0.0,0.0,0.0,0.0,0.0,0.0,0.0,0.0,0.0,0.0,0.0,0.0,0.0,0.0,0.0,0.0,0.0,0.0,0.0,0.0,0.0,0.0,1.5535,1.423,1.4024,1.2742,1.0234,1.1358,1.2303,1.2998,1.0813,1.0083,1.0526,0.8761,0.7854,0.7634,0.631,0.5651,0.532,0.3336,0.2058,0.1164,-0.089,-0.2339,-0.3453,-0.4769,-0.5703,-0.6475,-0.7396,-0.7723,-0.756,-0.6856,-0.4218,-0.0925,0.1464,0.4262,0.6912,0.8371,0.8695,0.8537,0.8537,0.8537,0.8537,0.8537,0.8695,0.8593,0.7833,0.7723,0.7453,0.6529,0.6477,0.6315,0.5435,0.4929,0.4378,0.351,0.2231,0.1285,0.1118,0.0615,0.0783,0.2064,0.1675,0.1169,0.0717,-0.2014,-0.54,-0.9416,-1.0535,-1.1011,-1.1002,-0.9006,-0.7706,-0.7348,-0.4146,-0.2397,-0.2175,-0.0167,0.1612,0.3097,0.4573,0.6049,-0.9486,-0.4585,0.0283,0.3363,0.3352,0.2069,0.0178,-0.0826,0.0,-0.2364,0.0,0.0,0.0,0.0,0.0,0.0,0.0,0.0,0.0,0.0,0.0,0.0,0.0,0.0,0.0,0.0,0.0,0.0,0.0,0.0,0.0,1.5442,1.4497,1.3318,1.2698,1.1659,1.0197,0.9882,1.0046,1.0626,1.0086,0.9835,0.9839,0.9056,0.8321,0.767,0.6856,0.6147,0.5376,0.3894,0.2834,0.1993,0.0444,-0.1446,-0.3398,-0.4212,-0.4927,-0.576,-0.723,-0.7723,-0.756,-0.6856,-0.4543,-0.1572,0.13,0.4262,0.6912,0.8371,0.8318,0.7777,0.7777,0.7777,0.7777,0.7777,0.8318,0.8593,0.7833,0.7723,0.7286,0.5867,0.6147,0.6152,0.4789,0.5056,0.4937,0.362,0.2675,0.1897,0.1173,0.1062,0.1341,0.212,0.2174,0.0495,-0.3503,-0.6439,-0.9329,-1.2299,-1.1998,-1.1697,-1.1661,-0.9698,-0.8013,-0.6691,-0.4386,-0.2899,-0.2175,-0.0668,0.0832,0.2324,0.3814,0.5225,-0.2463,0.2505,0.5716,0.6834,0.687,0.0,0.0,0.1152,-0.0801,-0.2074,-0.2154,0.0,0.0,0.0,0.0,0.0,0.0,0.0,0.0,0.0,0.0,0.0,0.0,0.0,0.0,0.0,0.0,0.0,0.0,0.0,0.0,1.4335,1.3664,1.3223,1.1779,1.078,1.0287,0.9877,0.9477,0.9085,0.9557,0.9826,0.9825,0.9984,0.9451,0.8371,0.8019,0.7261,0.6088,0.514,0.3986,0.2666,0.0778,-0.0778,-0.1999,-0.2777,-0.3772,-0.4924,-0.5467,-0.6239,-0.691,-0.6145,-0.4231,-0.1747,0.0762,0.3551,0.6119,0.712,0.7238,0.7128,0.756,0.7343,0.713,0.7613,0.7563,0.7343,0.7074,0.6632,0.6034,0.5058,0.5117,0.5117,0.4572,0.4734,0.4675,0.4181,0.301,0.212,0.1841,0.1006,0.0672,0.1452,0.1114,-0.0552,-0.4087,-0.6508,-0.9068,-1.1943,-1.272,-1.3024,-1.3009,-1.0618,-0.8892,-0.7914,-0.5339,-0.3666,-0.2954,-0.1893,-0.0833,0.0166,0.1653,0.2853,0.1614,0.6604,0.8915,0.9253,0.0,0.0,0.5797,0.3213,0.0853,-0.112,-0.1972,0.0,0.0,0.0,0.0,0.0,0.0,0.0,0.0,0.0,0.0,0.0,0.0,0.0,0.0,0.0,0.0,0.0,0.0,0.0,0.0,1.3941,1.3494,1.321,1.1322,1.0298,1.0286,0.9967,0.9346,0.8458,0.9321,0.9703,0.9715,1.0218,0.9965,0.9106,0.88,0.8059,0.691,0.6173,0.5134,0.3825,0.2049,0.0774,-0.0166,-0.1167,-0.2275,-0.3484,-0.4147,-0.5087,-0.581,-0.5314,-0.3632,-0.1423,0.0765,0.3341,0.5679,0.6416,0.6423,0.6364,0.6848,0.6635,0.6364,0.6904,0.6799,0.6532,0.631,0.5871,0.5326,0.4625,0.4517,0.4517,0.4517,0.4517,0.4406,0.4182,0.301,0.212,0.1897,0.0783,0.0112,0.0391,-0.0278,-0.1767,-0.4497,-0.6654,-0.8844,-1.1217,-1.2493,-1.3163,-1.3163,-1.0939,-0.9265,-0.8387,-0.6208,-0.476,-0.405,-0.3277,-0.2387,-0.1385,0.0055,0.1048,0.1493,0.6546,0.9095,1.0309,0.0,0.0,0.7201,0.5448,0.3576,0.0608,-0.0119,0.023,0.1886,0.0,0.0,0.0,0.0,0.0,0.0,0.0,0.0,0.0,0.0,0.0,0.0,0.0,0.0,0.0,0.0,0.0,0.0,1.4499,1.4077,1.321,1.1326,1.0296,1.0283,0.9954,0.9439,0.8697,0.9322,0.9514,0.9396,0.9719,0.9814,0.9762,0.9054,0.8327,0.767,0.6912,0.618,0.5444,0.4694,0.3527,0.2033,0.0554,-0.0444,-0.1385,-0.3594,-0.437,-0.437,-0.437,-0.291,-0.071,0.1534,0.3744,0.5651,0.6367,0.6036,0.5485,0.5485,0.5485,0.5485,0.5485,0.6036,0.6367,0.5651,0.5485,0.5271,0.4625,0.4517,0.4519,0.4517,0.4517,0.4237,0.3399,0.2675,0.1953,0.1173,0.0448,-0.028,-0.1006,-0.1777,-0.3087,-0.5203,-0.7349,-0.9165,-1.0581,-1.1325,-1.1702,-1.1702,-1.0436,-0.9082,-0.772,-0.702,-0.6239,-0.55,-0.4801,-0.365,-0.2213,-0.0721,0.0,-0.5581,0.2458,0.0,1.165,0.0,0.0,0.0,0.5949,0.0,0.0,0.1765,0.1911,0.3488,0.0,0.0,0.0,0.0,0.0,0.0,0.0,0.0,0.0,0.0,0.0,0.0,0.0,0.0,0.0,0.0,0.0,0.0,1.4178,1.361,1.224,1.1642,1.1012,1.0316,0.9986,0.9452,0.8701,0.9104,0.9431,0.9726,1.1295,1.1443,1.0513,1.0246,0.9765,0.9027,0.7826,0.7502,0.7597,0.5822,0.4895,0.4338,0.287,0.1546,0.022,-0.1492,-0.2772,-0.3612,-0.3045,-0.2043,-0.0662,0.1544,0.3746,0.5462,0.522,0.566,0.6039,0.506,0.4787,0.4895,0.5378,0.533,0.5169,0.5433,0.5109,0.4734,0.4517,0.4895,0.5056,0.4572,0.4895,0.4776,0.3508,0.2675,0.1561,-0.0223,-0.0615,-0.1062,-0.1786,-0.256,-0.3711,-0.5329,-0.698,-0.8524,-0.997,-1.0691,-1.1236,-1.1702,-1.0923,-1.0018,-0.9131,-0.8413,-0.7723,-0.6956,-0.6284,-0.5475,-0.4481,-0.2987,-0.2051,-0.4467,0.3086,0.0,1.084,1.0126,0.8582,0.7031,0.0,0.0,0.0,0.0,0.0,0.0,0.0,0.0,0.0,0.0,0.0,0.0,0.0,0.0,0.0,0.0,0.0,0.0,0.0,0.0,0.0,0.0,0.0,0.0,1.4025,1.3671,1.2408,1.1199,1.0078,0.9006,0.9099,0.8681,0.7847,0.84,0.8675,0.8845,1.088,1.1442,1.0813,1.0813,1.0543,1.0061,0.9227,0.9131,0.94,0.7781,0.6988,0.6569,0.4777,0.3192,0.1653,-0.0387,-0.1889,-0.2785,-0.1996,-0.1049,0.022,0.2693,0.4622,0.5901,0.5745,0.5919,0.5984,0.5113,0.4679,0.4625,0.5003,0.4787,0.4625,0.5003,0.4787,0.4517,0.4517,0.484,0.4948,0.4572,0.4842,0.4611,0.3064,0.1727,0.039,-0.0949,-0.1619,-0.2176,-0.262,-0.3616,-0.4602,-0.5408,-0.6814,-0.8006,-0.8922,-0.9599,-1.0155,-1.0535,-1.0704,-1.045,-0.9761,-0.9614,-0.9293,-0.8864,-0.8196,-0.729,-0.6316,-0.4837,-0.3754,0.1629,0.0,0.0,0.8312,0.7999,0.0,0.518,0.3058,0.1782,0.0,0.0,0.0,0.0,0.0,0.0,0.0,0.0,0.0,0.0,0.0,0.0,0.0,0.0,0.0,0.0,0.0,0.0,0.0,0.0,0.0,0.0,1.3785,1.3865,1.3039,1.0361,0.8314,0.7003,0.7773,0.758,0.6496,0.7342,0.7504,0.7074,0.9119,1.027,1.0606,1.0758,1.0813,1.0813,1.0868,1.0914,1.0902,1.0105,0.9438,0.861,0.6389,0.4667,0.2981,0.0,-0.1501,-0.2062,-0.1276,0.0,0.1743,0.4642,0.6157,0.7004,0.7452,0.6707,0.5753,0.5538,0.5058,0.4572,0.4519,0.4572,0.457,0.457,0.457,0.4625,0.4682,0.4625,0.457,0.457,0.4515,0.39,0.2229,0.0223,-0.1174,-0.1285,-0.251,-0.3399,-0.3508,-0.4718,-0.554,-0.5703,-0.6904,-0.7723,-0.7777,-0.8427,-0.8808,-0.891,-1.0115,-1.0513,-1.0009,-1.0661,-1.1011,-1.1057,-1.0347,-0.9229,-0.7856,-0.6417,-0.5367,0.0384,0.1425,0.0,0.0,0.5163,0.48,0.3846,0.2344,0.1618,0.0,0.0,0.0,0.0,0.0,0.0,0.0,0.0,0.0,0.0,0.0,0.0,0.0,0.0,0.0,0.0,0.0,0.0,0.0,0.0,0.0,0.0,1.2405,1.2172,1.1707,1.1066,0.9543,0.7013,0.8033,0.7872,0.0,0.6987,0.6723,0.5787,0.7856,0.8916,0.9197,1.0304,1.0776,1.0864,1.1366,1.19,1.2229,1.104,1.043,0.9987,0.7896,0.5858,0.3737,0.0771,-0.1109,-0.2005,-0.0664,0.071,0.2431,0.546,0.7582,0.8854,0.7864,0.782,0.7617,0.5912,0.5378,0.5164,0.4625,0.4895,0.5271,0.5271,0.5271,0.5435,0.6043,0.5655,0.5271,0.5271,0.4824,0.3545,0.0889,-0.0446,-0.1507,-0.2675,-0.3121,-0.3783,-0.4882,-0.532,-0.5975,-0.7122,-0.7503,-0.794,-0.8533,-0.8699,-0.9061,-0.9562,-1.0368,-1.0952,-1.1265,-1.1975,-1.2609,-1.3075,-1.2387,-1.1367,-1.0012,-0.9061,-0.7972,0.0,0.0,0.0,0.2443,0.0,0.2133,0.1823,0.1111,0.0,0.0,0.0,0.0,0.0,0.0,0.0,0.0,0.0,0.0,0.0,0.0,0.0,0.0,0.0,0.0,0.0,0.0,0.0,0.0,0.0,0.0,1.1608,1.1597,1.1491,1.133,1.0648,0.9398,0.7558,0.7768,0.7248,0.5924,0.5535,0.4796,0.3784,0.6288,0.7707,0.8336,0.9619,1.0396,1.0881,1.1886,1.2502,1.2817,1.24,1.1643,1.0523,0.8788,0.6544,0.3946,0.0602,-0.1488,-0.2494,-0.099,0.0434,0.2361,0.6395,0.8394,0.9266,0.9134,0.8462,0.7362,0.5898,0.4982,0.4335,0.401,0.4723,0.5485,0.5485,0.5485,0.5597,0.5982,0.5492,0.5001,0.5001,0.4108,0.2607,0.0334,-0.0947,-0.2065,-0.3177,-0.3949,-0.4661,-0.5429,-0.614,-0.6848,-0.7613,-0.8046,-0.8371,-0.8755,-0.8808,-0.911,-0.9762,-1.0415,-1.1249,-1.2211,-1.2913,-1.3595,-1.4198,-1.383,-1.2987,-1.1666,-1.0921,-0.9849,-0.0502,0.0,0.0713,0.0437,0.0,0.0,-0.0222,0.0,0.0,0.0,0.0,0.0,0.0,0.0,0.0,0.0,0.0,0.0,0.0,0.0,0.0,0.0,0.0,0.0,0.0,0.0,0.0,0.0,0.0,0.0,1.0867,1.1028,1.113,1.113,1.0006,0.9014,0.8229,0.7511,0.6525,0.5303,0.3894,0.2805,0.2208,0.4283,0.5856,0.7104,0.8155,0.9133,1.0152,1.1518,1.2318,1.274,1.3145,1.2341,1.0742,0.9096,0.6685,0.372,0.0109,-0.2139,-0.3257,-0.1916,-0.0324,0.192,0.6555,0.8332,0.8981,0.9813,0.8397,0.6345,0.5394,0.4204,0.3283,0.3121,0.422,0.5372,0.5485,0.5485,0.554,0.5651,0.5054,0.4401,0.4125,0.2954,0.1449,-0.0111,-0.1392,-0.2563,-0.3619,-0.4772,-0.5647,-0.602,-0.7162,-0.7981,-0.824,-0.8682,-0.8956,-0.8956,-0.8956,-0.926,-0.9965,-1.0614,-1.1643,-1.311,-1.3658,-1.4283,-1.5022,-1.5022,-1.4348,-1.3105,-1.2493,-1.15,0.0,0.0,-0.1887,0.0,-0.2325,-0.1725,0.0,0.0,0.0,0.0,0.0,0.0,0.0,0.0,0.0,0.0,0.0,0.0,0.0,0.0,0.0,0.0,0.0,0.0,0.0,0.0,0.0,0.0,0.0,1.0835,1.0433,1.0438,1.0438,1.0438,1.0235,0.9667,0.8626,0.8016,0.6884,0.526,0.3061,0.2234,0.2562,0.1393,0.1947,0.3955,0.466,0.5789,0.7161,0.8594,1.024,1.1804,1.1382,1.134,1.1252,0.8681,0.5933,0.2994,-0.0054,-0.2468,-0.4089,-0.3294,-0.1186,0.1489,0.4094,0.6654,0.8469,0.7389,0.6807,0.6065,0.4077,0.3429,0.3159,0.2507,0.3496,0.4703,0.5372,0.5485,0.5706,0.6312,0.5368,0.3992,0.2729,0.1786,0.0502,-0.156,-0.2063,-0.2948,-0.4935,-0.5376,-0.6234,-0.8094,-0.8469,-0.9048,-1.0297,-0.9961,-0.9666,-0.9666,-0.9666,-0.9965,-1.0665,-1.1312,-1.2531,-1.4411,-1.4509,-1.5152,-1.6244,-1.6244,-1.5644,-1.4457,-1.4348,-1.3648,-0.3824,-0.3609,-0.3496,0.0,-0.3998,-0.3721,0.0,0.0,0.0,0.0,0.0,0.0,0.0,0.0,0.0,0.0,0.0,0.0,0.0,0.0,0.0,0.0,0.0,0.0,0.0,0.0,0.0,0.0,0.0,1.0905,1.0682,1.0428,1.0283,1.0283,1.0005,0.9478,0.872,0.747,0.5673,0.3325,0.2315,0.1607,0.1162,0.0358,0.0744,0.2083,0.2403,0.3114,0.4299,0.6447,0.8104,0.9468,1.0768,1.1006,1.043,0.8791,0.6127,0.2883,-0.0054,-0.2844,-0.4903,-0.4166,-0.2756,-0.0906,0.1655,0.3648,0.4896,0.4215,0.3482,0.254,0.1197,0.0547,0.033,0.0833,0.1443,0.2271,0.3386,0.4323,0.4761,0.4213,0.394,0.3335,0.184,0.1341,0.0503,-0.134,-0.1953,-0.2837,-0.465,-0.595,-0.7186,-0.857,-0.9408,-1.014,-1.0762,-1.0517,-1.0364,-1.0364,-1.0364,-1.0665,-1.1312,-1.1998,-1.311,-1.4658,-1.4703,-1.5293,-1.6515,-1.6515,-1.6058,-1.5186,-1.488,-1.4247,0.0,0.0,-0.4091,-0.4381,-0.4878,-0.4927,0.0,0.0,0.0,0.0,0.0,0.0,0.0,0.0,0.0,0.0,0.0,0.0,0.0,0.0,0.0,0.0,0.0,0.0,0.0,0.0,0.0,0.0,1.1684,1.1126,1.1019,1.0539,1.0239,1.0083,0.9721,0.911,0.8296,0.6367,0.431,0.2006,0.1696,0.1028,0.0,-0.0314,-0.0227,0.0139,0.048,0.0945,0.1646,0.3851,0.5423,0.6644,0.9127,0.9766,0.92,0.8649,0.6238,0.2882,0.0163,-0.289,-0.5441,-0.5101,-0.4459,-0.3441,-0.1067,0.0322,0.1025,0.0796,-0.0053,-0.1029,-0.1736,-0.2346,-0.2418,-0.1163,-0.0555,0.0166,0.1838,0.3056,0.3495,0.2396,0.2509,0.2398,0.1285,0.095,0.0335,-0.1173,-0.1841,-0.2891,-0.4701,-0.6479,-0.8029,-0.9093,-1.034,-1.112,-1.1329,-1.117,-1.1061,-1.1061,-1.1061,-1.1266,-1.1765,-1.2453,-1.3421,-1.4658,-1.4703,-1.5293,-1.6515,-1.6515,-1.6194,-1.5588,-1.4966,-1.4381,0.0,-0.5217,0.0,-0.4162,0.0,0.0,0.0,0.0,0.0,0.0,0.0,0.0,0.0,0.0,0.0,0.0,0.0,0.0,0.0,0.0,0.0,0.0,0.0,0.0,0.0,0.0,0.0,0.0,1.2029,1.1547,1.1014,1.0539,1.0083,0.9558,0.9518,0.8727,0.7116,0.479,0.3325,0.2629,0.1474,0.0625,-0.0045,-0.1204,-0.2008,-0.2417,-0.1309,-0.0793,-0.0685,0.0157,0.1691,0.357,0.52,0.6612,0.7717,0.7741,0.5853,0.299,0.0704,-0.2444,-0.5612,-0.6296,-0.5979,-0.5214,-0.436,-0.3098,-0.2115,-0.2822,-0.3097,-0.3321,-0.4052,-0.4278,-0.4066,-0.3314,-0.204,-0.0441,0.1724,0.2286,0.2286,0.2231,0.1675,0.1173,0.1118,0.0504,-0.0448,-0.1897,-0.2175,-0.3223,-0.6143,-0.7143,-0.839,-1.045,-1.1312,-1.2026,-1.2725,-1.2138,-1.1765,-1.1765,-1.1765,-1.1765,-1.1814,-1.2501,-1.3472,-1.4658,-1.4703,-1.5293,-1.6515,-1.6515,-1.6194,-1.5588,-1.4966,-1.4381,0.0,0.0,0.0,-0.6495,0.0,0.0,0.0,0.0,0.0,0.0,0.0,0.0,0.0,0.0,0.0,0.0,0.0,0.0,0.0,0.0,0.0,0.0,0.0,0.0,0.0,0.0,0.0,0.0,0.0,1.1584,1.1014,1.0539,1.004,0.9518,0.9159,0.799,0.5939,0.4674,0.3409,0.2096,0.1296,0.0402,-0.0625,-0.1425,-0.231,-0.3197,-0.3149,-0.3223,-0.3298,-0.2704,-0.1505,0.0209,0.2447,0.4207,0.5614,0.6077,0.4703,0.2352,0.0602,-0.2405,-0.5612,-0.6357,-0.6725,-0.6854,-0.6589,-0.5815,-0.5153,-0.5916,-0.6135,-0.6294,-0.6988,-0.6847,-0.6108,-0.4419,-0.2871,-0.1438,-0.0167,0.0837,0.1341,0.0895,0.1341,0.1675,0.1173,0.0895,0.0391,-0.0612,-0.1998,-0.3809,-0.6248,-0.7948,-0.9714,-1.1671,-1.2485,-1.3111,-1.361,-1.3215,-1.2895,-1.2895,-1.2653,-1.2505,-1.2505,-1.35,-1.4247,-1.4703,-1.5472,-1.6064,-1.6515,-1.6515,-1.6194,-1.5588,-1.4966,-1.4381,-1.0214,0.0,0.0,0.0,0.0,0.0,0.0,0.0,0.0,0.0,0.0,0.0,0.0,0.0,0.0,0.0,0.0,0.0,0.0,0.0,0.0,0.0,0.0,0.0,0.0,0.0,0.0,0.0,0.0,0.0,1.1014,1.0539,0.9961,0.9239,0.8337,0.7039,0.5303,0.4326,0.3144,0.1785,0.076,-0.0223,-0.1251,-0.2,-0.288,-0.3854,-0.4637,-0.4979,-0.4972,-0.4749,-0.3997,-0.2689,-0.0265,0.1562,0.3103,0.4534,0.3836,0.2036,0.077,-0.2026,-0.5279,-0.63,-0.7292,-0.8049,-0.8049,-0.7723,-0.7453,-0.794,-0.8049,-0.815,-0.8603,-0.8025,-0.684,-0.4852,-0.3262,-0.1944,-0.0949,0.0056,0.056,0.0112,0.1006,0.1675,0.1173,0.1285,0.1059,-0.0167,-0.1824,-0.3899,-0.6546,-0.8511,-1.0443,-1.2296,-1.3086,-1.3677,-1.4048,-1.3745,-1.3506,-1.3506,-1.3115,-1.2881,-1.2881,-1.3878,-1.4468,-1.4703,-1.57,-1.6287,-1.6515,-1.6515,-1.6194,-1.5588,-1.4966,-1.4133,0.0,0.0,0.0,0.0,0.0,0.0,0.0,0.0,0.0,0.0,0.0,0.0,0.0,0.0,0.0,0.0,0.0,0.0,0.0,0.0,0.0,0.0,0.0,0.0,0.0,0.0,0.0,0.0,1.2071,1.1542,1.0981,1.0495,0.976,0.872,0.7056,0.5916,0.5305,0.3583,0.2399,0.174,-0.0045,-0.1251,-0.1873,-0.3015,-0.3854,-0.452,-0.5698,-0.5966,-0.5559,-0.5927,-0.5732,-0.497,-0.3112,-0.141,0.0272,0.3159,0.335,0.2045,0.1315,-0.1363,-0.4615,-0.6077,-0.7563,-0.8755,-0.8755,-0.8804,-0.8808,-0.8808,-0.8808,-0.8808,-0.8808,-0.7723,-0.6298,-0.4779,-0.3318,-0.1841,-0.0336,0.0,0.0056,0.0056,0.0615,0.1118,0.1173,0.173,0.1447,-0.0721,-0.1764,-0.3555,-0.7158,-0.885,-1.0443,-1.2348,-1.3096,-1.3696,-1.4063,-1.3769,-1.3525,-1.3525,-1.312,-1.2881,-1.2881,-1.351,-1.4097,-1.4703,-1.532,-1.5908,-1.6515,-1.6515,-1.6194,-1.5588,-1.4966,-1.3643,-1.2309,0.0,0.0,0.0,0.0,0.0,0.0,0.0,0.0,0.0,0.0,0.0,0.0,0.0,0.0,0.0,0.0,0.0,0.0,0.0,0.0,0.0,0.0,0.0,0.0,0.0,0.0,0.0,1.1884,1.1239,0.9981,0.9075,0.8439,0.8115,0.6855,0.5916,0.5305,0.3583,0.2173,0.111,-0.0223,-0.165,-0.3061,-0.3802,-0.4724,-0.5741,-0.6471,-0.6724,-0.6656,-0.7672,-0.7389,-0.6313,-0.6159,-0.4608,-0.2185,-0.0273,0.0496,0.0499,-0.0221,-0.1874,-0.3862,-0.5309,-0.6794,-0.7996,-0.7996,-0.8374,-0.8808,-0.8808,-0.8808,-0.8808,-0.8808,-0.8455,-0.7611,-0.5653,-0.4081,-0.2608,-0.1117,0.0056,0.0783,0.0783,0.1396,0.2064,0.2675,0.2453,0.1613,-0.0055,-0.2308,-0.4915,-0.7982,-0.9633,-1.1201,-1.3034,-1.367,-1.4136,-1.4565,-1.4209,-1.3907,-1.3907,-1.3281,-1.2881,-1.2881,-1.3884,-1.4514,-1.4703,-1.5738,-1.6331,-1.6515,-1.6515,-1.6194,-1.5582,-1.4549,-1.3542,-1.2881,-1.2573,0.0,0.0,0.0,0.0,0.0,-0.9604,0.0,0.0,0.0,0.0,0.0,0.0,0.0,0.0,0.0,0.0,0.0,0.0,0.0,0.0,0.0,0.0,0.0,1.3578,1.307,1.1901,1.1811,1.1126,0.9597,0.848,0.7916,0.7916,0.6774,0.5784,0.4945,0.3176,0.1725,0.0488,-0.1199,-0.2532,-0.3542,-0.4635,-0.5513,-0.6224,-0.6771,-0.6979,-0.71,-0.8238,-0.8154,-0.723,-0.72,-0.5965,-0.4007,-0.2201,-0.1108,-0.0557,-0.1275,-0.2324,-0.3539,-0.5037,-0.6519,-0.7723,-0.7723,-0.7993,-0.8427,-0.8699,-0.8808,-0.8752,-0.8424,-0.8081,-0.7354,-0.5504,-0.3923,-0.25,-0.134,-0.0168,0.0727,0.1062,0.1953,0.2788,0.3289,0.2954,0.2056,0.0276,-0.2246,-0.5141,-0.8493,-1.021,-1.1874,-1.3806,-1.4258,-1.4507,-1.4761,-1.4385,-1.4004,-1.3882,-1.3252,-1.2881,-1.2881,-1.4066,-1.4703,-1.4703,-1.5882,-1.6515,-1.6515,-1.6515,-1.6194,-1.5588,-1.4641,-1.3972,-1.2881,-1.2915,0.0,0.0,0.0,0.0,-1.2758,-1.0128,0.0,0.0,0.0,0.0,0.0,0.0,0.0,0.0,0.0,0.0,0.0,0.0,0.0,0.0,0.0,0.0,1.4327,1.4159,1.3502,1.207,1.176,1.0965,0.9478,0.8435,0.7833,0.7708,0.6644,0.5516,0.4324,0.2505,0.1014,-0.0222,-0.2521,-0.3716,-0.3931,-0.5553,-0.6307,-0.6435,-0.6894,-0.7066,-0.7086,-0.7954,-0.8147,-0.7839,-0.7067,-0.6323,-0.5337,-0.3257,-0.2,-0.1451,-0.2108,-0.2767,-0.3542,-0.4929,-0.6305,-0.745,-0.745,-0.7506,-0.7723,-0.8374,-0.8537,-0.8427,-0.7723,-0.702,-0.6143,-0.4756,-0.3331,-0.212,-0.1396,-0.0559,0.0168,0.0838,0.2119,0.3065,0.3176,0.3064,0.2221,0.0166,-0.2079,-0.4936,-0.8811,-1.0608,-1.2333,-1.4508,-1.4756,-1.4785,-1.4785,-1.4385,-1.3975,-1.3701,-1.3234,-1.3017,-1.3113,-1.4201,-1.4789,-1.4789,-1.5926,-1.6515,-1.6515,-1.6515,-1.6194,-1.5588,-1.5056,-1.4744,-1.2881,-1.3125,-1.3586,-1.448,0.0,0.0,-1.3098,-1.1984,0.0,0.0,0.0,0.0,0.0,0.0,0.0,0.0,0.0,0.0,0.0,0.0,0.0,0.0,0.0,0.0,1.5395,1.4625,1.3809,1.3063,1.1459,1.0031,0.8918,0.8238,0.7492,0.6562,0.5825,0.4906,0.3674,0.1449,-0.0263,-0.1454,-0.3348,-0.4967,-0.634,-0.6693,-0.7091,-0.7576,-0.7663,-0.7447,-0.7002,-0.6985,-0.7324,-0.7912,-0.7969,-0.7295,-0.619,-0.4587,-0.3495,-0.2898,-0.306,-0.3171,-0.345,-0.4398,-0.5275,-0.5921,-0.5921,-0.6362,-0.6858,-0.6966,-0.702,-0.702,-0.6858,-0.6253,-0.5481,-0.4592,-0.372,-0.2899,-0.212,-0.0947,0.0056,0.0167,0.0948,0.173,0.2286,0.1447,0.0278,-0.072,-0.3298,-0.6074,-0.8936,-1.0608,-1.2175,-1.4038,-1.4575,-1.4785,-1.4785,-1.4385,-1.4309,-1.4748,-1.406,-1.3826,-1.434,-1.5056,-1.541,-1.541,-1.6145,-1.6515,-1.6515,-1.6515,-1.6194,-1.5588,-1.5493,-1.5141,-1.2881,-1.3037,-1.3421,-1.4447,0.0,0.0,0.0,0.0,-1.1517,0.0,0.0,0.0,0.0,0.0,0.0,0.0,0.0,0.0,0.0,0.0,0.0,0.0,0.0,0.0,1.6678,1.5828,1.4838,1.3769,1.1996,1.0517,0.9518,0.8638,0.7603,0.6227,0.5341,0.4144,0.2646,0.0307,-0.1621,-0.3108,-0.5087,-0.6517,-0.7432,-0.7963,-0.8072,-0.7916,-0.7916,-0.7572,-0.6992,-0.6832,-0.7154,-0.7692,-0.7459,-0.6978,-0.6264,-0.5333,-0.4273,-0.34,-0.3789,-0.3622,-0.3456,-0.4237,-0.4948,-0.5485,-0.5485,-0.6036,-0.6532,-0.6147,-0.6312,-0.6534,-0.6145,-0.576,-0.532,-0.4608,-0.3838,-0.3177,-0.2842,-0.1893,-0.1113,-0.1113,-0.078,-0.0056,0.139,0.0723,-0.0499,-0.1985,-0.4551,-0.7282,-0.9833,-1.1632,-1.3332,-1.5094,-1.5518,-1.5726,-1.5872,-1.5426,-1.5167,-1.5288,-1.4638,-1.4376,-1.4703,-1.5276,-1.589,-1.6446,-1.7008,-1.7153,-1.6915,-1.6915,-1.6612,-1.6051,-1.6051,-1.5876,0.0,0.0,0.0,0.0,0.0,-1.4595,0.0,0.0,0.0,-1.0733,0.0,0.0,0.0,0.0,0.0,0.0,0.0,0.0,0.0,0.0,0.0,0.0,0.0,0.0,0.0,1.715,1.597,1.4356,1.2852,1.1543,1.0559,0.9187,0.7762,0.6379,0.5089,0.343,0.1494,-0.0918,-0.3051,-0.4869,-0.7014,-0.8128,-0.8274,-0.9169,-0.9,-0.8036,-0.8036,-0.7655,-0.6979,-0.6894,-0.7078,-0.7346,-0.6703,-0.636,-0.611,-0.552,-0.4496,-0.3456,-0.407,-0.3734,-0.3233,-0.4013,-0.456,-0.4878,-0.5046,-0.5485,-0.5873,-0.5435,-0.5712,-0.6041,-0.5435,-0.5326,-0.5164,-0.4625,-0.4013,-0.3511,-0.3511,-0.2954,-0.2453,-0.2398,-0.2286,-0.1615,0.0166,-0.0277,-0.1492,-0.3402,-0.5938,-0.8497,-1.0934,-1.2867,-1.4643,-1.636,-1.6655,-1.6828,-1.7084,-1.657,-1.6108,-1.5842,-1.5209,-1.4926,-1.5017,-1.5626,-1.6403,-1.7422,-1.7787,-1.7747,-1.7312,-1.7188,-1.6915,-1.6515,-1.6515,-1.6558,0.0,0.0,0.0,0.0,-1.4987,0.0,0.0,0.0,-1.428,-1.2605,0.0,0.0,0.0,0.0,0.0,0.0,0.0,0.0,0.0,0.0,0.0,0.0,0.0,0.0,0.0,1.7956,1.6418,1.4929,1.376,1.2635,1.1593,0.9362,0.7708,0.677,0.5235,0.3029,0.0219,-0.2075,-0.4331,-0.6553,-0.8339,-0.945,-0.9929,-1.0055,-0.9556,-0.8598,-0.8598,-0.8017,-0.6979,-0.6474,-0.6578,-0.7042,-0.6816,-0.6517,-0.6056,-0.4913,-0.3995,-0.3343,-0.3399,-0.2953,-0.2453,-0.3176,-0.3064,-0.2729,-0.3396,-0.3674,-0.3785,-0.4457,-0.468,-0.4736,-0.4625,-0.4625,-0.457,-0.4517,-0.4406,-0.4349,-0.4349,-0.379,-0.3233,-0.3176,-0.262,-0.2119,-0.1894,-0.2995,-0.4192,-0.5041,-0.7454,-0.9894,-1.19,-1.3697,-1.5264,-1.66,-1.7213,-1.7501,-1.7555,-1.6709,-1.6405,-1.6879,-1.6043,-1.5732,-1.6287,-1.6818,-1.7381,-1.798,-1.7585,-1.7347,-1.7312,-1.6837,-1.6558,-1.6515,-1.6515,-1.6752,0.0,0.0,0.0,0.0,0.0,0.0,-1.5479,0.0,-1.5563,0.0,0.0,0.0,0.0,0.0,0.0,0.0,0.0,0.0,0.0,0.0,0.0,0.0,0.0,0.0,0.0,0.0,0.0,0.0,1.4922,1.3696,1.2738,1.0602,0.8468,0.6323,0.4559,0.2141,-0.0954,-0.36,-0.605,-0.8278,-0.9954,-1.0881,-1.1111,-1.1111,-1.0407,-0.9084,-0.8829,-0.7889,-0.6559,-0.6644,-0.6601,-0.6615,-0.7214,-0.6855,-0.5889,-0.5243,-0.4318,-0.3289,-0.2842,-0.2453,-0.2231,-0.2564,-0.2453,-0.2342,-0.3121,-0.3343,-0.3456,-0.4293,-0.4517,-0.4517,-0.4517,-0.4517,-0.4517,-0.4517,-0.4517,-0.4517,-0.4517,-0.4237,-0.4122,-0.4498,-0.4328,-0.4373,-0.5171,-0.511,-0.5485,-0.7097,-0.9148,-1.1129,-1.2721,-1.4455,-1.5855,-1.6854,-1.7433,-1.7833,-1.7921,-1.7315,-1.6978,-1.7272,-1.6861,-1.6834,-1.7429,-1.794,-1.8334,-1.8574,-1.8334,-1.8059,-1.7747,-1.7229,-1.6795,-1.6515,-1.6515,-1.6637,-1.2881,0.0,0.0,0.0,0.0,0.0,0.0,0.0,0.0,0.0,0.0,0.0,0.0,0.0,0.0,0.0,0.0,0.0,0.0,0.0,0.0,0.0,0.0,0.0,0.0,0.0,0.0,0.0,0.0,1.472,1.3669,1.126,0.8814,0.6355,0.386,0.0949,-0.2352,-0.5094,-0.7624,-0.9983,-1.129,-1.1959,-1.1993,-1.1678,-1.0783,-0.9336,-0.8561,-0.7551,-0.6435,-0.6686,-0.6647,-0.648,-0.7233,-0.6833,-0.5768,-0.5364,-0.431,-0.2955,-0.2175,-0.1897,-0.1841,-0.1675,-0.1618,-0.1786,-0.2731,-0.301,-0.3233,-0.4236,-0.4349,-0.4237,-0.446,-0.4349,-0.4237,-0.446,-0.4517,-0.4517,-0.4517,-0.4625,-0.4893,-0.5433,-0.5651,-0.6239,-0.7662,-0.6993,-0.7025,-0.9199,-1.0897,-1.246,-1.3818,-1.5289,-1.6444,-1.7105,-1.7671,-1.805,-1.8188,-1.7702,-1.7396,-1.7359,-1.731,-1.7626,-1.8295,-1.8535,-1.8734,-1.8893,-1.8612,-1.8256,-1.786,-1.7347,-1.6873,-1.6515,-1.6515,-1.6595,0.0,0.0,0.0,-1.3821,0.0,0.0,0.0,0.0,-1.6637,0.0,0.0,0.0,0.0,0.0,0.0,0.0,0.0,0.0,0.0,0.0,0.0,0.0,0.0,0.0,0.0,0.0,0.0,0.0,0.0,0.0,1.4141,1.0689,0.831,0.7269,0.3276,-0.0546,-0.4081,-0.6416,-0.8902,-1.1617,-1.2181,-1.2467,-1.2431,-1.1408,-1.0372,-0.9297,-0.7721,-0.7043,-0.6937,-0.6435,-0.652,-0.6966,-0.6737,-0.6296,-0.5665,-0.4769,-0.3479,-0.212,-0.1396,-0.1118,-0.1006,-0.028,-0.0056,-0.0336,-0.1786,-0.2231,-0.2564,-0.407,-0.3958,-0.3511,-0.4294,-0.3903,-0.3511,-0.4294,-0.4517,-0.4517,-0.4517,-0.5003,-0.5487,-0.5485,-0.6093,-0.7007,-0.8416,-0.8623,-0.9261,-1.1277,-1.257,-1.3877,-1.534,-1.6433,-1.7141,-1.7366,-1.785,-1.8175,-1.8204,-1.7702,-1.739,-1.7295,-1.7319,-1.7787,-1.881,-1.8373,-1.8373,-1.8893,-1.786,-1.7347,-1.7312,-1.6795,-1.6515,-1.6515,-1.6515,-1.6795,0.0,0.0,-1.3286,-1.3684,0.0,0.0,0.0,0.0,0.0,0.0,0.0,0.0,0.0,0.0,0.0,0.0,0.0,0.0,0.0,0.0,0.0,0.0,0.0,0.0,0.0,0.0,0.0,0.0,1.4641,0.0,0.0,1.0347,0.7306,0.4293,0.1337,-0.2043,-0.5802,-0.8409,-1.0683,-1.264,-1.2871,-1.2797,-1.2467,-1.1408,-1.0146,-0.872,-0.7545,-0.6352,-0.5338,-0.5959,-0.6087,-0.593,-0.641,-0.6197,-0.542,-0.4057,-0.2991,-0.2008,-0.0783,-0.0392,-0.0336,-0.0056,-0.0336,-0.0895,-0.1898,-0.2175,-0.2398,-0.3399,-0.3176,-0.262,-0.2899,-0.3122,-0.3507,-0.4273,-0.4827,-0.5275,-0.5771,-0.6041,-0.6517,-0.7461,-0.7835,-0.857,-1.0422,-1.1119,-1.1648,-1.2338,-1.3123,-1.3968,-1.4892,-1.56,-1.5925,-1.5659,-1.6068,-1.6421,-1.6496,-1.6678,-1.6969,-1.7284,-1.7312,-1.7626,-1.8334,-1.8217,-1.8178,-1.8373,-1.7666,-1.7312,-1.7312,-1.6752,-1.6515,-1.6515,-1.6515,-1.6595,-1.269,-1.2651,0.0,-1.3241,-1.3777,0.0,-1.5186,0.0,0.0,0.0,0.0,0.0,0.0,0.0,0.0,0.0,0.0,0.0,0.0,0.0,0.0,0.0,0.0,0.0,0.0,0.0,1.4562,1.3893,0.0,0.0,0.0,0.0,0.561,0.2268,-0.0914,-0.4447,-0.8312,-1.0567,-1.2164,-1.3094,-1.301,-1.2597,-1.1875,-1.0603,-0.9369,-0.8134,-0.6697,-0.5543,-0.4781,-0.5348,-0.5437,-0.532,-0.5687,-0.5568,-0.5038,-0.3639,-0.2211,-0.0892,0.0056,0.0392,0.0336,0.0112,-0.0503,-0.1285,-0.2342,-0.2453,-0.2342,-0.3122,-0.2621,-0.1841,-0.212,-0.2564,-0.3172,-0.4152,-0.514,-0.6072,-0.6781,-0.7362,-0.7991,-0.8874,-0.9245,-0.997,-1.1507,-1.2341,-1.2961,-1.3396,-1.4023,-1.4641,-1.5242,-1.5435,-1.5418,-1.5051,-1.5123,-1.5319,-1.5573,-1.5958,-1.652,-1.7264,-1.7312,-1.7544,-1.8059,-1.79,-1.782,-1.782,-1.7312,-1.7034,-1.6993,-1.6674,-1.638,-1.6194,-1.638,-1.638]}]]